<?xml version='1.0' encoding='UTF-8'?><gpx version="1.1" creator="JPX - https://github.com/jenetics/jpx" xmlns="http://www.topografix.com/GPX/1/1"><trk><trkseg><trkpt lat="44.5228811684941" lon="10.888244449314197"><ele>136.0</ele><time>2026-04-06T06:20:11.999Z</time></trkpt><trkpt lat="44.52281232321025" lon="10.888252567597249"><ele>136.0</ele><time>2026-04-06T06:20:21.999Z</time></trkpt><trkpt lat="44.52275394923814" lon="10.888319139594664"><ele>136.0</ele><time>2026-04-06T06:20:24.999Z</time></trkpt><trkpt lat="44.522699771786776" lon="10.888400503574731"><ele>136.0</ele><time>2026-04-06T06:20:28.999Z</time></trkpt><trkpt lat="44.522634139736596" lon="10.88845987818052"><ele>136.0</ele><time>2026-04-06T06:20:31.999Z</time></trkpt><trkpt lat="44.52257204480332" lon="10.888538620557199"><ele>136.0</ele><time>2026-04-06T06:20:35.999Z</time></trkpt><trkpt lat="44.52252429360898" lon="10.888624169004137"><ele>135.83333333333334</ele><time>2026-04-06T06:20:38.999Z</time></trkpt><trkpt lat="44.522530541130656" lon="10.888717501697894"><ele>135.66666666666669</ele><time>2026-04-06T06:20:43.999Z</time></trkpt><trkpt lat="44.52259781647002" lon="10.888773216667374"><ele>135.5</ele><time>2026-04-06T06:20:46.999Z</time></trkpt><trkpt lat="44.52265677493476" lon="10.88881177149981"><ele>135.33333333333334</ele><time>2026-04-06T06:20:48.999Z</time></trkpt><trkpt lat="44.52274137006114" lon="10.888872408760466"><ele>135.16666666666666</ele><time>2026-04-06T06:20:51.999Z</time></trkpt><trkpt lat="44.52281845430079" lon="10.888905888594351"><ele>135.0</ele><time>2026-04-06T06:20:54.999Z</time></trkpt><trkpt lat="44.52288454450025" lon="10.889014866131335"><ele>134.8</ele><time>2026-04-06T06:20:57.999Z</time></trkpt><trkpt lat="44.52297623107301" lon="10.889083019362808"><ele>134.6</ele><time>2026-04-06T06:20:59.999Z</time></trkpt><trkpt lat="44.523036855854535" lon="10.889111060471063"><ele>134.4</ele><time>2026-04-06T06:21:01.999Z</time></trkpt><trkpt lat="44.523140790920586" lon="10.889173803849202"><ele>134.2</ele><time>2026-04-06T06:21:03.999Z</time></trkpt><trkpt lat="44.52323429915718" lon="10.889212380788694"><ele>134.0</ele><time>2026-04-06T06:21:05.998Z</time></trkpt><trkpt lat="44.52332334559091" lon="10.889261553757558"><ele>133.8</ele><time>2026-04-06T06:21:07.998Z</time></trkpt><trkpt lat="44.52339912598712" lon="10.889310296638058"><ele>133.60000000000002</ele><time>2026-04-06T06:21:10Z</time></trkpt><trkpt lat="44.52348003291979" lon="10.889363261122401"><ele>133.4</ele><time>2026-04-06T06:21:12Z</time></trkpt><trkpt lat="44.52358121434505" lon="10.889414658145093"><ele>133.20000000000002</ele><time>2026-04-06T06:21:14Z</time></trkpt><trkpt lat="44.523664496666626" lon="10.889486596005902"><ele>133.0</ele><time>2026-04-06T06:21:16Z</time></trkpt><trkpt lat="44.52375987808024" lon="10.889561557655389"><ele>132.8</ele><time>2026-04-06T06:21:18Z</time></trkpt><trkpt lat="44.52384075807972" lon="10.889627385750925"><ele>132.60000000000002</ele><time>2026-04-06T06:21:20Z</time></trkpt><trkpt lat="44.523924814822074" lon="10.889673848920012"><ele>132.39999999999998</ele><time>2026-04-06T06:21:22Z</time></trkpt><trkpt lat="44.52400427089737" lon="10.889726117415197"><ele>132.2</ele><time>2026-04-06T06:21:24Z</time></trkpt><trkpt lat="44.524085567415085" lon="10.889774115808535"><ele>132.0</ele><time>2026-04-06T06:21:26Z</time></trkpt><trkpt lat="44.52418137963853" lon="10.889816570050257"><ele>132.0</ele><time>2026-04-06T06:21:28Z</time></trkpt><trkpt lat="44.52426181659301" lon="10.889872025570863"><ele>132.0</ele><time>2026-04-06T06:21:30Z</time></trkpt><trkpt lat="44.52434059405595" lon="10.88992074221181"><ele>132.0</ele><time>2026-04-06T06:21:32Z</time></trkpt><trkpt lat="44.52441341465568" lon="10.889978813220385"><ele>132.0</ele><time>2026-04-06T06:21:34Z</time></trkpt><trkpt lat="44.52450311654065" lon="10.890040218172247"><ele>132.0</ele><time>2026-04-06T06:21:36Z</time></trkpt><trkpt lat="44.52458809742363" lon="10.890102352774397"><ele>131.6</ele><time>2026-04-06T06:21:38Z</time></trkpt><trkpt lat="44.52467574109641" lon="10.890160876209935"><ele>131.2</ele><time>2026-04-06T06:21:40Z</time></trkpt><trkpt lat="44.52475496565351" lon="10.890217732758511"><ele>130.8</ele><time>2026-04-06T06:21:42Z</time></trkpt><trkpt lat="44.524862035988825" lon="10.890278201585003"><ele>130.4</ele><time>2026-04-06T06:21:44Z</time></trkpt><trkpt lat="44.524945336407306" lon="10.890350113492026"><ele>130.0</ele><time>2026-04-06T06:21:46Z</time></trkpt><trkpt lat="44.52504065071605" lon="10.8904079371094"><ele>130.0</ele><time>2026-04-06T06:21:48Z</time></trkpt><trkpt lat="44.52515615286975" lon="10.890479100658519"><ele>130.0</ele><time>2026-04-06T06:21:50Z</time></trkpt><trkpt lat="44.52523579857305" lon="10.890523605489577"><ele>130.0</ele><time>2026-04-06T06:21:52Z</time></trkpt><trkpt lat="44.525339033612624" lon="10.89060342460441"><ele>130.0</ele><time>2026-04-06T06:21:54Z</time></trkpt><trkpt lat="44.52543503349813" lon="10.89066315780369"><ele>130.0</ele><time>2026-04-06T06:21:56Z</time></trkpt><trkpt lat="44.525542967160455" lon="10.89072803907015"><ele>130.0</ele><time>2026-04-06T06:21:58Z</time></trkpt><trkpt lat="44.52559170883136" lon="10.890786757498443"><ele>130.0</ele><time>2026-04-06T06:21:59Z</time></trkpt><trkpt lat="44.52568329382151" lon="10.89082981715352"><ele>130.0</ele><time>2026-04-06T06:22:00.999Z</time></trkpt><trkpt lat="44.52577683491231" lon="10.890878599505497"><ele>130.0</ele><time>2026-04-06T06:22:02.999Z</time></trkpt><trkpt lat="44.52587167374407" lon="10.890949339388033"><ele>130.0</ele><time>2026-04-06T06:22:04.999Z</time></trkpt><trkpt lat="44.525967461161606" lon="10.891015994316913"><ele>130.0</ele><time>2026-04-06T06:22:06.999Z</time></trkpt><trkpt lat="44.526073481236786" lon="10.891081185365058"><ele>130.0</ele><time>2026-04-06T06:22:08.999Z</time></trkpt><trkpt lat="44.526177440164034" lon="10.891142763517983"><ele>130.0</ele><time>2026-04-06T06:22:10.999Z</time></trkpt><trkpt lat="44.52626275335511" lon="10.891212190528154"><ele>130.0</ele><time>2026-04-06T06:22:12.999Z</time></trkpt><trkpt lat="44.5263618952013" lon="10.891286255199512"><ele>130.0</ele><time>2026-04-06T06:22:14.999Z</time></trkpt><trkpt lat="44.5264390325492" lon="10.891326559694459"><ele>129.25</ele><time>2026-04-06T06:22:15.999Z</time></trkpt><trkpt lat="44.52652630838859" lon="10.89137259133842"><ele>128.5</ele><time>2026-04-06T06:22:17.999Z</time></trkpt><trkpt lat="44.52662591596873" lon="10.891456044197367"><ele>127.75</ele><time>2026-04-06T06:22:19.999Z</time></trkpt><trkpt lat="44.52672322702369" lon="10.89151837689266"><ele>127.0</ele><time>2026-04-06T06:22:21.999Z</time></trkpt><trkpt lat="44.526843308835005" lon="10.891334614663663"><ele>127.0</ele><time>2026-04-06T06:22:24.999Z</time></trkpt><trkpt lat="44.52685568343045" lon="10.891195210994656"><ele>126.99999999999999</ele><time>2026-04-06T06:22:26.999Z</time></trkpt><trkpt lat="44.52688864607659" lon="10.891084833647623"><ele>126.99999999999999</ele><time>2026-04-06T06:22:28.999Z</time></trkpt><trkpt lat="44.526908228555634" lon="10.8909707235552"><ele>127.0</ele><time>2026-04-06T06:22:30.999Z</time></trkpt><trkpt lat="44.52694642099979" lon="10.890842056627307"><ele>127.0</ele><time>2026-04-06T06:22:32.999Z</time></trkpt><trkpt lat="44.52698094731108" lon="10.890727465355102"><ele>127.0</ele><time>2026-04-06T06:22:34.999Z</time></trkpt><trkpt lat="44.52703056094031" lon="10.89066453900653"><ele>126.99999999999999</ele><time>2026-04-06T06:22:36.999Z</time></trkpt><trkpt lat="44.52716043620729" lon="10.890763772671253"><ele>126.99999999999999</ele><time>2026-04-06T06:22:38.999Z</time></trkpt><trkpt lat="44.52725072345315" lon="10.890837699601263"><ele>127.0</ele><time>2026-04-06T06:22:40.999Z</time></trkpt><trkpt lat="44.52733980292184" lon="10.89089424959892"><ele>127.0</ele><time>2026-04-06T06:22:42.999Z</time></trkpt><trkpt lat="44.52742852106651" lon="10.890933470142233"><ele>126.6</ele><time>2026-04-06T06:22:44.999Z</time></trkpt><trkpt lat="44.527515842818005" lon="10.891001801978456"><ele>126.19999999999999</ele><time>2026-04-06T06:22:46.999Z</time></trkpt><trkpt lat="44.527622125122875" lon="10.890838568301959"><ele>125.8</ele><time>2026-04-06T06:22:52.999Z</time></trkpt><trkpt lat="44.52763229884377" lon="10.890706501005095"><ele>125.4</ele><time>2026-04-06T06:22:54.999Z</time></trkpt><trkpt lat="44.52766581182589" lon="10.890578980309076"><ele>125.0</ele><time>2026-04-06T06:22:56.999Z</time></trkpt><trkpt lat="44.52769895121835" lon="10.890443739073822"><ele>125.0</ele><time>2026-04-06T06:22:58.999Z</time></trkpt><trkpt lat="44.52772567519426" lon="10.8902849670502"><ele>125.0</ele><time>2026-04-06T06:23:00.999Z</time></trkpt><trkpt lat="44.527768074325266" lon="10.890126071817313"><ele>125.0</ele><time>2026-04-06T06:23:02.999Z</time></trkpt><trkpt lat="44.527802588926484" lon="10.889956522502155"><ele>125.0</ele><time>2026-04-06T06:23:04.999Z</time></trkpt><trkpt lat="44.52784482791345" lon="10.889791289216067"><ele>125.2</ele><time>2026-04-06T06:23:06.999Z</time></trkpt><trkpt lat="44.527873972324045" lon="10.889628204892292"><ele>125.4</ele><time>2026-04-06T06:23:08.999Z</time></trkpt><trkpt lat="44.52792220285763" lon="10.889469775024475"><ele>125.6</ele><time>2026-04-06T06:23:10.999Z</time></trkpt><trkpt lat="44.52795803830858" lon="10.889307287701078"><ele>125.8</ele><time>2026-04-06T06:23:12.998Z</time></trkpt><trkpt lat="44.52798334998032" lon="10.889225567645246"><ele>126.0</ele><time>2026-04-06T06:23:13.998Z</time></trkpt><trkpt lat="44.52800064993825" lon="10.889138069340957"><ele>125.66666666666667</ele><time>2026-04-06T06:23:14.998Z</time></trkpt><trkpt lat="44.528044805927266" lon="10.888974391678238"><ele>125.33333333333334</ele><time>2026-04-06T06:23:17Z</time></trkpt><trkpt lat="44.52807018721283" lon="10.888890775155646"><ele>125.0</ele><time>2026-04-06T06:23:18Z</time></trkpt><trkpt lat="44.5280934655174" lon="10.88880639571198"><ele>124.66666666666667</ele><time>2026-04-06T06:23:19Z</time></trkpt><trkpt lat="44.528115001773074" lon="10.888716462878815"><ele>124.33333333333334</ele><time>2026-04-06T06:23:20Z</time></trkpt><trkpt lat="44.52816039827994" lon="10.888560873853695"><ele>124.0</ele><time>2026-04-06T06:23:22Z</time></trkpt><trkpt lat="44.5281798484983" lon="10.888466692405817"><ele>124.00000000000001</ele><time>2026-04-06T06:23:23Z</time></trkpt><trkpt lat="44.5282023687049" lon="10.888378662417066"><ele>124.0</ele><time>2026-04-06T06:23:24Z</time></trkpt><trkpt lat="44.52822911741523" lon="10.888294689531026"><ele>124.0</ele><time>2026-04-06T06:23:25Z</time></trkpt><trkpt lat="44.528250407760474" lon="10.888203602523959"><ele>124.0</ele><time>2026-04-06T06:23:26Z</time></trkpt><trkpt lat="44.52827670128787" lon="10.888113751007518"><ele>124.00000000000001</ele><time>2026-04-06T06:23:27Z</time></trkpt><trkpt lat="44.528296773133484" lon="10.888023961918813"><ele>124.0</ele><time>2026-04-06T06:23:28Z</time></trkpt><trkpt lat="44.52834551576824" lon="10.887851292732513"><ele>124.00000000000001</ele><time>2026-04-06T06:23:30Z</time></trkpt><trkpt lat="44.528371239692554" lon="10.887767124722746"><ele>124.0</ele><time>2026-04-06T06:23:31Z</time></trkpt><trkpt lat="44.52839319892076" lon="10.887676175069027"><ele>124.0</ele><time>2026-04-06T06:23:32Z</time></trkpt><trkpt lat="44.52843421433503" lon="10.8875115639505"><ele>124.0</ele><time>2026-04-06T06:23:34Z</time></trkpt><trkpt lat="44.52846279708457" lon="10.887421001841782"><ele>124.00000000000001</ele><time>2026-04-06T06:23:35Z</time></trkpt><trkpt lat="44.52848627619449" lon="10.887335493657563"><ele>124.0</ele><time>2026-04-06T06:23:36Z</time></trkpt><trkpt lat="44.52853720210743" lon="10.88716646623951"><ele>124.4</ele><time>2026-04-06T06:23:38Z</time></trkpt><trkpt lat="44.52855746387151" lon="10.887080653632138"><ele>124.80000000000001</ele><time>2026-04-06T06:23:39Z</time></trkpt><trkpt lat="44.52859644646977" lon="10.886906900008464"><ele>125.19999999999999</ele><time>2026-04-06T06:23:41Z</time></trkpt><trkpt lat="44.528625374654936" lon="10.886824323444113"><ele>125.6</ele><time>2026-04-06T06:23:42Z</time></trkpt><trkpt lat="44.52866196477712" lon="10.886657130561872"><ele>126.0</ele><time>2026-04-06T06:23:44Z</time></trkpt><trkpt lat="44.52868595535506" lon="10.886569811210304"><ele>126.0</ele><time>2026-04-06T06:23:45Z</time></trkpt><trkpt lat="44.52870910745051" lon="10.886485182002655"><ele>126.0</ele><time>2026-04-06T06:23:46Z</time></trkpt><trkpt lat="44.52873889832468" lon="10.886405784350705"><ele>126.0</ele><time>2026-04-06T06:23:47Z</time></trkpt><trkpt lat="44.52877593123374" lon="10.886239576942016"><ele>126.0</ele><time>2026-04-06T06:23:49Z</time></trkpt><trkpt lat="44.528800493382406" lon="10.886153365149363"><ele>126.0</ele><time>2026-04-06T06:23:50Z</time></trkpt><trkpt lat="44.528838882303006" lon="10.885993876325854"><ele>126.0</ele><time>2026-04-06T06:23:52Z</time></trkpt><trkpt lat="44.52888533817711" lon="10.885844887633382"><ele>125.6</ele><time>2026-04-06T06:23:54Z</time></trkpt><trkpt lat="44.52891993809193" lon="10.885689610531474"><ele>125.19999999999999</ele><time>2026-04-06T06:23:56Z</time></trkpt><trkpt lat="44.52895984930969" lon="10.88553058527866"><ele>124.80000000000001</ele><time>2026-04-06T06:23:57.999Z</time></trkpt><trkpt lat="44.528986628386065" lon="10.885447133086451"><ele>124.4</ele><time>2026-04-06T06:23:58.999Z</time></trkpt><trkpt lat="44.52900845347984" lon="10.885290466149598"><ele>124.0</ele><time>2026-04-06T06:24:00.999Z</time></trkpt><trkpt lat="44.529048038775436" lon="10.885137374021706"><ele>124.75</ele><time>2026-04-06T06:24:02.999Z</time></trkpt><trkpt lat="44.52909003134566" lon="10.884996672540971"><ele>125.5</ele><time>2026-04-06T06:24:04.999Z</time></trkpt><trkpt lat="44.52912697869509" lon="10.884850889546861"><ele>126.25</ele><time>2026-04-06T06:24:06.999Z</time></trkpt><trkpt lat="44.529168454845276" lon="10.884697274993828"><ele>127.0</ele><time>2026-04-06T06:24:08.999Z</time></trkpt><trkpt lat="44.529208018696245" lon="10.884546399393722"><ele>127.0</ele><time>2026-04-06T06:24:10.999Z</time></trkpt><trkpt lat="44.5292365570178" lon="10.88439779957242"><ele>127.0</ele><time>2026-04-06T06:24:12.999Z</time></trkpt><trkpt lat="44.52926104385871" lon="10.884243954325305"><ele>127.0</ele><time>2026-04-06T06:24:14.999Z</time></trkpt><trkpt lat="44.529280736627506" lon="10.884081287407437"><ele>127.0</ele><time>2026-04-06T06:24:16.999Z</time></trkpt><trkpt lat="44.52929182972664" lon="10.88391943367874"><ele>127.19999999999999</ele><time>2026-04-06T06:24:18.999Z</time></trkpt><trkpt lat="44.52929836826019" lon="10.883770955365478"><ele>127.39999999999999</ele><time>2026-04-06T06:24:20.999Z</time></trkpt><trkpt lat="44.52930792371412" lon="10.88362662192814"><ele>127.60000000000001</ele><time>2026-04-06T06:24:22.999Z</time></trkpt><trkpt lat="44.529319540392805" lon="10.883472909763912"><ele>127.80000000000001</ele><time>2026-04-06T06:24:24.999Z</time></trkpt><trkpt lat="44.529332146572294" lon="10.883323049973177"><ele>128.0</ele><time>2026-04-06T06:24:26.999Z</time></trkpt><trkpt lat="44.52933824292502" lon="10.883185047199602"><ele>128.0</ele><time>2026-04-06T06:24:28.999Z</time></trkpt><trkpt lat="44.52934416868178" lon="10.88304159767896"><ele>128.0</ele><time>2026-04-06T06:24:30.999Z</time></trkpt><trkpt lat="44.529346518039404" lon="10.882884281876123"><ele>128.0</ele><time>2026-04-06T06:24:32.999Z</time></trkpt><trkpt lat="44.52935668058448" lon="10.882745936241507"><ele>128.0</ele><time>2026-04-06T06:24:34.999Z</time></trkpt><trkpt lat="44.52936168244559" lon="10.882602549751793"><ele>128.0</ele><time>2026-04-06T06:24:36.999Z</time></trkpt><trkpt lat="44.52937256424061" lon="10.882458393073092"><ele>128.0</ele><time>2026-04-06T06:24:38.999Z</time></trkpt><trkpt lat="44.52937385945345" lon="10.882315588762655"><ele>128.0</ele><time>2026-04-06T06:24:40.999Z</time></trkpt><trkpt lat="44.52937051660771" lon="10.882169036908543"><ele>128.0</ele><time>2026-04-06T06:24:42.999Z</time></trkpt><trkpt lat="44.52937813725871" lon="10.882030567363275"><ele>128.0</ele><time>2026-04-06T06:24:44.999Z</time></trkpt><trkpt lat="44.52936785269199" lon="10.88187949079169"><ele>128.0</ele><time>2026-04-06T06:24:46.999Z</time></trkpt><trkpt lat="44.52936299043446" lon="10.881744998157656"><ele>128.0</ele><time>2026-04-06T06:24:48.999Z</time></trkpt><trkpt lat="44.52935777541029" lon="10.881596853775216"><ele>128.0</ele><time>2026-04-06T06:24:50.999Z</time></trkpt><trkpt lat="44.529434005120564" lon="10.881500520416798"><ele>128.0</ele><time>2026-04-06T06:24:52.999Z</time></trkpt><trkpt lat="44.52947261689926" lon="10.88140501799369"><ele>128.0</ele><time>2026-04-06T06:24:54.999Z</time></trkpt><trkpt lat="44.52958283995876" lon="10.881532629237089"><ele>128.0</ele><time>2026-04-06T06:24:55.999Z</time></trkpt><trkpt lat="44.529675853867744" lon="10.881601677630048"><ele>127.60000000000001</ele><time>2026-04-06T06:24:57.999Z</time></trkpt><trkpt lat="44.52976307110047" lon="10.881697408876308"><ele>127.20000000000002</ele><time>2026-04-06T06:24:59.999Z</time></trkpt><trkpt lat="44.52985525135338" lon="10.881790623408087"><ele>126.8</ele><time>2026-04-06T06:25:01.999Z</time></trkpt><trkpt lat="44.529911294385975" lon="10.88183151511834"><ele>126.4</ele><time>2026-04-06T06:25:02.999Z</time></trkpt><trkpt lat="44.530001206243455" lon="10.881937030829032"><ele>126.0</ele><time>2026-04-06T06:25:04.999Z</time></trkpt><trkpt lat="44.530107323460676" lon="10.882029670084105"><ele>126.0</ele><time>2026-04-06T06:25:06.999Z</time></trkpt><trkpt lat="44.53016897791817" lon="10.882063494728076"><ele>126.0</ele><time>2026-04-06T06:25:07.999Z</time></trkpt><trkpt lat="44.53026198158836" lon="10.882151747308122"><ele>126.0</ele><time>2026-04-06T06:25:09.999Z</time></trkpt><trkpt lat="44.530366029796" lon="10.882259110328889"><ele>126.0</ele><time>2026-04-06T06:25:11.999Z</time></trkpt><trkpt lat="44.53042084931222" lon="10.882329371670103"><ele>126.0</ele><time>2026-04-06T06:25:12.999Z</time></trkpt><trkpt lat="44.530474873563655" lon="10.882380862831798"><ele>126.0</ele><time>2026-04-06T06:25:13.998Z</time></trkpt><trkpt lat="44.53053588394875" lon="10.88243901252443"><ele>125.83333333333333</ele><time>2026-04-06T06:25:14.998Z</time></trkpt><trkpt lat="44.530597965236645" lon="10.882470510324419"><ele>125.66666666666666</ele><time>2026-04-06T06:25:15.998Z</time></trkpt><trkpt lat="44.530681538771304" lon="10.882557861069538"><ele>125.5</ele><time>2026-04-06T06:25:17.998Z</time></trkpt><trkpt lat="44.530745811755025" lon="10.882618252663761"><ele>125.33333333333333</ele><time>2026-04-06T06:25:18.998Z</time></trkpt><trkpt lat="44.530783158819375" lon="10.882690493752566"><ele>125.16666666666666</ele><time>2026-04-06T06:25:19.998Z</time></trkpt><trkpt lat="44.53086697931567" lon="10.88281869025876"><ele>125.0</ele><time>2026-04-06T06:25:22Z</time></trkpt><trkpt lat="44.530954652317185" lon="10.882928127547599"><ele>124.6</ele><time>2026-04-06T06:25:24Z</time></trkpt><trkpt lat="44.53105018598273" lon="10.883046969273146"><ele>124.2</ele><time>2026-04-06T06:25:26Z</time></trkpt><trkpt lat="44.53114962524807" lon="10.883127135180938"><ele>123.80000000000001</ele><time>2026-04-06T06:25:28Z</time></trkpt><trkpt lat="44.53121037982357" lon="10.88318650485398"><ele>123.4</ele><time>2026-04-06T06:25:29Z</time></trkpt><trkpt lat="44.53128841358896" lon="10.883226557097938"><ele>123.0</ele><time>2026-04-06T06:25:30Z</time></trkpt><trkpt lat="44.53135123721331" lon="10.883249804664258"><ele>123.0</ele><time>2026-04-06T06:25:31Z</time></trkpt><trkpt lat="44.53144963725589" lon="10.88332599501449"><ele>123.0</ele><time>2026-04-06T06:25:33Z</time></trkpt><trkpt lat="44.5315129847563" lon="10.88335368921189"><ele>123.0</ele><time>2026-04-06T06:25:34Z</time></trkpt><trkpt lat="44.531572089695885" lon="10.883388810408848"><ele>123.0</ele><time>2026-04-06T06:25:35Z</time></trkpt><trkpt lat="44.53164581410386" lon="10.883440457777452"><ele>123.0</ele><time>2026-04-06T06:25:36Z</time></trkpt><trkpt lat="44.53175800312346" lon="10.883479080145815"><ele>123.0</ele><time>2026-04-06T06:25:38Z</time></trkpt><trkpt lat="44.531878735327204" lon="10.8835458531041"><ele>122.57142857142858</ele><time>2026-04-06T06:25:40Z</time></trkpt><trkpt lat="44.531941916136795" lon="10.883579282595205"><ele>122.14285714285714</ele><time>2026-04-06T06:25:41Z</time></trkpt><trkpt lat="44.532005095904644" lon="10.883599792352408"><ele>121.71428571428572</ele><time>2026-04-06T06:25:42Z</time></trkpt><trkpt lat="44.53206745569589" lon="10.883648377524327"><ele>121.28571428571429</ele><time>2026-04-06T06:25:43Z</time></trkpt><trkpt lat="44.53213025347795" lon="10.883674118052928"><ele>120.85714285714286</ele><time>2026-04-06T06:25:44Z</time></trkpt><trkpt lat="44.532217725920745" lon="10.883695359300921"><ele>120.42857142857143</ele><time>2026-04-06T06:25:46Z</time></trkpt><trkpt lat="44.53228244374537" lon="10.883716507571558"><ele>120.0</ele><time>2026-04-06T06:25:47Z</time></trkpt><trkpt lat="44.53237764531864" lon="10.88377671527752"><ele>119.8</ele><time>2026-04-06T06:25:49Z</time></trkpt><trkpt lat="44.5324894482619" lon="10.88381091328011"><ele>119.6</ele><time>2026-04-06T06:25:51Z</time></trkpt><trkpt lat="44.532573358656954" lon="10.883856345974062"><ele>119.4</ele><time>2026-04-06T06:25:53Z</time></trkpt><trkpt lat="44.53266369539443" lon="10.883913666872747"><ele>119.2</ele><time>2026-04-06T06:25:55Z</time></trkpt><trkpt lat="44.53274862941903" lon="10.883937916537025"><ele>119.0</ele><time>2026-04-06T06:25:57Z</time></trkpt><trkpt lat="44.53281236031499" lon="10.883969915975248"><ele>118.80000000000001</ele><time>2026-04-06T06:25:59Z</time></trkpt><trkpt lat="44.532901250116964" lon="10.884016165751316"><ele>118.60000000000001</ele><time>2026-04-06T06:26:01Z</time></trkpt><trkpt lat="44.53298939740255" lon="10.884052657236964"><ele>118.4</ele><time>2026-04-06T06:26:02.999Z</time></trkpt><trkpt lat="44.53308071938242" lon="10.884107754772565"><ele>118.2</ele><time>2026-04-06T06:26:04.999Z</time></trkpt><trkpt lat="44.53317440974608" lon="10.884156706122775"><ele>118.0</ele><time>2026-04-06T06:26:06.999Z</time></trkpt><trkpt lat="44.53324188647311" lon="10.884187861090869"><ele>118.0</ele><time>2026-04-06T06:26:07.999Z</time></trkpt><trkpt lat="44.53336406177404" lon="10.884242202335937"><ele>118.00000000000001</ele><time>2026-04-06T06:26:09.999Z</time></trkpt><trkpt lat="44.53349000383907" lon="10.884302211985325"><ele>118.00000000000001</ele><time>2026-04-06T06:26:11.999Z</time></trkpt><trkpt lat="44.53355269791404" lon="10.884352402761868"><ele>118.0</ele><time>2026-04-06T06:26:12.999Z</time></trkpt><trkpt lat="44.53362929836315" lon="10.884389312594433"><ele>118.0</ele><time>2026-04-06T06:26:13.999Z</time></trkpt><trkpt lat="44.53369949299827" lon="10.884423135802043"><ele>117.50000000000001</ele><time>2026-04-06T06:26:14.999Z</time></trkpt><trkpt lat="44.533773399585485" lon="10.884458747593351"><ele>117.0</ele><time>2026-04-06T06:26:15.999Z</time></trkpt><trkpt lat="44.53385337219949" lon="10.884497290718231"><ele>116.5</ele><time>2026-04-06T06:26:16.999Z</time></trkpt><trkpt lat="44.533938476079506" lon="10.884538322943344"><ele>116.0</ele><time>2026-04-06T06:26:17.999Z</time></trkpt><trkpt lat="44.534019583584715" lon="10.884577428364935"><ele>115.50000000000001</ele><time>2026-04-06T06:26:18.999Z</time></trkpt><trkpt lat="44.5341052223643" lon="10.88461871848656"><ele>115.0</ele><time>2026-04-06T06:26:19.999Z</time></trkpt><trkpt lat="44.534190736138335" lon="10.884636366287783"><ele>115.00000000000001</ele><time>2026-04-06T06:26:20.999Z</time></trkpt><trkpt lat="44.53426878828249" lon="10.88467808048443"><ele>115.0</ele><time>2026-04-06T06:26:21.999Z</time></trkpt><trkpt lat="44.53434953955675" lon="10.8847246535296"><ele>115.0</ele><time>2026-04-06T06:26:22.999Z</time></trkpt><trkpt lat="44.534437273408216" lon="10.884756992567116"><ele>115.0</ele><time>2026-04-06T06:26:23.999Z</time></trkpt><trkpt lat="44.5345246560541" lon="10.884807327648913"><ele>115.00000000000001</ele><time>2026-04-06T06:26:24.999Z</time></trkpt><trkpt lat="44.534609478011596" lon="10.884844064915903"><ele>115.0</ele><time>2026-04-06T06:26:25.999Z</time></trkpt><trkpt lat="44.53469162829749" lon="10.884883973258928"><ele>115.00000000000001</ele><time>2026-04-06T06:26:26.999Z</time></trkpt><trkpt lat="44.53477039775164" lon="10.884927883095884"><ele>115.0</ele><time>2026-04-06T06:26:27.999Z</time></trkpt><trkpt lat="44.534853167817296" lon="10.88496481592253"><ele>115.0</ele><time>2026-04-06T06:26:28.999Z</time></trkpt><trkpt lat="44.53493223672402" lon="10.885002295970327"><ele>115.0</ele><time>2026-04-06T06:26:29.999Z</time></trkpt><trkpt lat="44.53501834082167" lon="10.885044145497872"><ele>115.00000000000001</ele><time>2026-04-06T06:26:30.999Z</time></trkpt><trkpt lat="44.53508873426782" lon="10.885080792010767"><ele>115.0</ele><time>2026-04-06T06:26:31.999Z</time></trkpt><trkpt lat="44.53515404952516" lon="10.885107906256183"><ele>115.0</ele><time>2026-04-06T06:26:32.999Z</time></trkpt><trkpt lat="44.535224207873455" lon="10.885145742577386"><ele>115.0</ele><time>2026-04-06T06:26:33.999Z</time></trkpt><trkpt lat="44.53529712299584" lon="10.885177327525565"><ele>115.0</ele><time>2026-04-06T06:26:34.999Z</time></trkpt><trkpt lat="44.535379120180345" lon="10.885241897268775"><ele>115.0</ele><time>2026-04-06T06:26:35.999Z</time></trkpt><trkpt lat="44.53551711644225" lon="10.885286004659921"><ele>115.0</ele><time>2026-04-06T06:26:37.999Z</time></trkpt><trkpt lat="44.53558932451155" lon="10.88534455649949"><ele>114.99999999999999</ele><time>2026-04-06T06:26:38.999Z</time></trkpt><trkpt lat="44.535663722266776" lon="10.88535722199599"><ele>115.0</ele><time>2026-04-06T06:26:39.999Z</time></trkpt><trkpt lat="44.53572042330092" lon="10.88540899680706"><ele>114.99999999999999</ele><time>2026-04-06T06:26:40.999Z</time></trkpt><trkpt lat="44.5357899338129" lon="10.88543660862916"><ele>114.99999999999999</ele><time>2026-04-06T06:26:41.999Z</time></trkpt><trkpt lat="44.53586631941116" lon="10.885470324576946"><ele>115.0</ele><time>2026-04-06T06:26:42.999Z</time></trkpt><trkpt lat="44.53594047555572" lon="10.885506937973148"><ele>114.99999999999999</ele><time>2026-04-06T06:26:43.999Z</time></trkpt><trkpt lat="44.536004773523125" lon="10.885533381622018"><ele>114.99999999999999</ele><time>2026-04-06T06:26:44.999Z</time></trkpt><trkpt lat="44.53607535539632" lon="10.885564100707544"><ele>114.99999999999999</ele><time>2026-04-06T06:26:45.999Z</time></trkpt><trkpt lat="44.536142959454224" lon="10.885596875194997"><ele>115.0</ele><time>2026-04-06T06:26:46.999Z</time></trkpt><trkpt lat="44.536213716688266" lon="10.88563543762912"><ele>114.99999999999999</ele><time>2026-04-06T06:26:47.999Z</time></trkpt><trkpt lat="44.536280621825426" lon="10.885674045158765"><ele>114.99999999999999</ele><time>2026-04-06T06:26:48.999Z</time></trkpt><trkpt lat="44.536351128403375" lon="10.8857068213884"><ele>115.0</ele><time>2026-04-06T06:26:49.999Z</time></trkpt><trkpt lat="44.536419019286775" lon="10.885741346873475"><ele>114.99999999999999</ele><time>2026-04-06T06:26:50.999Z</time></trkpt><trkpt lat="44.536485337519686" lon="10.885778975514663"><ele>114.99999999999999</ele><time>2026-04-06T06:26:51.999Z</time></trkpt><trkpt lat="44.536556705665795" lon="10.885815433984341"><ele>114.85714285714283</ele><time>2026-04-06T06:26:52.999Z</time></trkpt><trkpt lat="44.53662269702013" lon="10.885849270537545"><ele>114.71428571428571</ele><time>2026-04-06T06:26:53.999Z</time></trkpt><trkpt lat="44.53669846486002" lon="10.885878776895472"><ele>114.57142857142856</ele><time>2026-04-06T06:26:54.999Z</time></trkpt><trkpt lat="44.536763475490524" lon="10.885905613566406"><ele>114.42857142857142</ele><time>2026-04-06T06:26:55.999Z</time></trkpt><trkpt lat="44.5368335619647" lon="10.88593600434956"><ele>114.28571428571428</ele><time>2026-04-06T06:26:56.999Z</time></trkpt><trkpt lat="44.53690266893861" lon="10.88596700097103"><ele>114.14285714285714</ele><time>2026-04-06T06:26:57.999Z</time></trkpt><trkpt lat="44.536964128087476" lon="10.886021385677408"><ele>114.0</ele><time>2026-04-06T06:26:58.999Z</time></trkpt><trkpt lat="44.53703982470827" lon="10.886035743473142"><ele>113.33333333333333</ele><time>2026-04-06T06:26:59.999Z</time></trkpt><trkpt lat="44.53710683199441" lon="10.886073619041468"><ele>112.66666666666666</ele><time>2026-04-06T06:27:00.999Z</time></trkpt><trkpt lat="44.53716289947357" lon="10.886117846620346"><ele>112.0</ele><time>2026-04-06T06:27:01.999Z</time></trkpt><trkpt lat="44.53723590832851" lon="10.886131453061676"><ele>111.33333333333333</ele><time>2026-04-06T06:27:02.999Z</time></trkpt><trkpt lat="44.537299423957656" lon="10.886163554825583"><ele>110.66666666666666</ele><time>2026-04-06T06:27:03.999Z</time></trkpt><trkpt lat="44.537362542828085" lon="10.886194213017427"><ele>110.0</ele><time>2026-04-06T06:27:04.999Z</time></trkpt><trkpt lat="44.53747816551722" lon="10.886254033951644"><ele>110.0</ele><time>2026-04-06T06:27:06.999Z</time></trkpt><trkpt lat="44.537594946312026" lon="10.886305705796769"><ele>110.0</ele><time>2026-04-06T06:27:08.999Z</time></trkpt><trkpt lat="44.5377140689257" lon="10.886348924954277"><ele>110.0</ele><time>2026-04-06T06:27:10.999Z</time></trkpt><trkpt lat="44.53777596366847" lon="10.886367346403478"><ele>110.0</ele><time>2026-04-06T06:27:11.999Z</time></trkpt><trkpt lat="44.53789709500033" lon="10.886395606439052"><ele>110.0</ele><time>2026-04-06T06:27:13.999Z</time></trkpt><trkpt lat="44.537957320417384" lon="10.886429543575309"><ele>110.25</ele><time>2026-04-06T06:27:14.999Z</time></trkpt><trkpt lat="44.538081719038274" lon="10.886449099043649"><ele>110.5</ele><time>2026-04-06T06:27:16.999Z</time></trkpt><trkpt lat="44.53819694237739" lon="10.886484084818258"><ele>110.75</ele><time>2026-04-06T06:27:18.999Z</time></trkpt><trkpt lat="44.53831108981572" lon="10.886520278169577"><ele>111.0</ele><time>2026-04-06T06:27:20.999Z</time></trkpt><trkpt lat="44.538421463162194" lon="10.886553084954395"><ele>111.0</ele><time>2026-04-06T06:27:22.999Z</time></trkpt><trkpt lat="44.538538159628324" lon="10.886592315500392"><ele>111.0</ele><time>2026-04-06T06:27:24.999Z</time></trkpt><trkpt lat="44.53864915682406" lon="10.886625812953664"><ele>111.0</ele><time>2026-04-06T06:27:26.999Z</time></trkpt><trkpt lat="44.53875490550971" lon="10.886647095319976"><ele>111.0</ele><time>2026-04-06T06:27:29Z</time></trkpt><trkpt lat="44.53886387726272" lon="10.886689369657764"><ele>111.25</ele><time>2026-04-06T06:27:31Z</time></trkpt><trkpt lat="44.5389794490289" lon="10.886722450850264"><ele>111.5</ele><time>2026-04-06T06:27:33Z</time></trkpt><trkpt lat="44.53909499408956" lon="10.886773953629822"><ele>111.75</ele><time>2026-04-06T06:27:35Z</time></trkpt><trkpt lat="44.539204073293554" lon="10.886806177879427"><ele>112.0</ele><time>2026-04-06T06:27:37Z</time></trkpt><trkpt lat="44.53932238912021" lon="10.88684120454789"><ele>111.66666666666667</ele><time>2026-04-06T06:27:39Z</time></trkpt><trkpt lat="44.53938863409932" lon="10.886838543497026"><ele>111.33333333333334</ele><time>2026-04-06T06:27:40Z</time></trkpt><trkpt lat="44.53944520944293" lon="10.88687756470832"><ele>111.0</ele><time>2026-04-06T06:27:41Z</time></trkpt><trkpt lat="44.53956787964397" lon="10.88689365098621"><ele>110.66666666666666</ele><time>2026-04-06T06:27:43Z</time></trkpt><trkpt lat="44.53962965182623" lon="10.886913944599312"><ele>110.33333333333333</ele><time>2026-04-06T06:27:44Z</time></trkpt><trkpt lat="44.53969584114411" lon="10.886928376549324"><ele>110.0</ele><time>2026-04-06T06:27:45Z</time></trkpt><trkpt lat="44.53981665453986" lon="10.886964792701473"><ele>109.8</ele><time>2026-04-06T06:27:47Z</time></trkpt><trkpt lat="44.53993452639474" lon="10.887000390584978"><ele>109.6</ele><time>2026-04-06T06:27:49Z</time></trkpt><trkpt lat="44.53999582359043" lon="10.887022125764199"><ele>109.4</ele><time>2026-04-06T06:27:50Z</time></trkpt><trkpt lat="44.540057617956876" lon="10.887046957711682"><ele>109.2</ele><time>2026-04-06T06:27:51Z</time></trkpt><trkpt lat="44.540179635977466" lon="10.887075872801022"><ele>109.0</ele><time>2026-04-06T06:27:53Z</time></trkpt><trkpt lat="44.5402931285965" lon="10.887123254733764"><ele>109.00000000000001</ele><time>2026-04-06T06:27:55Z</time></trkpt><trkpt lat="44.540357960517674" lon="10.887140120667677"><ele>109.0</ele><time>2026-04-06T06:27:56Z</time></trkpt><trkpt lat="44.540474762903884" lon="10.887165390611584"><ele>109.0</ele><time>2026-04-06T06:27:58Z</time></trkpt><trkpt lat="44.540535969853316" lon="10.887186526521397"><ele>109.0</ele><time>2026-04-06T06:27:59Z</time></trkpt><trkpt lat="44.54059878875992" lon="10.887207375723632"><ele>109.00000000000001</ele><time>2026-04-06T06:28:00Z</time></trkpt><trkpt lat="44.54071373636277" lon="10.887261792660416"><ele>109.0</ele><time>2026-04-06T06:28:02Z</time></trkpt><trkpt lat="44.54083127316927" lon="10.887287119659636"><ele>108.80000000000001</ele><time>2026-04-06T06:28:04Z</time></trkpt><trkpt lat="44.54089725241176" lon="10.887306001518205"><ele>108.60000000000001</ele><time>2026-04-06T06:28:05Z</time></trkpt><trkpt lat="44.54101353556554" lon="10.887334390458708"><ele>108.4</ele><time>2026-04-06T06:28:07Z</time></trkpt><trkpt lat="44.54113151320293" lon="10.887368894556142"><ele>108.2</ele><time>2026-04-06T06:28:09Z</time></trkpt><trkpt lat="44.541243752700524" lon="10.887398467970174"><ele>108.0</ele><time>2026-04-06T06:28:11Z</time></trkpt><trkpt lat="44.54135235035239" lon="10.887432202709164"><ele>108.0</ele><time>2026-04-06T06:28:13Z</time></trkpt><trkpt lat="44.54143510505201" lon="10.887468601568006"><ele>108.0</ele><time>2026-04-06T06:28:15Z</time></trkpt><trkpt lat="44.54150017253813" lon="10.887429891906379"><ele>108.0</ele><time>2026-04-06T06:28:16.999Z</time></trkpt><trkpt lat="44.541506177980665" lon="10.887313703851278"><ele>108.0</ele><time>2026-04-06T06:28:17.999Z</time></trkpt><trkpt lat="44.54150933317396" lon="10.887184895157384"><ele>108.0</ele><time>2026-04-06T06:28:19.999Z</time></trkpt><trkpt lat="44.54153390335087" lon="10.887078494674018"><ele>108.0</ele><time>2026-04-06T06:28:21.999Z</time></trkpt><trkpt lat="44.54153621024496" lon="10.886956077641374"><ele>108.0</ele><time>2026-04-06T06:28:23.999Z</time></trkpt><trkpt lat="44.541542716559874" lon="10.88683329545548"><ele>108.0</ele><time>2026-04-06T06:28:25.999Z</time></trkpt><trkpt lat="44.54156372432307" lon="10.886713967637037"><ele>108.0</ele><time>2026-04-06T06:28:27.999Z</time></trkpt><trkpt lat="44.54157237516634" lon="10.886592528298246"><ele>108.0</ele><time>2026-04-06T06:28:29.999Z</time></trkpt><trkpt lat="44.541584050567344" lon="10.886469923341693"><ele>108.0</ele><time>2026-04-06T06:28:31.999Z</time></trkpt><trkpt lat="44.54160186555489" lon="10.886356883954317"><ele>108.0</ele><time>2026-04-06T06:28:33.999Z</time></trkpt><trkpt lat="44.5416134536031" lon="10.886231964294847"><ele>108.0</ele><time>2026-04-06T06:28:35.999Z</time></trkpt><trkpt lat="44.54161869571852" lon="10.88611511413657"><ele>108.0</ele><time>2026-04-06T06:28:37.999Z</time></trkpt><trkpt lat="44.54163159910966" lon="10.885992354475963"><ele>108.0</ele><time>2026-04-06T06:28:39.999Z</time></trkpt><trkpt lat="44.54164726602724" lon="10.885879277567968"><ele>108.0</ele><time>2026-04-06T06:28:41.999Z</time></trkpt><trkpt lat="44.54167133715888" lon="10.885769432109637"><ele>108.0</ele><time>2026-04-06T06:28:43.999Z</time></trkpt><trkpt lat="44.54169292352052" lon="10.885644257188837"><ele>108.0</ele><time>2026-04-06T06:28:45.999Z</time></trkpt><trkpt lat="44.541738467715135" lon="10.885549028333426"><ele>108.0</ele><time>2026-04-06T06:28:47.999Z</time></trkpt><trkpt lat="44.54178919086209" lon="10.885471536507438"><ele>108.0</ele><time>2026-04-06T06:28:50.999Z</time></trkpt><trkpt lat="44.541822826719965" lon="10.885387904664528"><ele>108.0</ele><time>2026-04-06T06:28:53.999Z</time></trkpt><trkpt lat="44.54184325640268" lon="10.88529164094581"><ele>108.0</ele><time>2026-04-06T06:28:56.999Z</time></trkpt><trkpt lat="44.54180095497033" lon="10.885381916410836"><ele>108.0</ele><time>2026-04-06T06:29:06.999Z</time></trkpt><trkpt lat="44.54176421924086" lon="10.885499035828522"><ele>108.0</ele><time>2026-04-06T06:29:09.999Z</time></trkpt><trkpt lat="44.54173205308911" lon="10.885575456481288"><ele>108.0</ele><time>2026-04-06T06:29:11.999Z</time></trkpt><trkpt lat="44.541699274629146" lon="10.88566503089923"><ele>108.0</ele><time>2026-04-06T06:29:13.999Z</time></trkpt><trkpt lat="44.541678425975476" lon="10.885765482872648"><ele>108.0</ele><time>2026-04-06T06:29:15.999Z</time></trkpt><trkpt lat="44.541645913727194" lon="10.885877213544832"><ele>108.0</ele><time>2026-04-06T06:29:17.999Z</time></trkpt><trkpt lat="44.54162883698352" lon="10.886005328075546"><ele>108.0</ele><time>2026-04-06T06:29:19.999Z</time></trkpt><trkpt lat="44.541629477200814" lon="10.886136819420097"><ele>108.0</ele><time>2026-04-06T06:29:21.999Z</time></trkpt><trkpt lat="44.541616672032625" lon="10.886255373302523"><ele>108.0</ele><time>2026-04-06T06:29:23.999Z</time></trkpt><trkpt lat="44.54159524969748" lon="10.886399318919905"><ele>108.0</ele><time>2026-04-06T06:29:25.999Z</time></trkpt><trkpt lat="44.54158893472205" lon="10.88654995774153"><ele>108.0</ele><time>2026-04-06T06:29:27.999Z</time></trkpt><trkpt lat="44.54156966802491" lon="10.886709145624856"><ele>108.0</ele><time>2026-04-06T06:29:29.999Z</time></trkpt><trkpt lat="44.541555696972566" lon="10.886868288814592"><ele>108.0</ele><time>2026-04-06T06:29:31.999Z</time></trkpt><trkpt lat="44.54154400515675" lon="10.887029083075099"><ele>108.0</ele><time>2026-04-06T06:29:34Z</time></trkpt><trkpt lat="44.54153157870066" lon="10.887193308432456"><ele>108.0</ele><time>2026-04-06T06:29:36Z</time></trkpt><trkpt lat="44.541494599656765" lon="10.88735245660668"><ele>108.0</ele><time>2026-04-06T06:29:38Z</time></trkpt><trkpt lat="44.54145533018457" lon="10.88749869049215"><ele>108.0</ele><time>2026-04-06T06:29:40Z</time></trkpt><trkpt lat="44.5412513697422" lon="10.887406452476142"><ele>107.75</ele><time>2026-04-06T06:29:42Z</time></trkpt><trkpt lat="44.541139733317266" lon="10.887340823793625"><ele>107.5</ele><time>2026-04-06T06:29:44Z</time></trkpt><trkpt lat="44.541028438007324" lon="10.88730376645816"><ele>107.25</ele><time>2026-04-06T06:29:46Z</time></trkpt><trkpt lat="44.54091831390905" lon="10.887263056456286"><ele>107.0</ele><time>2026-04-06T06:29:48Z</time></trkpt><trkpt lat="44.54080230680909" lon="10.887240409720784"><ele>107.0</ele><time>2026-04-06T06:29:50Z</time></trkpt><trkpt lat="44.540686044139576" lon="10.887199149700693"><ele>107.0</ele><time>2026-04-06T06:29:52Z</time></trkpt><trkpt lat="44.540584150814524" lon="10.88716081873609"><ele>107.0</ele><time>2026-04-06T06:29:54Z</time></trkpt><trkpt lat="44.540474726868716" lon="10.887126634009386"><ele>107.0</ele><time>2026-04-06T06:29:56Z</time></trkpt><trkpt lat="44.540363158843235" lon="10.887094333818903"><ele>107.39999999999999</ele><time>2026-04-06T06:29:58Z</time></trkpt><trkpt lat="44.54025233214921" lon="10.887069350899898"><ele>107.79999999999998</ele><time>2026-04-06T06:30:00Z</time></trkpt><trkpt lat="44.54013956044943" lon="10.88704317150843"><ele>108.2</ele><time>2026-04-06T06:30:02Z</time></trkpt><trkpt lat="44.54002542414261" lon="10.887014913403293"><ele>108.6</ele><time>2026-04-06T06:30:04Z</time></trkpt><trkpt lat="44.539925567773686" lon="10.886984582097488"><ele>109.0</ele><time>2026-04-06T06:30:06Z</time></trkpt><trkpt lat="44.539822660629135" lon="10.88696454113695"><ele>109.0</ele><time>2026-04-06T06:30:08Z</time></trkpt><trkpt lat="44.539714583731715" lon="10.886921394889942"><ele>109.0</ele><time>2026-04-06T06:30:10Z</time></trkpt><trkpt lat="44.539615046078936" lon="10.886875497854543"><ele>109.0</ele><time>2026-04-06T06:30:12Z</time></trkpt><trkpt lat="44.539510702564726" lon="10.886844752651562"><ele>109.0</ele><time>2026-04-06T06:30:14Z</time></trkpt><trkpt lat="44.53941671802309" lon="10.8868169677378"><ele>109.0</ele><time>2026-04-06T06:30:16Z</time></trkpt><trkpt lat="44.539321623292594" lon="10.886787610637288"><ele>109.6</ele><time>2026-04-06T06:30:18Z</time></trkpt><trkpt lat="44.5392188849634" lon="10.886760461026649"><ele>110.2</ele><time>2026-04-06T06:30:20Z</time></trkpt><trkpt lat="44.539118240469016" lon="10.88672583844956"><ele>110.79999999999998</ele><time>2026-04-06T06:30:22Z</time></trkpt><trkpt lat="44.53902445524681" lon="10.886692866695936"><ele>111.39999999999999</ele><time>2026-04-06T06:30:24Z</time></trkpt><trkpt lat="44.53892538952546" lon="10.886665004117516"><ele>112.0</ele><time>2026-04-06T06:30:26Z</time></trkpt><trkpt lat="44.53882662871758" lon="10.886632319939062"><ele>112.0</ele><time>2026-04-06T06:30:27.999Z</time></trkpt><trkpt lat="44.538728898454785" lon="10.886597057307224"><ele>111.99999999999999</ele><time>2026-04-06T06:30:29.999Z</time></trkpt><trkpt lat="44.53863177753627" lon="10.886568939038268"><ele>111.99999999999999</ele><time>2026-04-06T06:30:31.999Z</time></trkpt><trkpt lat="44.53853469313335" lon="10.886546019431565"><ele>112.0</ele><time>2026-04-06T06:30:33.999Z</time></trkpt><trkpt lat="44.53843322161631" lon="10.886513150554979"><ele>112.0</ele><time>2026-04-06T06:30:35.999Z</time></trkpt><trkpt lat="44.53834007139222" lon="10.886482474194308"><ele>111.8</ele><time>2026-04-06T06:30:37.999Z</time></trkpt><trkpt lat="44.5382478876827" lon="10.886462407588022"><ele>111.6</ele><time>2026-04-06T06:30:39.999Z</time></trkpt><trkpt lat="44.53815618839224" lon="10.886433361162112"><ele>111.39999999999999</ele><time>2026-04-06T06:30:41.999Z</time></trkpt><trkpt lat="44.53806790319989" lon="10.886400024531515"><ele>111.19999999999999</ele><time>2026-04-06T06:30:43.999Z</time></trkpt><trkpt lat="44.537980946011515" lon="10.886371224714797"><ele>111.0</ele><time>2026-04-06T06:30:45.999Z</time></trkpt><trkpt lat="44.537893030161676" lon="10.88634603662119"><ele>110.8</ele><time>2026-04-06T06:30:47.999Z</time></trkpt><trkpt lat="44.53780225117427" lon="10.88632226748893"><ele>110.6</ele><time>2026-04-06T06:30:49.999Z</time></trkpt><trkpt lat="44.537709269789545" lon="10.886295953877886"><ele>110.4</ele><time>2026-04-06T06:30:51.999Z</time></trkpt><trkpt lat="44.537617198369674" lon="10.886275969483695"><ele>110.2</ele><time>2026-04-06T06:30:53.999Z</time></trkpt><trkpt lat="44.537533172409034" lon="10.88623059557063"><ele>110.0</ele><time>2026-04-06T06:30:55.999Z</time></trkpt><trkpt lat="44.53745116644671" lon="10.886182736569417"><ele>110.0</ele><time>2026-04-06T06:30:57.999Z</time></trkpt><trkpt lat="44.53736244942662" lon="10.886133629775427"><ele>110.0</ele><time>2026-04-06T06:30:59.999Z</time></trkpt><trkpt lat="44.5372726763471" lon="10.88609039774442"><ele>110.0</ele><time>2026-04-06T06:31:01.999Z</time></trkpt><trkpt lat="44.53718124837701" lon="10.886045922543577"><ele>110.0</ele><time>2026-04-06T06:31:03.999Z</time></trkpt><trkpt lat="44.53709309338198" lon="10.886003188099354"><ele>110.0</ele><time>2026-04-06T06:31:05.999Z</time></trkpt><trkpt lat="44.53700422719928" lon="10.885962146412071"><ele>110.8</ele><time>2026-04-06T06:31:07.999Z</time></trkpt><trkpt lat="44.5369129827051" lon="10.885917245248267"><ele>111.6</ele><time>2026-04-06T06:31:09.999Z</time></trkpt><trkpt lat="44.536824917470454" lon="10.885867457544533"><ele>112.4</ele><time>2026-04-06T06:31:11.999Z</time></trkpt><trkpt lat="44.53673258482254" lon="10.885824726666113"><ele>113.2</ele><time>2026-04-06T06:31:13.999Z</time></trkpt><trkpt lat="44.536643643478854" lon="10.885792105163494"><ele>114.0</ele><time>2026-04-06T06:31:15.999Z</time></trkpt><trkpt lat="44.53655076089724" lon="10.885745025362608"><ele>114.0</ele><time>2026-04-06T06:31:17.999Z</time></trkpt><trkpt lat="44.536461704662386" lon="10.88569629874272"><ele>114.0</ele><time>2026-04-06T06:31:19.999Z</time></trkpt><trkpt lat="44.53636888996147" lon="10.885647681956833"><ele>114.0</ele><time>2026-04-06T06:31:21.999Z</time></trkpt><trkpt lat="44.536277437816175" lon="10.88560643907588"><ele>114.0</ele><time>2026-04-06T06:31:23.999Z</time></trkpt><trkpt lat="44.536183704702864" lon="10.885573674167988"><ele>114.0</ele><time>2026-04-06T06:31:25.999Z</time></trkpt><trkpt lat="44.536095591134846" lon="10.88552572151771"><ele>114.16666666666667</ele><time>2026-04-06T06:31:27.999Z</time></trkpt><trkpt lat="44.53601027842416" lon="10.885493234169111"><ele>114.33333333333334</ele><time>2026-04-06T06:31:29.999Z</time></trkpt><trkpt lat="44.53592162204622" lon="10.885444790444762"><ele>114.5</ele><time>2026-04-06T06:31:31.999Z</time></trkpt><trkpt lat="44.53584256696357" lon="10.88540847141034"><ele>114.66666666666667</ele><time>2026-04-06T06:31:33.999Z</time></trkpt><trkpt lat="44.535762879980496" lon="10.885376900983344"><ele>114.83333333333334</ele><time>2026-04-06T06:31:35.999Z</time></trkpt><trkpt lat="44.53568499527151" lon="10.885336372421548"><ele>115.0</ele><time>2026-04-06T06:31:37.999Z</time></trkpt><trkpt lat="44.53560771973965" lon="10.885305221713779"><ele>115.00000000000001</ele><time>2026-04-06T06:31:40Z</time></trkpt><trkpt lat="44.53552641739537" lon="10.885268865302477"><ele>115.0</ele><time>2026-04-06T06:31:42Z</time></trkpt><trkpt lat="44.53545612232887" lon="10.885228151132395"><ele>115.0</ele><time>2026-04-06T06:31:44Z</time></trkpt><trkpt lat="44.53538342664727" lon="10.885197066800574"><ele>115.0</ele><time>2026-04-06T06:31:46Z</time></trkpt><trkpt lat="44.53531145086563" lon="10.885157475698897"><ele>115.00000000000001</ele><time>2026-04-06T06:31:48Z</time></trkpt><trkpt lat="44.53523573682656" lon="10.885119589749035"><ele>115.0</ele><time>2026-04-06T06:31:50Z</time></trkpt><trkpt lat="44.535166067674226" lon="10.885081762244052"><ele>115.33333333333334</ele><time>2026-04-06T06:31:52Z</time></trkpt><trkpt lat="44.535101406242575" lon="10.885051263954923"><ele>115.66666666666667</ele><time>2026-04-06T06:31:54Z</time></trkpt><trkpt lat="44.53502515359071" lon="10.885022118027738"><ele>116.0</ele><time>2026-04-06T06:31:56Z</time></trkpt><trkpt lat="44.53495664598193" lon="10.88498224920827"><ele>116.33333333333334</ele><time>2026-04-06T06:31:58Z</time></trkpt><trkpt lat="44.534891588951474" lon="10.884946980999079"><ele>116.66666666666667</ele><time>2026-04-06T06:32:00Z</time></trkpt><trkpt lat="44.534830157428395" lon="10.88491361909673"><ele>117.0</ele><time>2026-04-06T06:32:02Z</time></trkpt><trkpt lat="44.53485765690232" lon="10.884748321144084"><ele>117.0</ele><time>2026-04-06T06:32:05Z</time></trkpt><trkpt lat="44.534887196907235" lon="10.884647577922138"><ele>117.0</ele><time>2026-04-06T06:32:07Z</time></trkpt><trkpt lat="44.53491432621769" lon="10.884537821866443"><ele>117.0</ele><time>2026-04-06T06:32:09Z</time></trkpt><trkpt lat="44.53495083807902" lon="10.884429727301947"><ele>117.0</ele><time>2026-04-06T06:32:11Z</time></trkpt><trkpt lat="44.53499224723973" lon="10.884322141884153"><ele>117.0</ele><time>2026-04-06T06:32:13Z</time></trkpt><trkpt lat="44.5350228576235" lon="10.884206931850509"><ele>117.0</ele><time>2026-04-06T06:32:15Z</time></trkpt><trkpt lat="44.53506785246345" lon="10.884100541716299"><ele>117.0</ele><time>2026-04-06T06:32:17Z</time></trkpt><trkpt lat="44.535113626962435" lon="10.883986638566265"><ele>116.99999999999999</ele><time>2026-04-06T06:32:19Z</time></trkpt><trkpt lat="44.5351426784271" lon="10.883863273877385"><ele>116.99999999999999</ele><time>2026-04-06T06:32:21Z</time></trkpt><trkpt lat="44.53518811179443" lon="10.883745304460943"><ele>117.0</ele><time>2026-04-06T06:32:23Z</time></trkpt><trkpt lat="44.535232782191805" lon="10.883625325283386"><ele>117.0</ele><time>2026-04-06T06:32:25Z</time></trkpt><trkpt lat="44.53526915035142" lon="10.883488133523423"><ele>116.6</ele><time>2026-04-06T06:32:27Z</time></trkpt><trkpt lat="44.53531169291074" lon="10.883358935260635"><ele>116.19999999999999</ele><time>2026-04-06T06:32:29Z</time></trkpt><trkpt lat="44.53535835266769" lon="10.88323529539368"><ele>115.8</ele><time>2026-04-06T06:32:31Z</time></trkpt><trkpt lat="44.53538900154719" lon="10.883101332863388"><ele>115.4</ele><time>2026-04-06T06:32:33Z</time></trkpt><trkpt lat="44.53543208513247" lon="10.882991822244724"><ele>115.0</ele><time>2026-04-06T06:32:35Z</time></trkpt><trkpt lat="44.53547033721009" lon="10.882864410198838"><ele>115.0</ele><time>2026-04-06T06:32:37Z</time></trkpt><trkpt lat="44.53551875260297" lon="10.882743302520106"><ele>115.0</ele><time>2026-04-06T06:32:39Z</time></trkpt><trkpt lat="44.53556478396891" lon="10.882626170092859"><ele>115.0</ele><time>2026-04-06T06:32:40.999Z</time></trkpt><trkpt lat="44.535605857005" lon="10.88249203951183"><ele>115.0</ele><time>2026-04-06T06:32:42.999Z</time></trkpt><trkpt lat="44.53563692470552" lon="10.882365150923311"><ele>115.0</ele><time>2026-04-06T06:32:44.999Z</time></trkpt><trkpt lat="44.535668798811194" lon="10.882236842584208"><ele>115.4</ele><time>2026-04-06T06:32:46.999Z</time></trkpt><trkpt lat="44.535713997598776" lon="10.882123353669199"><ele>115.8</ele><time>2026-04-06T06:32:48.999Z</time></trkpt><trkpt lat="44.535748928227925" lon="10.881998950896977"><ele>116.19999999999999</ele><time>2026-04-06T06:32:50.999Z</time></trkpt><trkpt lat="44.535795046244814" lon="10.881865119837503"><ele>116.6</ele><time>2026-04-06T06:32:52.999Z</time></trkpt><trkpt lat="44.535833587459464" lon="10.881732500772591"><ele>117.0</ele><time>2026-04-06T06:32:54.999Z</time></trkpt><trkpt lat="44.53587439258812" lon="10.88160720990194"><ele>116.0</ele><time>2026-04-06T06:32:56.999Z</time></trkpt><trkpt lat="44.535915373782636" lon="10.881482336487059"><ele>114.99999999999999</ele><time>2026-04-06T06:32:58.999Z</time></trkpt><trkpt lat="44.535941909756424" lon="10.881351677493738"><ele>113.99999999999999</ele><time>2026-04-06T06:33:00.999Z</time></trkpt><trkpt lat="44.53597210170148" lon="10.881229044742653"><ele>113.0</ele><time>2026-04-06T06:33:02.999Z</time></trkpt><trkpt lat="44.536010211313304" lon="10.881106917639249"><ele>112.0</ele><time>2026-04-06T06:33:04.999Z</time></trkpt><trkpt lat="44.536046637522674" lon="10.88097730193972"><ele>112.8</ele><time>2026-04-06T06:33:06.999Z</time></trkpt><trkpt lat="44.536084217884365" lon="10.880857789664685"><ele>113.6</ele><time>2026-04-06T06:33:08.999Z</time></trkpt><trkpt lat="44.53611571516938" lon="10.880736172812348"><ele>114.39999999999999</ele><time>2026-04-06T06:33:10.999Z</time></trkpt><trkpt lat="44.536157237172894" lon="10.880619086994894"><ele>115.19999999999999</ele><time>2026-04-06T06:33:12.999Z</time></trkpt><trkpt lat="44.53618504881439" lon="10.880503586170342"><ele>116.0</ele><time>2026-04-06T06:33:14.999Z</time></trkpt><trkpt lat="44.53621917245059" lon="10.880391128845053"><ele>115.99999999999999</ele><time>2026-04-06T06:33:16.999Z</time></trkpt><trkpt lat="44.53624581479977" lon="10.880283262854398"><ele>116.0</ele><time>2026-04-06T06:33:18.999Z</time></trkpt><trkpt lat="44.53627347111419" lon="10.88016827571513"><ele>116.0</ele><time>2026-04-06T06:33:20.999Z</time></trkpt><trkpt lat="44.53629576694246" lon="10.880062247716369"><ele>116.0</ele><time>2026-04-06T06:33:22.999Z</time></trkpt><trkpt lat="44.53633119797015" lon="10.879950154704995"><ele>115.99999999999999</ele><time>2026-04-06T06:33:24.999Z</time></trkpt><trkpt lat="44.53636622297327" lon="10.87984639197822"><ele>116.0</ele><time>2026-04-06T06:33:26.999Z</time></trkpt><trkpt lat="44.53639341424352" lon="10.879727804730681"><ele>116.16666666666666</ele><time>2026-04-06T06:33:28.999Z</time></trkpt><trkpt lat="44.53641574461886" lon="10.879612105532768"><ele>116.33333333333333</ele><time>2026-04-06T06:33:30.999Z</time></trkpt><trkpt lat="44.53645351147374" lon="10.879494296149392"><ele>116.5</ele><time>2026-04-06T06:33:32.999Z</time></trkpt><trkpt lat="44.53649800142745" lon="10.879404031744537"><ele>116.66666666666666</ele><time>2026-04-06T06:33:34.999Z</time></trkpt><trkpt lat="44.536596738667214" lon="10.879441440714738"><ele>116.83333333333333</ele><time>2026-04-06T06:33:37.999Z</time></trkpt><trkpt lat="44.53665940070741" lon="10.879503700100804"><ele>117.0</ele><time>2026-04-06T06:33:39.999Z</time></trkpt><trkpt lat="44.536748136817415" lon="10.879552937755978"><ele>117.0</ele><time>2026-04-06T06:33:41.999Z</time></trkpt><trkpt lat="44.53683354251959" lon="10.879588362754923"><ele>117.0</ele><time>2026-04-06T06:33:43.999Z</time></trkpt><trkpt lat="44.536909013026516" lon="10.879515690405462"><ele>117.0</ele><time>2026-04-06T06:33:46Z</time></trkpt><trkpt lat="44.53696454499507" lon="10.879402587609992"><ele>117.0</ele><time>2026-04-06T06:33:48Z</time></trkpt><trkpt lat="44.53700986567042" lon="10.87930602937835"><ele>117.0</ele><time>2026-04-06T06:33:50Z</time></trkpt><trkpt lat="44.537042427397395" lon="10.879198112115816"><ele>117.0</ele><time>2026-04-06T06:33:52Z</time></trkpt><trkpt lat="44.53708947264378" lon="10.87913433218771"><ele>116.83333333333333</ele><time>2026-04-06T06:33:56Z</time></trkpt><trkpt lat="44.53720640586768" lon="10.879191508046533"><ele>116.66666666666666</ele><time>2026-04-06T06:33:57Z</time></trkpt><trkpt lat="44.53728787500377" lon="10.879217293716072"><ele>116.5</ele><time>2026-04-06T06:33:59Z</time></trkpt><trkpt lat="44.537357226468295" lon="10.879226558090284"><ele>116.33333333333333</ele><time>2026-04-06T06:34:01Z</time></trkpt><trkpt lat="44.537437054461975" lon="10.879247153116962"><ele>116.16666666666666</ele><time>2026-04-06T06:34:03Z</time></trkpt><trkpt lat="44.53752128241105" lon="10.879265947752874"><ele>116.0</ele><time>2026-04-06T06:34:05Z</time></trkpt><trkpt lat="44.53760060879736" lon="10.87928584918531"><ele>115.4</ele><time>2026-04-06T06:34:07Z</time></trkpt><trkpt lat="44.537689400833884" lon="10.879305826262208"><ele>114.8</ele><time>2026-04-06T06:34:09Z</time></trkpt><trkpt lat="44.537785260944624" lon="10.879334173074914"><ele>114.20000000000002</ele><time>2026-04-06T06:34:11Z</time></trkpt><trkpt lat="44.53787745684456" lon="10.879356149129194"><ele>113.60000000000001</ele><time>2026-04-06T06:34:13Z</time></trkpt><trkpt lat="44.53797298375279" lon="10.879373579647902"><ele>113.0</ele><time>2026-04-06T06:34:15Z</time></trkpt><trkpt lat="44.5380678657967" lon="10.87939208047484"><ele>112.60000000000001</ele><time>2026-04-06T06:34:17Z</time></trkpt><trkpt lat="44.53817007140679" lon="10.879427549674316"><ele>112.20000000000002</ele><time>2026-04-06T06:34:19Z</time></trkpt><trkpt lat="44.53826861650642" lon="10.879454860852457"><ele>111.8</ele><time>2026-04-06T06:34:21Z</time></trkpt><trkpt lat="44.53836266414565" lon="10.879467734619055"><ele>111.4</ele><time>2026-04-06T06:34:23Z</time></trkpt><trkpt lat="44.53846283362426" lon="10.879500855971743"><ele>111.0</ele><time>2026-04-06T06:34:25Z</time></trkpt><trkpt lat="44.5385719085281" lon="10.87952714867018"><ele>111.0</ele><time>2026-04-06T06:34:27Z</time></trkpt><trkpt lat="44.538673271831684" lon="10.879549066814043"><ele>111.0</ele><time>2026-04-06T06:34:29Z</time></trkpt><trkpt lat="44.53878293384621" lon="10.879574056025218"><ele>111.0</ele><time>2026-04-06T06:34:31Z</time></trkpt><trkpt lat="44.53889278531614" lon="10.879601877296205"><ele>111.0</ele><time>2026-04-06T06:34:33Z</time></trkpt><trkpt lat="44.539000877074194" lon="10.879621256462602"><ele>111.0</ele><time>2026-04-06T06:34:35Z</time></trkpt><trkpt lat="44.53911459008758" lon="10.879659312069949"><ele>110.6</ele><time>2026-04-06T06:34:37Z</time></trkpt><trkpt lat="44.53922088239956" lon="10.879676321851449"><ele>110.19999999999999</ele><time>2026-04-06T06:34:39Z</time></trkpt><trkpt lat="44.5393264881042" lon="10.879715762902515"><ele>109.80000000000001</ele><time>2026-04-06T06:34:41Z</time></trkpt><trkpt lat="44.53943586664417" lon="10.879722207373893"><ele>109.4</ele><time>2026-04-06T06:34:42.999Z</time></trkpt><trkpt lat="44.53954208559128" lon="10.879752240364057"><ele>109.0</ele><time>2026-04-06T06:34:44.999Z</time></trkpt><trkpt lat="44.53965208353005" lon="10.87978586885384"><ele>109.0</ele><time>2026-04-06T06:34:46.999Z</time></trkpt><trkpt lat="44.539766847932796" lon="10.879812703816409"><ele>109.0</ele><time>2026-04-06T06:34:48.999Z</time></trkpt><trkpt lat="44.53988421743863" lon="10.879834801958971"><ele>109.0</ele><time>2026-04-06T06:34:50.999Z</time></trkpt><trkpt lat="44.54000286613157" lon="10.879861831591933"><ele>109.0</ele><time>2026-04-06T06:34:52.999Z</time></trkpt><trkpt lat="44.54012366572697" lon="10.879890533903662"><ele>109.0</ele><time>2026-04-06T06:34:54.999Z</time></trkpt><trkpt lat="44.54024206700633" lon="10.879908628715429"><ele>109.0</ele><time>2026-04-06T06:34:56.999Z</time></trkpt><trkpt lat="44.5403609280708" lon="10.879957526353673"><ele>109.0</ele><time>2026-04-06T06:34:58.999Z</time></trkpt><trkpt lat="44.540475297827605" lon="10.879974602911423"><ele>109.0</ele><time>2026-04-06T06:35:00.999Z</time></trkpt><trkpt lat="44.54059302386501" lon="10.880006062265238"><ele>109.25</ele><time>2026-04-06T06:35:02.999Z</time></trkpt><trkpt lat="44.54071195537202" lon="10.880030501950014"><ele>109.5</ele><time>2026-04-06T06:35:04.999Z</time></trkpt><trkpt lat="44.540827624693335" lon="10.880055417138442"><ele>109.75</ele><time>2026-04-06T06:35:06.999Z</time></trkpt><trkpt lat="44.54094414753875" lon="10.88008322807134"><ele>110.0</ele><time>2026-04-06T06:35:08.999Z</time></trkpt><trkpt lat="44.54106020788427" lon="10.880104636811966"><ele>110.0</ele><time>2026-04-06T06:35:10.999Z</time></trkpt><trkpt lat="44.54117212711078" lon="10.880134425099005"><ele>110.0</ele><time>2026-04-06T06:35:12.999Z</time></trkpt><trkpt lat="44.54128872369467" lon="10.880159861660681"><ele>110.0</ele><time>2026-04-06T06:35:14.999Z</time></trkpt><trkpt lat="44.541402421284076" lon="10.880177734246777"><ele>110.0</ele><time>2026-04-06T06:35:16.999Z</time></trkpt><trkpt lat="44.541514624088805" lon="10.8802065269099"><ele>109.75</ele><time>2026-04-06T06:35:18.999Z</time></trkpt><trkpt lat="44.54163282647839" lon="10.880224845724145"><ele>109.5</ele><time>2026-04-06T06:35:20.999Z</time></trkpt><trkpt lat="44.54175126511913" lon="10.880238532132626"><ele>109.25</ele><time>2026-04-06T06:35:22.999Z</time></trkpt><trkpt lat="44.54187073752501" lon="10.880252821856722"><ele>109.0</ele><time>2026-04-06T06:35:24.999Z</time></trkpt><trkpt lat="44.541986295843905" lon="10.880272025948454"><ele>108.4</ele><time>2026-04-06T06:35:26.999Z</time></trkpt><trkpt lat="44.542052830199914" lon="10.880283723788354"><ele>107.80000000000001</ele><time>2026-04-06T06:35:27.999Z</time></trkpt><trkpt lat="44.54217151935816" lon="10.880296326085217"><ele>107.19999999999999</ele><time>2026-04-06T06:35:29.999Z</time></trkpt><trkpt lat="44.542292071795394" lon="10.880310417760581"><ele>106.6</ele><time>2026-04-06T06:35:31.999Z</time></trkpt><trkpt lat="44.542412507597184" lon="10.880325958551404"><ele>106.0</ele><time>2026-04-06T06:35:33.999Z</time></trkpt><trkpt lat="44.5425321453147" lon="10.880344932181616"><ele>106.0</ele><time>2026-04-06T06:35:35.999Z</time></trkpt><trkpt lat="44.54265053539256" lon="10.880360886404059"><ele>106.0</ele><time>2026-04-06T06:35:37.999Z</time></trkpt><trkpt lat="44.54276906108963" lon="10.880380067420203"><ele>106.0</ele><time>2026-04-06T06:35:39.999Z</time></trkpt><trkpt lat="44.54288662049145" lon="10.880410316217505"><ele>106.0</ele><time>2026-04-06T06:35:41.999Z</time></trkpt><trkpt lat="44.543004306941256" lon="10.880444872728035"><ele>105.75</ele><time>2026-04-06T06:35:43.999Z</time></trkpt><trkpt lat="44.54311861642209" lon="10.880479041824502"><ele>105.5</ele><time>2026-04-06T06:35:45.999Z</time></trkpt><trkpt lat="44.5432315150506" lon="10.880520290860066"><ele>105.25</ele><time>2026-04-06T06:35:47.999Z</time></trkpt><trkpt lat="44.54333777495708" lon="10.880568923475083"><ele>105.0</ele><time>2026-04-06T06:35:49.999Z</time></trkpt><trkpt lat="44.54345434351985" lon="10.880612775827608"><ele>105.0</ele><time>2026-04-06T06:35:52Z</time></trkpt><trkpt lat="44.54356608286111" lon="10.880657953349244"><ele>105.0</ele><time>2026-04-06T06:35:54Z</time></trkpt><trkpt lat="44.54368081961697" lon="10.880698290496678"><ele>105.0</ele><time>2026-04-06T06:35:56Z</time></trkpt><trkpt lat="44.54379038593529" lon="10.880732475409769"><ele>105.0</ele><time>2026-04-06T06:35:58Z</time></trkpt><trkpt lat="44.543902101483496" lon="10.88076905328701"><ele>105.2</ele><time>2026-04-06T06:36:00Z</time></trkpt><trkpt lat="44.54401246249798" lon="10.88080576944427"><ele>105.4</ele><time>2026-04-06T06:36:02Z</time></trkpt><trkpt lat="44.54412060748709" lon="10.880826220342056"><ele>105.6</ele><time>2026-04-06T06:36:04Z</time></trkpt><trkpt lat="44.54423425496327" lon="10.880860335988604"><ele>105.8</ele><time>2026-04-06T06:36:06Z</time></trkpt><trkpt lat="44.5443036939128" lon="10.880884869023673"><ele>106.0</ele><time>2026-04-06T06:36:07Z</time></trkpt><trkpt lat="44.544366249931144" lon="10.880906340389952"><ele>105.6</ele><time>2026-04-06T06:36:08Z</time></trkpt><trkpt lat="44.544475502952665" lon="10.88095548815803"><ele>105.19999999999999</ele><time>2026-04-06T06:36:10Z</time></trkpt><trkpt lat="44.54453527506276" lon="10.880985307140683"><ele>104.80000000000001</ele><time>2026-04-06T06:36:11Z</time></trkpt><trkpt lat="44.54459178654585" lon="10.881024763796487"><ele>104.4</ele><time>2026-04-06T06:36:12Z</time></trkpt><trkpt lat="44.544690918603905" lon="10.881120193493505"><ele>104.0</ele><time>2026-04-06T06:36:14Z</time></trkpt><trkpt lat="44.54478511228175" lon="10.881216689441702"><ele>103.5</ele><time>2026-04-06T06:36:16Z</time></trkpt><trkpt lat="44.544882209885316" lon="10.881307618881294"><ele>103.0</ele><time>2026-04-06T06:36:18Z</time></trkpt><trkpt lat="44.5449783079303" lon="10.881406854905086"><ele>102.5</ele><time>2026-04-06T06:36:20Z</time></trkpt><trkpt lat="44.5450561065494" lon="10.881498997542217"><ele>102.0</ele><time>2026-04-06T06:36:22Z</time></trkpt><trkpt lat="44.545144691795095" lon="10.881597249757482"><ele>102.0</ele><time>2026-04-06T06:36:24Z</time></trkpt><trkpt lat="44.54523197391698" lon="10.881682528738589"><ele>102.0</ele><time>2026-04-06T06:36:26Z</time></trkpt><trkpt lat="44.54532957323597" lon="10.881773308399225"><ele>102.0</ele><time>2026-04-06T06:36:28Z</time></trkpt><trkpt lat="44.545379595965976" lon="10.881901582424776"><ele>102.0</ele><time>2026-04-06T06:36:30Z</time></trkpt><trkpt lat="44.545380250459836" lon="10.88207588544883"><ele>101.8</ele><time>2026-04-06T06:36:32Z</time></trkpt><trkpt lat="44.54534840696813" lon="10.882155608395989"><ele>101.6</ele><time>2026-04-06T06:36:33Z</time></trkpt><trkpt lat="44.545297147260214" lon="10.882293510668251"><ele>101.39999999999999</ele><time>2026-04-06T06:36:35Z</time></trkpt><trkpt lat="44.545250782007" lon="10.882430181299172"><ele>101.19999999999999</ele><time>2026-04-06T06:36:37Z</time></trkpt><trkpt lat="44.54520384912975" lon="10.882583331258386"><ele>101.0</ele><time>2026-04-06T06:36:39Z</time></trkpt><trkpt lat="44.545165127135895" lon="10.882728166168928"><ele>101.0</ele><time>2026-04-06T06:36:41Z</time></trkpt><trkpt lat="44.54512214453156" lon="10.882866899514624"><ele>101.0</ele><time>2026-04-06T06:36:43Z</time></trkpt><trkpt lat="44.54508069513349" lon="10.883013246655223"><ele>101.0</ele><time>2026-04-06T06:36:45Z</time></trkpt><trkpt lat="44.54504053167712" lon="10.88314874170297"><ele>101.0</ele><time>2026-04-06T06:36:47Z</time></trkpt><trkpt lat="44.54500143048325" lon="10.883289165060361"><ele>101.0</ele><time>2026-04-06T06:36:49Z</time></trkpt><trkpt lat="44.54496003217882" lon="10.883429962880193"><ele>101.4</ele><time>2026-04-06T06:36:51Z</time></trkpt><trkpt lat="44.54491966873132" lon="10.883584497339486"><ele>101.8</ele><time>2026-04-06T06:36:52.999Z</time></trkpt><trkpt lat="44.54490575056373" lon="10.883722455702676"><ele>102.2</ele><time>2026-04-06T06:36:54.999Z</time></trkpt><trkpt lat="44.544918961511094" lon="10.883872920184592"><ele>102.60000000000001</ele><time>2026-04-06T06:36:56.999Z</time></trkpt><trkpt lat="44.54496216615798" lon="10.884011735561138"><ele>103.0</ele><time>2026-04-06T06:36:58.999Z</time></trkpt><trkpt lat="44.545014270796514" lon="10.884159564534954"><ele>102.80000000000001</ele><time>2026-04-06T06:37:00.999Z</time></trkpt><trkpt lat="44.54505223625747" lon="10.88431344742332"><ele>102.6</ele><time>2026-04-06T06:37:02.999Z</time></trkpt><trkpt lat="44.545108951901724" lon="10.884467689967718"><ele>102.4</ele><time>2026-04-06T06:37:04.999Z</time></trkpt><trkpt lat="44.54514298058234" lon="10.884546860137009"><ele>102.19999999999999</ele><time>2026-04-06T06:37:05.999Z</time></trkpt><trkpt lat="44.545203388714945" lon="10.884671827805091"><ele>102.0</ele><time>2026-04-06T06:37:07.999Z</time></trkpt><trkpt lat="44.545295758435515" lon="10.884767310120491"><ele>102.0</ele><time>2026-04-06T06:37:09.999Z</time></trkpt><trkpt lat="44.545356679670654" lon="10.884795569966807"><ele>102.0</ele><time>2026-04-06T06:37:10.999Z</time></trkpt><trkpt lat="44.54545491399487" lon="10.884855924375662"><ele>102.0</ele><time>2026-04-06T06:37:12.999Z</time></trkpt><trkpt lat="44.545554227715364" lon="10.884921847523648"><ele>102.0</ele><time>2026-04-06T06:37:14.999Z</time></trkpt><trkpt lat="44.5456137652921" lon="10.884955578093507"><ele>102.0</ele><time>2026-04-06T06:37:15.999Z</time></trkpt><trkpt lat="44.54572028681437" lon="10.885024492783074"><ele>101.75</ele><time>2026-04-06T06:37:17.999Z</time></trkpt><trkpt lat="44.545829988327185" lon="10.885090298967604"><ele>101.5</ele><time>2026-04-06T06:37:19.999Z</time></trkpt><trkpt lat="44.54593288704765" lon="10.885146263203746"><ele>101.25</ele><time>2026-04-06T06:37:21.999Z</time></trkpt><trkpt lat="44.546044594382124" lon="10.885204118541896"><ele>101.0</ele><time>2026-04-06T06:37:23.999Z</time></trkpt><trkpt lat="44.54615298444697" lon="10.885269361141978"><ele>100.66666666666666</ele><time>2026-04-06T06:37:25.999Z</time></trkpt><trkpt lat="44.54626555940255" lon="10.885337189796678"><ele>100.33333333333333</ele><time>2026-04-06T06:37:27.999Z</time></trkpt><trkpt lat="44.5463238266309" lon="10.885372428407353"><ele>100.0</ele><time>2026-04-06T06:37:28.999Z</time></trkpt><trkpt lat="44.54638400128792" lon="10.88540651274111"><ele>99.66666666666666</ele><time>2026-04-06T06:37:29.999Z</time></trkpt><trkpt lat="44.546444291892676" lon="10.885443267287016"><ele>99.33333333333333</ele><time>2026-04-06T06:37:30.999Z</time></trkpt><trkpt lat="44.54650296251538" lon="10.885480186939976"><ele>99.0</ele><time>2026-04-06T06:37:31.999Z</time></trkpt><trkpt lat="44.546566345179066" lon="10.885517575955372"><ele>99.0</ele><time>2026-04-06T06:37:32.999Z</time></trkpt><trkpt lat="44.54662967178252" lon="10.885560225545785"><ele>99.0</ele><time>2026-04-06T06:37:33.999Z</time></trkpt><trkpt lat="44.54669099825428" lon="10.885594099401272"><ele>99.0</ele><time>2026-04-06T06:37:34.999Z</time></trkpt><trkpt lat="44.546750657383974" lon="10.885632962766227"><ele>99.0</ele><time>2026-04-06T06:37:35.999Z</time></trkpt><trkpt lat="44.546815182552784" lon="10.885668467642114"><ele>99.0</ele><time>2026-04-06T06:37:36.999Z</time></trkpt><trkpt lat="44.546877836318885" lon="10.88570902408799"><ele>99.0</ele><time>2026-04-06T06:37:37.999Z</time></trkpt><trkpt lat="44.546943514271454" lon="10.885743956203024"><ele>99.0</ele><time>2026-04-06T06:37:38.999Z</time></trkpt><trkpt lat="44.54700873812071" lon="10.885790793494648"><ele>98.85714285714286</ele><time>2026-04-06T06:37:39.999Z</time></trkpt><trkpt lat="44.54707711317189" lon="10.885830982847475"><ele>98.71428571428571</ele><time>2026-04-06T06:37:40.999Z</time></trkpt><trkpt lat="44.54714425064558" lon="10.885866605326962"><ele>98.57142857142857</ele><time>2026-04-06T06:37:41.999Z</time></trkpt><trkpt lat="44.54720814005346" lon="10.885903188737496"><ele>98.42857142857143</ele><time>2026-04-06T06:37:42.999Z</time></trkpt><trkpt lat="44.54727538959547" lon="10.885946626156931"><ele>98.28571428571428</ele><time>2026-04-06T06:37:43.999Z</time></trkpt><trkpt lat="44.547341314954366" lon="10.885987186532672"><ele>98.14285714285714</ele><time>2026-04-06T06:37:44.999Z</time></trkpt><trkpt lat="44.54741556959536" lon="10.886032206284078"><ele>98.0</ele><time>2026-04-06T06:37:45.999Z</time></trkpt><trkpt lat="44.54748234088415" lon="10.88607530419892"><ele>98.0</ele><time>2026-04-06T06:37:46.999Z</time></trkpt><trkpt lat="44.54754021853383" lon="10.88611447957436"><ele>98.0</ele><time>2026-04-06T06:37:47.999Z</time></trkpt><trkpt lat="44.54760415907358" lon="10.886142662902657"><ele>98.0</ele><time>2026-04-06T06:37:48.999Z</time></trkpt><trkpt lat="44.54766969983203" lon="10.886184439078251"><ele>98.0</ele><time>2026-04-06T06:37:49.999Z</time></trkpt><trkpt lat="44.54773527786683" lon="10.886223566737462"><ele>98.0</ele><time>2026-04-06T06:37:50.999Z</time></trkpt><trkpt lat="44.547801155731214" lon="10.886268856529124"><ele>98.0</ele><time>2026-04-06T06:37:51.999Z</time></trkpt><trkpt lat="44.54787162800431" lon="10.886309085717423"><ele>98.0</ele><time>2026-04-06T06:37:52.999Z</time></trkpt><trkpt lat="44.54794255294913" lon="10.886346292359956"><ele>97.85714285714286</ele><time>2026-04-06T06:37:53.999Z</time></trkpt><trkpt lat="44.54800926302199" lon="10.88639024562497"><ele>97.71428571428572</ele><time>2026-04-06T06:37:54.999Z</time></trkpt><trkpt lat="44.54806901438563" lon="10.886426057792349"><ele>97.57142857142857</ele><time>2026-04-06T06:37:55.999Z</time></trkpt><trkpt lat="44.54814118747008" lon="10.886468535789897"><ele>97.42857142857143</ele><time>2026-04-06T06:37:56.999Z</time></trkpt><trkpt lat="44.548207815011914" lon="10.886510997160414"><ele>97.28571428571429</ele><time>2026-04-06T06:37:58Z</time></trkpt><trkpt lat="44.54827599451556" lon="10.886556560160107"><ele>97.14285714285714</ele><time>2026-04-06T06:37:59Z</time></trkpt><trkpt lat="44.5483472764918" lon="10.88660026344192"><ele>97.0</ele><time>2026-04-06T06:38:00Z</time></trkpt><trkpt lat="44.54841384393927" lon="10.886641048332962"><ele>97.0</ele><time>2026-04-06T06:38:01Z</time></trkpt><trkpt lat="44.54848060164164" lon="10.886682483531873"><ele>97.0</ele><time>2026-04-06T06:38:02Z</time></trkpt><trkpt lat="44.54854856486292" lon="10.886719121067788"><ele>97.0</ele><time>2026-04-06T06:38:03Z</time></trkpt><trkpt lat="44.54861692619894" lon="10.88675595511883"><ele>97.0</ele><time>2026-04-06T06:38:04Z</time></trkpt><trkpt lat="44.54868643335798" lon="10.88679422087007"><ele>97.0</ele><time>2026-04-06T06:38:05Z</time></trkpt><trkpt lat="44.54875116245534" lon="10.886834350086675"><ele>97.0</ele><time>2026-04-06T06:38:06Z</time></trkpt><trkpt lat="44.548814441655686" lon="10.886879079945656"><ele>97.0</ele><time>2026-04-06T06:38:07Z</time></trkpt><trkpt lat="44.54888090702169" lon="10.88691991175326"><ele>97.0</ele><time>2026-04-06T06:38:08Z</time></trkpt><trkpt lat="44.54894797210638" lon="10.886959697747617"><ele>97.0</ele><time>2026-04-06T06:38:09Z</time></trkpt><trkpt lat="44.54901153371986" lon="10.88699768389975"><ele>97.0</ele><time>2026-04-06T06:38:10Z</time></trkpt><trkpt lat="44.54907811467557" lon="10.887037457071159"><ele>97.0</ele><time>2026-04-06T06:38:11Z</time></trkpt><trkpt lat="44.549146785009725" lon="10.887076336479236"><ele>97.0</ele><time>2026-04-06T06:38:12Z</time></trkpt><trkpt lat="44.54921310166511" lon="10.88711359362532"><ele>97.0</ele><time>2026-04-06T06:38:13Z</time></trkpt><trkpt lat="44.54927766837245" lon="10.887151007047365"><ele>97.0</ele><time>2026-04-06T06:38:14Z</time></trkpt><trkpt lat="44.549343958929285" lon="10.88718847535629"><ele>97.0</ele><time>2026-04-06T06:38:15Z</time></trkpt><trkpt lat="44.54940927204125" lon="10.887226875320541"><ele>97.0</ele><time>2026-04-06T06:38:16Z</time></trkpt><trkpt lat="44.549477972712324" lon="10.887264686111967"><ele>97.0</ele><time>2026-04-06T06:38:17Z</time></trkpt><trkpt lat="44.54954255824117" lon="10.887310426113164"><ele>97.0</ele><time>2026-04-06T06:38:18Z</time></trkpt><trkpt lat="44.549604959908365" lon="10.88735094837349"><ele>97.0</ele><time>2026-04-06T06:38:19Z</time></trkpt><trkpt lat="44.54966886805294" lon="10.887387120567034"><ele>97.0</ele><time>2026-04-06T06:38:20Z</time></trkpt><trkpt lat="44.549733527482466" lon="10.887424600033965"><ele>97.0</ele><time>2026-04-06T06:38:21Z</time></trkpt><trkpt lat="44.549796923061834" lon="10.88746019894824"><ele>96.85714285714285</ele><time>2026-04-06T06:38:22Z</time></trkpt><trkpt lat="44.54985815153474" lon="10.887496523232134"><ele>96.71428571428572</ele><time>2026-04-06T06:38:23Z</time></trkpt><trkpt lat="44.549921248078554" lon="10.887537420561749"><ele>96.57142857142857</ele><time>2026-04-06T06:38:24Z</time></trkpt><trkpt lat="44.54998141288017" lon="10.887577532632903"><ele>96.42857142857142</ele><time>2026-04-06T06:38:25Z</time></trkpt><trkpt lat="44.55004471128268" lon="10.887613734666518"><ele>96.28571428571428</ele><time>2026-04-06T06:38:26Z</time></trkpt><trkpt lat="44.55010832446358" lon="10.887649831507366"><ele>96.14285714285714</ele><time>2026-04-06T06:38:27Z</time></trkpt><trkpt lat="44.550170044653214" lon="10.887692355907173"><ele>96.0</ele><time>2026-04-06T06:38:28Z</time></trkpt><trkpt lat="44.55023301831135" lon="10.887729434682235"><ele>95.99999999999999</ele><time>2026-04-06T06:38:29Z</time></trkpt><trkpt lat="44.550296007624276" lon="10.887762932985144"><ele>96.0</ele><time>2026-04-06T06:38:30Z</time></trkpt><trkpt lat="44.55035887274892" lon="10.887799324234315"><ele>96.0</ele><time>2026-04-06T06:38:31Z</time></trkpt><trkpt lat="44.55042162609486" lon="10.887835435026094"><ele>96.0</ele><time>2026-04-06T06:38:32Z</time></trkpt><trkpt lat="44.55048258470218" lon="10.887873403306614"><ele>96.0</ele><time>2026-04-06T06:38:33Z</time></trkpt><trkpt lat="44.55054688127887" lon="10.88790829790531"><ele>95.99999999999999</ele><time>2026-04-06T06:38:34Z</time></trkpt><trkpt lat="44.55061220950456" lon="10.887944951782478"><ele>96.0</ele><time>2026-04-06T06:38:35Z</time></trkpt><trkpt lat="44.550674676193594" lon="10.887983383186786"><ele>95.85714285714285</ele><time>2026-04-06T06:38:36Z</time></trkpt><trkpt lat="44.55073856130216" lon="10.888024639698807"><ele>95.71428571428571</ele><time>2026-04-06T06:38:37Z</time></trkpt><trkpt lat="44.550805980120636" lon="10.888060076601333"><ele>95.57142857142857</ele><time>2026-04-06T06:38:38Z</time></trkpt><trkpt lat="44.55087156910178" lon="10.88809650780842"><ele>95.42857142857142</ele><time>2026-04-06T06:38:39Z</time></trkpt><trkpt lat="44.55093674145992" lon="10.888134039315077"><ele>95.28571428571429</ele><time>2026-04-06T06:38:40Z</time></trkpt><trkpt lat="44.55100201624" lon="10.888171246123393"><ele>95.14285714285714</ele><time>2026-04-06T06:38:41Z</time></trkpt><trkpt lat="44.55106583029438" lon="10.888208539209897"><ele>95.0</ele><time>2026-04-06T06:38:42Z</time></trkpt><trkpt lat="44.551128465386164" lon="10.88825349257281"><ele>95.0</ele><time>2026-04-06T06:38:43Z</time></trkpt><trkpt lat="44.551190724038804" lon="10.888294614013406"><ele>95.0</ele><time>2026-04-06T06:38:44Z</time></trkpt><trkpt lat="44.551253821682614" lon="10.888329751947195"><ele>95.0</ele><time>2026-04-06T06:38:45Z</time></trkpt><trkpt lat="44.55131850224782" lon="10.888367511466061"><ele>95.0</ele><time>2026-04-06T06:38:46Z</time></trkpt><trkpt lat="44.55138269837113" lon="10.888404883409347"><ele>95.0</ele><time>2026-04-06T06:38:47Z</time></trkpt><trkpt lat="44.551446813270154" lon="10.88844436552536"><ele>95.0</ele><time>2026-04-06T06:38:48Z</time></trkpt><trkpt lat="44.5515133861784" lon="10.88848590287489"><ele>95.0</ele><time>2026-04-06T06:38:49Z</time></trkpt><trkpt lat="44.55157929579241" lon="10.888521770286841"><ele>94.42857142857143</ele><time>2026-04-06T06:38:50Z</time></trkpt><trkpt lat="44.551646572182534" lon="10.88856000588969"><ele>93.85714285714286</ele><time>2026-04-06T06:38:51Z</time></trkpt><trkpt lat="44.55171453198318" lon="10.888597777629299"><ele>93.28571428571428</ele><time>2026-04-06T06:38:52Z</time></trkpt><trkpt lat="44.551781697419095" lon="10.888638769571042"><ele>92.71428571428572</ele><time>2026-04-06T06:38:53Z</time></trkpt><trkpt lat="44.55185140916686" lon="10.888682416081071"><ele>92.14285714285714</ele><time>2026-04-06T06:38:54Z</time></trkpt><trkpt lat="44.55191924960342" lon="10.88872151810431"><ele>91.57142857142857</ele><time>2026-04-06T06:38:55Z</time></trkpt><trkpt lat="44.55198786459143" lon="10.888763193681719"><ele>91.0</ele><time>2026-04-06T06:38:56Z</time></trkpt><trkpt lat="44.552054275489006" lon="10.888806179658106"><ele>90.8</ele><time>2026-04-06T06:38:57Z</time></trkpt><trkpt lat="44.55211926011665" lon="10.888847533629207"><ele>90.6</ele><time>2026-04-06T06:38:58Z</time></trkpt><trkpt lat="44.55217477648793" lon="10.888914372422645"><ele>90.4</ele><time>2026-04-06T06:38:59Z</time></trkpt><trkpt lat="44.552278403491286" lon="10.888982014753747"><ele>90.2</ele><time>2026-04-06T06:39:01Z</time></trkpt><trkpt lat="44.5522721894882" lon="10.889161146316372"><ele>90.0</ele><time>2026-04-06T06:39:01.999Z</time></trkpt><trkpt lat="44.552295869460586" lon="10.889245874087853"><ele>90.0</ele><time>2026-04-06T06:39:02.999Z</time></trkpt><trkpt lat="44.55232912813479" lon="10.889327575208956"><ele>90.0</ele><time>2026-04-06T06:39:03.999Z</time></trkpt><trkpt lat="44.55238498090014" lon="10.889385080877824"><ele>90.0</ele><time>2026-04-06T06:39:04.999Z</time></trkpt><trkpt lat="44.55245795331036" lon="10.889408191002888"><ele>90.0</ele><time>2026-04-06T06:39:05.999Z</time></trkpt><trkpt lat="44.55253211753455" lon="10.889394233731888"><ele>90.0</ele><time>2026-04-06T06:39:06.999Z</time></trkpt><trkpt lat="44.552599173944245" lon="10.889350722036264"><ele>90.0</ele><time>2026-04-06T06:39:07.999Z</time></trkpt><trkpt lat="44.55265362654016" lon="10.889282877924938"><ele>90.0</ele><time>2026-04-06T06:39:08.999Z</time></trkpt><trkpt lat="44.55269882157581" lon="10.889201825368865"><ele>90.0</ele><time>2026-04-06T06:39:09.999Z</time></trkpt><trkpt lat="44.552718886081685" lon="10.889102631721105"><ele>90.0</ele><time>2026-04-06T06:39:10.999Z</time></trkpt><trkpt lat="44.55271476084031" lon="10.889001652136646"><ele>90.0</ele><time>2026-04-06T06:39:11.999Z</time></trkpt><trkpt lat="44.55269648040646" lon="10.8889033818641"><ele>90.0</ele><time>2026-04-06T06:39:12.999Z</time></trkpt><trkpt lat="44.5526660526757" lon="10.888819983417042"><ele>90.0</ele><time>2026-04-06T06:39:13.999Z</time></trkpt><trkpt lat="44.55262583633211" lon="10.888735663208038"><ele>90.0</ele><time>2026-04-06T06:39:14.999Z</time></trkpt><trkpt lat="44.55259550676192" lon="10.88865388312031"><ele>90.0</ele><time>2026-04-06T06:39:15.999Z</time></trkpt><trkpt lat="44.55257951512565" lon="10.888558476129674"><ele>90.0</ele><time>2026-04-06T06:39:16.999Z</time></trkpt><trkpt lat="44.55256429877206" lon="10.888472642906036"><ele>90.0</ele><time>2026-04-06T06:39:17.999Z</time></trkpt><trkpt lat="44.552606198051826" lon="10.888370821215828"><ele>90.0</ele><time>2026-04-06T06:39:18.999Z</time></trkpt><trkpt lat="44.55262804216823" lon="10.888279848622716"><ele>90.0</ele><time>2026-04-06T06:39:19.999Z</time></trkpt><trkpt lat="44.55264065748877" lon="10.88818712992448"><ele>90.0</ele><time>2026-04-06T06:39:20.999Z</time></trkpt><trkpt lat="44.55265558108988" lon="10.88809689036817"><ele>90.0</ele><time>2026-04-06T06:39:21.999Z</time></trkpt><trkpt lat="44.552669404137454" lon="10.888003562484787"><ele>90.0</ele><time>2026-04-06T06:39:22.999Z</time></trkpt><trkpt lat="44.552685136996445" lon="10.887912129400963"><ele>90.14285714285714</ele><time>2026-04-06T06:39:23.999Z</time></trkpt><trkpt lat="44.55270458187702" lon="10.887819784068135"><ele>90.28571428571429</ele><time>2026-04-06T06:39:24.999Z</time></trkpt><trkpt lat="44.5527162776158" lon="10.887726326363323"><ele>90.42857142857143</ele><time>2026-04-06T06:39:25.999Z</time></trkpt><trkpt lat="44.55272945824509" lon="10.887633244887969"><ele>90.57142857142857</ele><time>2026-04-06T06:39:26.999Z</time></trkpt><trkpt lat="44.55274220151397" lon="10.887532338032685"><ele>90.71428571428572</ele><time>2026-04-06T06:39:27.999Z</time></trkpt><trkpt lat="44.552760618135814" lon="10.8874371901243"><ele>90.85714285714286</ele><time>2026-04-06T06:39:28.999Z</time></trkpt><trkpt lat="44.55277636537166" lon="10.887346757201042"><ele>91.0</ele><time>2026-04-06T06:39:29.999Z</time></trkpt><trkpt lat="44.55279154368413" lon="10.887256701069687"><ele>91.0</ele><time>2026-04-06T06:39:30.999Z</time></trkpt><trkpt lat="44.55280955853431" lon="10.88716409429946"><ele>91.0</ele><time>2026-04-06T06:39:31.999Z</time></trkpt><trkpt lat="44.552824529626186" lon="10.887075272063665"><ele>91.0</ele><time>2026-04-06T06:39:32.999Z</time></trkpt><trkpt lat="44.55283909666471" lon="10.886981323115009"><ele>91.0</ele><time>2026-04-06T06:39:33.999Z</time></trkpt><trkpt lat="44.55285112897434" lon="10.886891948516475"><ele>91.0</ele><time>2026-04-06T06:39:34.999Z</time></trkpt><trkpt lat="44.55289241562384" lon="10.88670879092585"><ele>91.0</ele><time>2026-04-06T06:39:36.999Z</time></trkpt><trkpt lat="44.55292606639128" lon="10.886548415596417"><ele>91.19999999999999</ele><time>2026-04-06T06:39:38.999Z</time></trkpt><trkpt lat="44.55294122477455" lon="10.886459743709816"><ele>91.39999999999999</ele><time>2026-04-06T06:39:39.999Z</time></trkpt><trkpt lat="44.55298392984499" lon="10.886298956230922"><ele>91.6</ele><time>2026-04-06T06:39:41.999Z</time></trkpt><trkpt lat="44.553011815350764" lon="10.886146938039573"><ele>91.8</ele><time>2026-04-06T06:39:43.999Z</time></trkpt><trkpt lat="44.553050767667514" lon="10.886011231730082"><ele>92.0</ele><time>2026-04-06T06:39:45.999Z</time></trkpt><trkpt lat="44.55307999508831" lon="10.885873143181184"><ele>92.33333333333334</ele><time>2026-04-06T06:39:47.999Z</time></trkpt><trkpt lat="44.55311813446263" lon="10.885761597391099"><ele>92.66666666666667</ele><time>2026-04-06T06:39:49.999Z</time></trkpt><trkpt lat="44.55314872835326" lon="10.885670538489443"><ele>93.0</ele><time>2026-04-06T06:39:51.999Z</time></trkpt><trkpt lat="44.55317057195905" lon="10.88556809903258"><ele>93.33333333333333</ele><time>2026-04-06T06:40:02.999Z</time></trkpt><trkpt lat="44.55319387778992" lon="10.885475394143876"><ele>93.66666666666666</ele><time>2026-04-06T06:40:06Z</time></trkpt><trkpt lat="44.55322837706806" lon="10.885369332241346"><ele>94.0</ele><time>2026-04-06T06:40:09Z</time></trkpt><trkpt lat="44.553263753986094" lon="10.885252528227527"><ele>94.0</ele><time>2026-04-06T06:40:12Z</time></trkpt><trkpt lat="44.55329448196206" lon="10.88516589676814"><ele>94.0</ele><time>2026-04-06T06:40:14Z</time></trkpt><trkpt lat="44.553327484921596" lon="10.885067788790991"><ele>94.0</ele><time>2026-04-06T06:40:16Z</time></trkpt><trkpt lat="44.55335734337999" lon="10.884960831572677"><ele>94.0</ele><time>2026-04-06T06:40:18Z</time></trkpt><trkpt lat="44.55338875956314" lon="10.884851364745598"><ele>94.0</ele><time>2026-04-06T06:40:20Z</time></trkpt><trkpt lat="44.553421035437914" lon="10.884737236211503"><ele>94.0</ele><time>2026-04-06T06:40:22Z</time></trkpt><trkpt lat="44.55345029280355" lon="10.884621880037177"><ele>94.2</ele><time>2026-04-06T06:40:24Z</time></trkpt><trkpt lat="44.55349200207168" lon="10.884510435890775"><ele>94.4</ele><time>2026-04-06T06:40:26Z</time></trkpt><trkpt lat="44.55353255905048" lon="10.884398794402705"><ele>94.6</ele><time>2026-04-06T06:40:28Z</time></trkpt><trkpt lat="44.55358439318461" lon="10.88428766684647"><ele>94.8</ele><time>2026-04-06T06:40:30Z</time></trkpt><trkpt lat="44.5536394955045" lon="10.884179717780071"><ele>95.0</ele><time>2026-04-06T06:40:32Z</time></trkpt><trkpt lat="44.55370146462255" lon="10.88407043534817"><ele>94.75</ele><time>2026-04-06T06:40:34Z</time></trkpt><trkpt lat="44.553772710605344" lon="10.88394526590242"><ele>94.5</ele><time>2026-04-06T06:40:36Z</time></trkpt><trkpt lat="44.55384852732712" lon="10.883823246868284"><ele>94.25</ele><time>2026-04-06T06:40:38Z</time></trkpt><trkpt lat="44.55393171797943" lon="10.883696009317303"><ele>94.0</ele><time>2026-04-06T06:40:40Z</time></trkpt><trkpt lat="44.554016187981865" lon="10.883563217275109"><ele>94.0</ele><time>2026-04-06T06:40:42Z</time></trkpt><trkpt lat="44.554103455328665" lon="10.883439983755597"><ele>94.0</ele><time>2026-04-06T06:40:44Z</time></trkpt><trkpt lat="44.55414956346512" lon="10.883375924882378"><ele>94.0</ele><time>2026-04-06T06:40:45Z</time></trkpt><trkpt lat="44.554196893814215" lon="10.883311895684097"><ele>94.0</ele><time>2026-04-06T06:40:46Z</time></trkpt><trkpt lat="44.55428806176129" lon="10.883196954505621"><ele>94.0</ele><time>2026-04-06T06:40:48Z</time></trkpt><trkpt lat="44.55433287638899" lon="10.883133375394705"><ele>94.0</ele><time>2026-04-06T06:40:49Z</time></trkpt><trkpt lat="44.55442439287806" lon="10.883014735762707"><ele>94.0</ele><time>2026-04-06T06:40:51Z</time></trkpt><trkpt lat="44.55447142267978" lon="10.882952693270552"><ele>94.0</ele><time>2026-04-06T06:40:52Z</time></trkpt><trkpt lat="44.55451578953388" lon="10.882887610863682"><ele>94.0</ele><time>2026-04-06T06:40:53Z</time></trkpt><trkpt lat="44.554560290902245" lon="10.882823905294513"><ele>94.0</ele><time>2026-04-06T06:40:54Z</time></trkpt><trkpt lat="44.55460902214644" lon="10.882763117946778"><ele>94.0</ele><time>2026-04-06T06:40:55Z</time></trkpt><trkpt lat="44.554703732126825" lon="10.88265096611695"><ele>94.0</ele><time>2026-04-06T06:40:57Z</time></trkpt><trkpt lat="44.55475305494783" lon="10.882589818570617"><ele>94.0</ele><time>2026-04-06T06:40:58Z</time></trkpt><trkpt lat="44.55484437759817" lon="10.88246700343216"><ele>94.0</ele><time>2026-04-06T06:41:00Z</time></trkpt><trkpt lat="44.5549009110556" lon="10.882423100806276"><ele>94.0</ele><time>2026-04-06T06:41:01Z</time></trkpt><trkpt lat="44.554951954959286" lon="10.882360448810582"><ele>94.0</ele><time>2026-04-06T06:41:02Z</time></trkpt><trkpt lat="44.55500366453803" lon="10.882301177475076"><ele>94.0</ele><time>2026-04-06T06:41:03Z</time></trkpt><trkpt lat="44.55505877933587" lon="10.882246612364728"><ele>94.0</ele><time>2026-04-06T06:41:04Z</time></trkpt><trkpt lat="44.555109438832446" lon="10.882184918907676"><ele>94.0</ele><time>2026-04-06T06:41:05Z</time></trkpt><trkpt lat="44.55516072775491" lon="10.88212442207277"><ele>94.0</ele><time>2026-04-06T06:41:06Z</time></trkpt><trkpt lat="44.55525611607189" lon="10.882003139445581"><ele>94.0</ele><time>2026-04-06T06:41:08Z</time></trkpt><trkpt lat="44.555310866547046" lon="10.88194307285091"><ele>94.0</ele><time>2026-04-06T06:41:09Z</time></trkpt><trkpt lat="44.55536552158049" lon="10.881884900622362"><ele>94.0</ele><time>2026-04-06T06:41:10Z</time></trkpt><trkpt lat="44.55541996185637" lon="10.881828936687509"><ele>94.0</ele><time>2026-04-06T06:41:11Z</time></trkpt><trkpt lat="44.55547833128775" lon="10.881772142560534"><ele>94.0</ele><time>2026-04-06T06:41:12Z</time></trkpt><trkpt lat="44.555531487969674" lon="10.881713021485798"><ele>94.0</ele><time>2026-04-06T06:41:12.999Z</time></trkpt><trkpt lat="44.55558430726248" lon="10.881649881208737"><ele>94.0</ele><time>2026-04-06T06:41:13.999Z</time></trkpt><trkpt lat="44.55563771430144" lon="10.881591210646329"><ele>93.57142857142857</ele><time>2026-04-06T06:41:14.999Z</time></trkpt><trkpt lat="44.5556905921505" lon="10.881534017647683"><ele>93.14285714285714</ele><time>2026-04-06T06:41:15.999Z</time></trkpt><trkpt lat="44.555746033762844" lon="10.881474513151113"><ele>92.71428571428572</ele><time>2026-04-06T06:41:16.999Z</time></trkpt><trkpt lat="44.55579860996912" lon="10.88141783887801"><ele>92.28571428571428</ele><time>2026-04-06T06:41:17.999Z</time></trkpt><trkpt lat="44.55585141002465" lon="10.881364011064715"><ele>91.85714285714286</ele><time>2026-04-06T06:41:18.999Z</time></trkpt><trkpt lat="44.555907006341954" lon="10.881310648592274"><ele>91.42857142857143</ele><time>2026-04-06T06:41:19.999Z</time></trkpt><trkpt lat="44.555964605407745" lon="10.881255561934545"><ele>91.0</ele><time>2026-04-06T06:41:20.999Z</time></trkpt><trkpt lat="44.55601721820783" lon="10.881204888870455"><ele>91.0</ele><time>2026-04-06T06:41:21.999Z</time></trkpt><trkpt lat="44.55607702091404" lon="10.881160268539185"><ele>91.0</ele><time>2026-04-06T06:41:22.999Z</time></trkpt><trkpt lat="44.55613671153548" lon="10.881110111548852"><ele>91.0</ele><time>2026-04-06T06:41:23.999Z</time></trkpt><trkpt lat="44.556201087746246" lon="10.881079084920156"><ele>91.0</ele><time>2026-04-06T06:41:24.999Z</time></trkpt><trkpt lat="44.55626645678388" lon="10.88105570478487"><ele>91.0</ele><time>2026-04-06T06:41:25.999Z</time></trkpt><trkpt lat="44.55633176353412" lon="10.881043286681841"><ele>91.0</ele><time>2026-04-06T06:41:26.999Z</time></trkpt><trkpt lat="44.556398524874524" lon="10.881038150232826"><ele>91.0</ele><time>2026-04-06T06:41:27.999Z</time></trkpt><trkpt lat="44.55646499037531" lon="10.881033653334091"><ele>90.71428571428571</ele><time>2026-04-06T06:41:28.999Z</time></trkpt><trkpt lat="44.55653198333407" lon="10.8810329785339"><ele>90.42857142857143</ele><time>2026-04-06T06:41:29.999Z</time></trkpt><trkpt lat="44.5565961214361" lon="10.88103670890661"><ele>90.14285714285714</ele><time>2026-04-06T06:41:30.999Z</time></trkpt><trkpt lat="44.55666104542919" lon="10.88103978147139"><ele>89.85714285714286</ele><time>2026-04-06T06:41:31.999Z</time></trkpt><trkpt lat="44.55672491179358" lon="10.881039015260978"><ele>89.57142857142857</ele><time>2026-04-06T06:41:32.999Z</time></trkpt><trkpt lat="44.55679094028369" lon="10.881032549799867"><ele>89.28571428571428</ele><time>2026-04-06T06:41:33.999Z</time></trkpt><trkpt lat="44.556855759308995" lon="10.881034016280157"><ele>89.0</ele><time>2026-04-06T06:41:34.999Z</time></trkpt><trkpt lat="44.55692051482961" lon="10.88103689339322"><ele>88.99999999999999</ele><time>2026-04-06T06:41:35.999Z</time></trkpt><trkpt lat="44.55698383386571" lon="10.881036816439433"><ele>89.0</ele><time>2026-04-06T06:41:36.999Z</time></trkpt><trkpt lat="44.55705101142484" lon="10.881036144605757"><ele>89.0</ele><time>2026-04-06T06:41:37.999Z</time></trkpt><trkpt lat="44.55711375034922" lon="10.881045497415565"><ele>89.0</ele><time>2026-04-06T06:41:38.999Z</time></trkpt><trkpt lat="44.55717844510114" lon="10.88104445732664"><ele>89.0</ele><time>2026-04-06T06:41:39.999Z</time></trkpt><trkpt lat="44.55724792976588" lon="10.881044339017485"><ele>88.99999999999999</ele><time>2026-04-06T06:41:40.999Z</time></trkpt><trkpt lat="44.55732444514147" lon="10.881040794874956"><ele>89.0</ele><time>2026-04-06T06:41:41.999Z</time></trkpt><trkpt lat="44.557389062633" lon="10.881044420937199"><ele>89.16666666666667</ele><time>2026-04-06T06:41:42.999Z</time></trkpt><trkpt lat="44.557462803763286" lon="10.881039053011222"><ele>89.33333333333334</ele><time>2026-04-06T06:41:43.999Z</time></trkpt><trkpt lat="44.55752584256669" lon="10.881038937785322"><ele>89.5</ele><time>2026-04-06T06:41:44.999Z</time></trkpt><trkpt lat="44.55759625627773" lon="10.881036355726533"><ele>89.66666666666667</ele><time>2026-04-06T06:41:45.999Z</time></trkpt><trkpt lat="44.55765993467486" lon="10.881042128795308"><ele>89.83333333333333</ele><time>2026-04-06T06:41:46.999Z</time></trkpt><trkpt lat="44.55778961700994" lon="10.881044922900598"><ele>90.0</ele><time>2026-04-06T06:41:48.999Z</time></trkpt><trkpt lat="44.55786302845105" lon="10.881042645574164"><ele>89.71428571428571</ele><time>2026-04-06T06:41:49.999Z</time></trkpt><trkpt lat="44.55793125827463" lon="10.881041737512534"><ele>89.42857142857143</ele><time>2026-04-06T06:41:50.999Z</time></trkpt><trkpt lat="44.558003961813654" lon="10.881039824944375"><ele>89.14285714285714</ele><time>2026-04-06T06:41:51.999Z</time></trkpt><trkpt lat="44.55807724385819" lon="10.881039220837428"><ele>88.85714285714286</ele><time>2026-04-06T06:41:52.999Z</time></trkpt><trkpt lat="44.5581474339075" lon="10.881037188186449"><ele>88.57142857142857</ele><time>2026-04-06T06:41:53.999Z</time></trkpt><trkpt lat="44.55821927062456" lon="10.881038440562449"><ele>88.28571428571429</ele><time>2026-04-06T06:41:54.999Z</time></trkpt><trkpt lat="44.55829358934135" lon="10.881039423448751"><ele>88.0</ele><time>2026-04-06T06:41:55.999Z</time></trkpt><trkpt lat="44.558358607530884" lon="10.881036579161318"><ele>88.0</ele><time>2026-04-06T06:41:56.999Z</time></trkpt><trkpt lat="44.558429859979924" lon="10.881037218513907"><ele>88.0</ele><time>2026-04-06T06:41:57.999Z</time></trkpt><trkpt lat="44.55850447337421" lon="10.881040391618313"><ele>88.0</ele><time>2026-04-06T06:41:58.999Z</time></trkpt><trkpt lat="44.558577733305604" lon="10.881041598518834"><ele>88.0</ele><time>2026-04-06T06:41:59.999Z</time></trkpt><trkpt lat="44.55865049994993" lon="10.881039016354979"><ele>88.0</ele><time>2026-04-06T06:42:00.999Z</time></trkpt><trkpt lat="44.5587210740873" lon="10.881045640615172"><ele>88.0</ele><time>2026-04-06T06:42:01.999Z</time></trkpt><trkpt lat="44.558789199960266" lon="10.881055641183998"><ele>88.0</ele><time>2026-04-06T06:42:02.999Z</time></trkpt><trkpt lat="44.55886152295297" lon="10.881054347493672"><ele>87.85714285714286</ele><time>2026-04-06T06:42:03.999Z</time></trkpt><trkpt lat="44.55893245943273" lon="10.88103556097548"><ele>87.71428571428571</ele><time>2026-04-06T06:42:04.999Z</time></trkpt><trkpt lat="44.5589932912936" lon="10.880994029174758"><ele>87.57142857142857</ele><time>2026-04-06T06:42:05.999Z</time></trkpt><trkpt lat="44.559039257042876" lon="10.880923227345047"><ele>87.42857142857143</ele><time>2026-04-06T06:42:06.999Z</time></trkpt><trkpt lat="44.559076939231325" lon="10.880832629248653"><ele>87.28571428571429</ele><time>2026-04-06T06:42:07.999Z</time></trkpt><trkpt lat="44.55909363644742" lon="10.8807338879154"><ele>87.14285714285714</ele><time>2026-04-06T06:42:08.999Z</time></trkpt><trkpt lat="44.55911158448166" lon="10.88063882949012"><ele>87.0</ele><time>2026-04-06T06:42:10Z</time></trkpt><trkpt lat="44.55913385135546" lon="10.880549151534268"><ele>87.0</ele><time>2026-04-06T06:42:11Z</time></trkpt><trkpt lat="44.55915469622233" lon="10.880458708489506"><ele>87.0</ele><time>2026-04-06T06:42:12Z</time></trkpt><trkpt lat="44.55917105465578" lon="10.880370989171292"><ele>87.0</ele><time>2026-04-06T06:42:13Z</time></trkpt><trkpt lat="44.55919132206005" lon="10.880287153481799"><ele>87.0</ele><time>2026-04-06T06:42:14Z</time></trkpt><trkpt lat="44.55922940588398" lon="10.880122523898553"><ele>87.0</ele><time>2026-04-06T06:42:16Z</time></trkpt><trkpt lat="44.559265777885514" lon="10.87997389176542"><ele>87.0</ele><time>2026-04-06T06:42:18Z</time></trkpt><trkpt lat="44.55929946187693" lon="10.879825146762322"><ele>86.8</ele><time>2026-04-06T06:42:20Z</time></trkpt><trkpt lat="44.55932920075812" lon="10.879680823548425"><ele>86.6</ele><time>2026-04-06T06:42:22Z</time></trkpt><trkpt lat="44.559358267767216" lon="10.879531529664243"><ele>86.39999999999999</ele><time>2026-04-06T06:42:24Z</time></trkpt><trkpt lat="44.5593977354694" lon="10.879394602611129"><ele>86.19999999999999</ele><time>2026-04-06T06:42:26Z</time></trkpt><trkpt lat="44.55942975394498" lon="10.87924910948342"><ele>86.0</ele><time>2026-04-06T06:42:28Z</time></trkpt><trkpt lat="44.55946461574715" lon="10.879108111257013"><ele>85.8</ele><time>2026-04-06T06:42:30Z</time></trkpt><trkpt lat="44.55949747449072" lon="10.87896632844051"><ele>85.6</ele><time>2026-04-06T06:42:32Z</time></trkpt><trkpt lat="44.559527167107" lon="10.878821323418318"><ele>85.4</ele><time>2026-04-06T06:42:34Z</time></trkpt><trkpt lat="44.55955746870426" lon="10.878681096543033"><ele>85.2</ele><time>2026-04-06T06:42:36Z</time></trkpt><trkpt lat="44.559599021541054" lon="10.878543107452504"><ele>85.0</ele><time>2026-04-06T06:42:38Z</time></trkpt><trkpt lat="44.55963407001125" lon="10.878396894050182"><ele>85.0</ele><time>2026-04-06T06:42:40Z</time></trkpt><trkpt lat="44.55967037308092" lon="10.878243969984789"><ele>85.0</ele><time>2026-04-06T06:42:42Z</time></trkpt><trkpt lat="44.559698715628684" lon="10.878098860626926"><ele>85.0</ele><time>2026-04-06T06:42:44Z</time></trkpt><trkpt lat="44.55973180150191" lon="10.877940720871374"><ele>85.0</ele><time>2026-04-06T06:42:46Z</time></trkpt><trkpt lat="44.559765464845064" lon="10.877791604259825"><ele>85.0</ele><time>2026-04-06T06:42:48Z</time></trkpt><trkpt lat="44.55979691727606" lon="10.877637857295824"><ele>85.0</ele><time>2026-04-06T06:42:50Z</time></trkpt><trkpt lat="44.55982883365871" lon="10.877484151440875"><ele>85.0</ele><time>2026-04-06T06:42:52Z</time></trkpt><trkpt lat="44.55986198391871" lon="10.877335342373703"><ele>85.0</ele><time>2026-04-06T06:42:54Z</time></trkpt><trkpt lat="44.559897513798816" lon="10.877186140341376"><ele>85.0</ele><time>2026-04-06T06:42:56Z</time></trkpt><trkpt lat="44.55993481954154" lon="10.87703501596759"><ele>85.0</ele><time>2026-04-06T06:42:58Z</time></trkpt><trkpt lat="44.559968191690075" lon="10.876888463749884"><ele>85.0</ele><time>2026-04-06T06:43:00Z</time></trkpt><trkpt lat="44.56000579550708" lon="10.876737315350109"><ele>85.0</ele><time>2026-04-06T06:43:02Z</time></trkpt><trkpt lat="44.560037987532695" lon="10.87658048369448"><ele>85.0</ele><time>2026-04-06T06:43:04Z</time></trkpt><trkpt lat="44.56007456164643" lon="10.876428726765498"><ele>85.0</ele><time>2026-04-06T06:43:06Z</time></trkpt><trkpt lat="44.56010850000209" lon="10.876277781283756"><ele>85.0</ele><time>2026-04-06T06:43:08Z</time></trkpt><trkpt lat="44.560143880846425" lon="10.876124885978596"><ele>85.0</ele><time>2026-04-06T06:43:10Z</time></trkpt><trkpt lat="44.560177672918286" lon="10.875969556669313"><ele>85.4</ele><time>2026-04-06T06:43:12Z</time></trkpt><trkpt lat="44.560210692447136" lon="10.875812551474427"><ele>85.8</ele><time>2026-04-06T06:43:14Z</time></trkpt><trkpt lat="44.560243528387524" lon="10.875662764249052"><ele>86.19999999999999</ele><time>2026-04-06T06:43:16Z</time></trkpt><trkpt lat="44.560274145291395" lon="10.87551261885414"><ele>86.6</ele><time>2026-04-06T06:43:17.999Z</time></trkpt><trkpt lat="44.560312431258055" lon="10.87537280238436"><ele>87.0</ele><time>2026-04-06T06:43:19.999Z</time></trkpt><trkpt lat="44.56034376646533" lon="10.875227781381158"><ele>87.0</ele><time>2026-04-06T06:43:21.999Z</time></trkpt><trkpt lat="44.560377670343655" lon="10.875087995301067"><ele>87.0</ele><time>2026-04-06T06:43:23.999Z</time></trkpt><trkpt lat="44.56040608161326" lon="10.874950181314869"><ele>87.0</ele><time>2026-04-06T06:43:25.999Z</time></trkpt><trkpt lat="44.56043708103066" lon="10.874812634603959"><ele>87.0</ele><time>2026-04-06T06:43:27.999Z</time></trkpt><trkpt lat="44.56046980590269" lon="10.87467241659754"><ele>87.0</ele><time>2026-04-06T06:43:29.999Z</time></trkpt><trkpt lat="44.56049713900193" lon="10.87453138593588"><ele>87.0</ele><time>2026-04-06T06:43:31.999Z</time></trkpt><trkpt lat="44.560533123122" lon="10.87438762321383"><ele>87.0</ele><time>2026-04-06T06:43:33.999Z</time></trkpt><trkpt lat="44.5605643855691" lon="10.87424248008597"><ele>87.0</ele><time>2026-04-06T06:43:35.999Z</time></trkpt><trkpt lat="44.56059841544856" lon="10.874102712388938"><ele>87.0</ele><time>2026-04-06T06:43:37.999Z</time></trkpt><trkpt lat="44.56063036911573" lon="10.873960323264575"><ele>87.0</ele><time>2026-04-06T06:43:39.999Z</time></trkpt><trkpt lat="44.56066339994391" lon="10.873819022375201"><ele>87.0</ele><time>2026-04-06T06:43:41.999Z</time></trkpt><trkpt lat="44.560684873841254" lon="10.873668055983075"><ele>87.0</ele><time>2026-04-06T06:43:43.999Z</time></trkpt><trkpt lat="44.56072565369991" lon="10.873531429914877"><ele>87.0</ele><time>2026-04-06T06:43:45.999Z</time></trkpt><trkpt lat="44.56076200766334" lon="10.873394965316276"><ele>87.0</ele><time>2026-04-06T06:43:47.999Z</time></trkpt><trkpt lat="44.56080396578077" lon="10.873262072999898"><ele>87.0</ele><time>2026-04-06T06:43:49.999Z</time></trkpt><trkpt lat="44.56084094101545" lon="10.873122727196183"><ele>87.19999999999999</ele><time>2026-04-06T06:43:51.999Z</time></trkpt><trkpt lat="44.56087316444386" lon="10.872980375448346"><ele>87.4</ele><time>2026-04-06T06:43:53.999Z</time></trkpt><trkpt lat="44.560924204576104" lon="10.87285208644253"><ele>87.6</ele><time>2026-04-06T06:43:55.999Z</time></trkpt><trkpt lat="44.56096781268362" lon="10.872703706857319"><ele>87.80000000000001</ele><time>2026-04-06T06:43:57.999Z</time></trkpt><trkpt lat="44.561005898271574" lon="10.872560821064154"><ele>88.0</ele><time>2026-04-06T06:43:59.999Z</time></trkpt><trkpt lat="44.561049865371" lon="10.872415222274986"><ele>88.0</ele><time>2026-04-06T06:44:01.999Z</time></trkpt><trkpt lat="44.56109346843782" lon="10.872272169225822"><ele>88.0</ele><time>2026-04-06T06:44:03.999Z</time></trkpt><trkpt lat="44.56113612377115" lon="10.872124507753856"><ele>88.0</ele><time>2026-04-06T06:44:05.999Z</time></trkpt><trkpt lat="44.56118691858395" lon="10.871978793522548"><ele>88.0</ele><time>2026-04-06T06:44:07.999Z</time></trkpt><trkpt lat="44.56123555148309" lon="10.871824016792205"><ele>87.60000000000001</ele><time>2026-04-06T06:44:09.999Z</time></trkpt><trkpt lat="44.5612823657848" lon="10.871663636369512"><ele>87.2</ele><time>2026-04-06T06:44:11.999Z</time></trkpt><trkpt lat="44.56133176630095" lon="10.871502107365757"><ele>86.8</ele><time>2026-04-06T06:44:13.999Z</time></trkpt><trkpt lat="44.561387700275304" lon="10.871342203861836"><ele>86.4</ele><time>2026-04-06T06:44:16Z</time></trkpt><trkpt lat="44.561413578507235" lon="10.8712614298447"><ele>86.0</ele><time>2026-04-06T06:44:17Z</time></trkpt><trkpt lat="44.561439098338475" lon="10.871179547204402"><ele>86.00000000000001</ele><time>2026-04-06T06:44:18Z</time></trkpt><trkpt lat="44.561466042634386" lon="10.871096421133254"><ele>86.0</ele><time>2026-04-06T06:44:19Z</time></trkpt><trkpt lat="44.561491446756335" lon="10.871007766002945"><ele>86.0</ele><time>2026-04-06T06:44:20Z</time></trkpt><trkpt lat="44.56151875865334" lon="10.870924631758953"><ele>86.0</ele><time>2026-04-06T06:44:21Z</time></trkpt><trkpt lat="44.56154375104021" lon="10.870841463544483"><ele>86.0</ele><time>2026-04-06T06:44:22Z</time></trkpt><trkpt lat="44.561569639240616" lon="10.870758418117715"><ele>86.00000000000001</ele><time>2026-04-06T06:44:23Z</time></trkpt><trkpt lat="44.56159328898269" lon="10.870676392571575"><ele>86.0</ele><time>2026-04-06T06:44:24Z</time></trkpt><trkpt lat="44.56161816648453" lon="10.870592480313501"><ele>86.19999999999999</ele><time>2026-04-06T06:44:25Z</time></trkpt><trkpt lat="44.56164525076655" lon="10.870511256728031"><ele>86.39999999999999</ele><time>2026-04-06T06:44:26Z</time></trkpt><trkpt lat="44.561697532681286" lon="10.870351614556254"><ele>86.6</ele><time>2026-04-06T06:44:28Z</time></trkpt><trkpt lat="44.56175189567261" lon="10.870188703393355"><ele>86.8</ele><time>2026-04-06T06:44:30Z</time></trkpt><trkpt lat="44.56178162041059" lon="10.870107498278697"><ele>87.0</ele><time>2026-04-06T06:44:31Z</time></trkpt><trkpt lat="44.56183182619733" lon="10.869941701672934"><ele>87.0</ele><time>2026-04-06T06:44:33Z</time></trkpt><trkpt lat="44.5618828569572" lon="10.869777574289223"><ele>87.0</ele><time>2026-04-06T06:44:35Z</time></trkpt><trkpt lat="44.5619054269778" lon="10.869693546286962"><ele>87.0</ele><time>2026-04-06T06:44:36Z</time></trkpt><trkpt lat="44.56195436393395" lon="10.869533757154528"><ele>87.0</ele><time>2026-04-06T06:44:38Z</time></trkpt><trkpt lat="44.561979382891764" lon="10.869452406727897"><ele>87.0</ele><time>2026-04-06T06:44:39Z</time></trkpt><trkpt lat="44.562025289154974" lon="10.869292140934578"><ele>86.5</ele><time>2026-04-06T06:44:41Z</time></trkpt><trkpt lat="44.562066415613074" lon="10.869126364777916"><ele>86.0</ele><time>2026-04-06T06:44:43Z</time></trkpt><trkpt lat="44.56211753868879" lon="10.868960898181873"><ele>85.5</ele><time>2026-04-06T06:44:45Z</time></trkpt><trkpt lat="44.56217005162399" lon="10.868804442845503"><ele>85.0</ele><time>2026-04-06T06:44:47Z</time></trkpt><trkpt lat="44.56222476373856" lon="10.86865063729629"><ele>85.0</ele><time>2026-04-06T06:44:49Z</time></trkpt><trkpt lat="44.562283711316496" lon="10.868495708478665"><ele>85.0</ele><time>2026-04-06T06:44:51Z</time></trkpt><trkpt lat="44.562346711931745" lon="10.868345869777176"><ele>85.0</ele><time>2026-04-06T06:44:53Z</time></trkpt><trkpt lat="44.562394438068" lon="10.868194424260139"><ele>85.0</ele><time>2026-04-06T06:44:55Z</time></trkpt><trkpt lat="44.562449732939896" lon="10.868054829535204"><ele>85.0</ele><time>2026-04-06T06:44:57Z</time></trkpt><trkpt lat="44.56249747772036" lon="10.867908494351973"><ele>85.0</ele><time>2026-04-06T06:44:59Z</time></trkpt><trkpt lat="44.56254579009578" lon="10.867840669351628"><ele>85.0</ele><time>2026-04-06T06:45:00Z</time></trkpt><trkpt lat="44.56259937479141" lon="10.867703463553239"><ele>85.0</ele><time>2026-04-06T06:45:02Z</time></trkpt><trkpt lat="44.562657667016516" lon="10.867566192165913"><ele>85.0</ele><time>2026-04-06T06:45:04Z</time></trkpt><trkpt lat="44.56271221055155" lon="10.867423460009219"><ele>85.0</ele><time>2026-04-06T06:45:06Z</time></trkpt><trkpt lat="44.56277156581206" lon="10.867282649237673"><ele>85.0</ele><time>2026-04-06T06:45:08Z</time></trkpt><trkpt lat="44.56282949320306" lon="10.86715444189656"><ele>85.0</ele><time>2026-04-06T06:45:10Z</time></trkpt><trkpt lat="44.56288904668257" lon="10.867021992618998"><ele>85.0</ele><time>2026-04-06T06:45:12Z</time></trkpt><trkpt lat="44.56295768842825" lon="10.866895101451927"><ele>85.0</ele><time>2026-04-06T06:45:14Z</time></trkpt><trkpt lat="44.563021497206655" lon="10.866778245424953"><ele>85.0</ele><time>2026-04-06T06:45:16Z</time></trkpt><trkpt lat="44.56308848926182" lon="10.86666262692014"><ele>85.0</ele><time>2026-04-06T06:45:18Z</time></trkpt><trkpt lat="44.56314985320717" lon="10.866546774175879"><ele>85.0</ele><time>2026-04-06T06:45:20Z</time></trkpt><trkpt lat="44.563214739834095" lon="10.866434414720521"><ele>85.0</ele><time>2026-04-06T06:45:22Z</time></trkpt><trkpt lat="44.5632837698058" lon="10.866324710301642"><ele>85.2</ele><time>2026-04-06T06:45:23.999Z</time></trkpt><trkpt lat="44.56335267486723" lon="10.86621077481007"><ele>85.4</ele><time>2026-04-06T06:45:25.999Z</time></trkpt><trkpt lat="44.56341698859445" lon="10.866091395615484"><ele>85.6</ele><time>2026-04-06T06:45:27.999Z</time></trkpt><trkpt lat="44.56347780013468" lon="10.865966465995466"><ele>85.8</ele><time>2026-04-06T06:45:29.999Z</time></trkpt><trkpt lat="44.563538119801656" lon="10.865844862139431"><ele>86.0</ele><time>2026-04-06T06:45:31.999Z</time></trkpt><trkpt lat="44.56361400397407" lon="10.865745959740782"><ele>86.0</ele><time>2026-04-06T06:45:33.999Z</time></trkpt><trkpt lat="44.56367307385225" lon="10.865622893970556"><ele>86.0</ele><time>2026-04-06T06:45:35.999Z</time></trkpt><trkpt lat="44.563768742208325" lon="10.865546223295189"><ele>86.0</ele><time>2026-04-06T06:45:37.999Z</time></trkpt><trkpt lat="44.5638357761025" lon="10.865581940020167"><ele>86.0</ele><time>2026-04-06T06:45:38.999Z</time></trkpt><trkpt lat="44.56385766911842" lon="10.865677169799904"><ele>86.0</ele><time>2026-04-06T06:45:39.999Z</time></trkpt><trkpt lat="44.56392976024656" lon="10.865805825294778"><ele>86.25</ele><time>2026-04-06T06:45:41.999Z</time></trkpt><trkpt lat="44.56401601813303" lon="10.865924256987002"><ele>86.5</ele><time>2026-04-06T06:45:43.999Z</time></trkpt><trkpt lat="44.56410522041499" lon="10.866037625858898"><ele>86.75</ele><time>2026-04-06T06:45:45.999Z</time></trkpt><trkpt lat="44.56420224378801" lon="10.866153894496536"><ele>87.0</ele><time>2026-04-06T06:45:47.999Z</time></trkpt><trkpt lat="44.564294294459124" lon="10.866263467694031"><ele>87.0</ele><time>2026-04-06T06:45:49.999Z</time></trkpt><trkpt lat="44.564402723209625" lon="10.866368270161653"><ele>87.0</ele><time>2026-04-06T06:45:51.999Z</time></trkpt><trkpt lat="44.56449926811941" lon="10.866475718473437"><ele>87.0</ele><time>2026-04-06T06:45:53.999Z</time></trkpt><trkpt lat="44.56460466879748" lon="10.866565389710747"><ele>87.0</ele><time>2026-04-06T06:45:55.999Z</time></trkpt><trkpt lat="44.56466583778925" lon="10.866609324813886"><ele>87.0</ele><time>2026-04-06T06:45:56.999Z</time></trkpt><trkpt lat="44.5647758342201" lon="10.866702394152368"><ele>86.85714285714286</ele><time>2026-04-06T06:45:58.999Z</time></trkpt><trkpt lat="44.56483514720488" lon="10.866743653135133"><ele>86.71428571428572</ele><time>2026-04-06T06:45:59.999Z</time></trkpt><trkpt lat="44.564889032769614" lon="10.866790213172557"><ele>86.57142857142858</ele><time>2026-04-06T06:46:00.999Z</time></trkpt><trkpt lat="44.564944928711164" lon="10.866834150725648"><ele>86.42857142857143</ele><time>2026-04-06T06:46:01.999Z</time></trkpt><trkpt lat="44.56500171400127" lon="10.866876777548791"><ele>86.28571428571429</ele><time>2026-04-06T06:46:02.999Z</time></trkpt><trkpt lat="44.565058237355736" lon="10.866920082902322"><ele>86.14285714285715</ele><time>2026-04-06T06:46:03.999Z</time></trkpt><trkpt lat="44.56511688275427" lon="10.866960689083864"><ele>86.0</ele><time>2026-04-06T06:46:04.999Z</time></trkpt><trkpt lat="44.56517559569142" lon="10.867001591022182"><ele>85.66666666666667</ele><time>2026-04-06T06:46:05.999Z</time></trkpt><trkpt lat="44.5652351579589" lon="10.867043058615366"><ele>85.33333333333334</ele><time>2026-04-06T06:46:06.999Z</time></trkpt><trkpt lat="44.56529223727274" lon="10.867088374409192"><ele>85.0</ele><time>2026-04-06T06:46:07.999Z</time></trkpt><trkpt lat="44.56534911992515" lon="10.867131971175708"><ele>84.66666666666667</ele><time>2026-04-06T06:46:08.999Z</time></trkpt><trkpt lat="44.56541066007471" lon="10.867171952574386"><ele>84.33333333333333</ele><time>2026-04-06T06:46:09.999Z</time></trkpt><trkpt lat="44.56552157077308" lon="10.867256229096434"><ele>84.0</ele><time>2026-04-06T06:46:11.999Z</time></trkpt><trkpt lat="44.565583003598576" lon="10.867300613425398"><ele>84.0</ele><time>2026-04-06T06:46:12.999Z</time></trkpt><trkpt lat="44.56569142968227" lon="10.867376481286794"><ele>84.0</ele><time>2026-04-06T06:46:14.999Z</time></trkpt><trkpt lat="44.565756146236794" lon="10.867404763150674"><ele>84.0</ele><time>2026-04-06T06:46:15.999Z</time></trkpt><trkpt lat="44.565821142193485" lon="10.867427375408539"><ele>84.0</ele><time>2026-04-06T06:46:16.999Z</time></trkpt><trkpt lat="44.565883582155635" lon="10.86744492945438"><ele>84.0</ele><time>2026-04-06T06:46:17.999Z</time></trkpt><trkpt lat="44.56594882928469" lon="10.867461823086938"><ele>84.0</ele><time>2026-04-06T06:46:18.999Z</time></trkpt><trkpt lat="44.56607315102284" lon="10.867503570790467"><ele>84.0</ele><time>2026-04-06T06:46:20.999Z</time></trkpt><trkpt lat="44.56613953109483" lon="10.867516736545483"><ele>84.0</ele><time>2026-04-06T06:46:22Z</time></trkpt><trkpt lat="44.56620363932392" lon="10.867535914164298"><ele>84.0</ele><time>2026-04-06T06:46:23Z</time></trkpt><trkpt lat="44.566269092133986" lon="10.86755231572274"><ele>84.0</ele><time>2026-04-06T06:46:24Z</time></trkpt><trkpt lat="44.566337222364275" lon="10.86757279830642"><ele>84.0</ele><time>2026-04-06T06:46:25Z</time></trkpt><trkpt lat="44.56640006005623" lon="10.867588683045925"><ele>84.0</ele><time>2026-04-06T06:46:26Z</time></trkpt><trkpt lat="44.56646293270224" lon="10.867607859204382"><ele>84.0</ele><time>2026-04-06T06:46:27Z</time></trkpt><trkpt lat="44.56653047381429" lon="10.867624930673168"><ele>83.5</ele><time>2026-04-06T06:46:28Z</time></trkpt><trkpt lat="44.56665192453755" lon="10.867665811738565"><ele>83.0</ele><time>2026-04-06T06:46:30Z</time></trkpt><trkpt lat="44.56672059478923" lon="10.867681810478713"><ele>82.5</ele><time>2026-04-06T06:46:31Z</time></trkpt><trkpt lat="44.56678137300727" lon="10.867705215358612"><ele>82.0</ele><time>2026-04-06T06:46:32Z</time></trkpt><trkpt lat="44.566846637163714" lon="10.867721147328714"><ele>81.5</ele><time>2026-04-06T06:46:33Z</time></trkpt><trkpt lat="44.56690864167806" lon="10.867745375093012"><ele>81.0</ele><time>2026-04-06T06:46:34Z</time></trkpt><trkpt lat="44.56697266389687" lon="10.867753996356942"><ele>81.0</ele><time>2026-04-06T06:46:35Z</time></trkpt><trkpt lat="44.567036424043785" lon="10.86777152371263"><ele>81.0</ele><time>2026-04-06T06:46:36Z</time></trkpt><trkpt lat="44.56710165221714" lon="10.867794321435328"><ele>81.0</ele><time>2026-04-06T06:46:37Z</time></trkpt><trkpt lat="44.567164004921835" lon="10.86781325015183"><ele>81.0</ele><time>2026-04-06T06:46:38Z</time></trkpt><trkpt lat="44.56723079577499" lon="10.867828366472834"><ele>81.0</ele><time>2026-04-06T06:46:39Z</time></trkpt><trkpt lat="44.5672951452303" lon="10.867850904614878"><ele>81.0</ele><time>2026-04-06T06:46:40Z</time></trkpt><trkpt lat="44.56741811014789" lon="10.867888110642301"><ele>81.0</ele><time>2026-04-06T06:46:42Z</time></trkpt><trkpt lat="44.567534677691725" lon="10.867935464748141"><ele>81.0</ele><time>2026-04-06T06:46:44Z</time></trkpt><trkpt lat="44.56765562170058" lon="10.867969510134714"><ele>81.0</ele><time>2026-04-06T06:46:46Z</time></trkpt><trkpt lat="44.567718012157414" lon="10.867985431854539"><ele>81.0</ele><time>2026-04-06T06:46:47Z</time></trkpt><trkpt lat="44.567838969987285" lon="10.868025747856583"><ele>81.0</ele><time>2026-04-06T06:46:49Z</time></trkpt><trkpt lat="44.567901957270045" lon="10.868037422463479"><ele>81.6</ele><time>2026-04-06T06:46:50Z</time></trkpt><trkpt lat="44.56801479393412" lon="10.868057220173883"><ele>82.19999999999999</ele><time>2026-04-06T06:46:52Z</time></trkpt><trkpt lat="44.56813267924929" lon="10.868099695320412"><ele>82.80000000000001</ele><time>2026-04-06T06:46:54Z</time></trkpt><trkpt lat="44.568198333447995" lon="10.86811824906715"><ele>83.4</ele><time>2026-04-06T06:46:55Z</time></trkpt><trkpt lat="44.56831434186784" lon="10.868147831715476"><ele>84.0</ele><time>2026-04-06T06:46:57Z</time></trkpt><trkpt lat="44.56837634125756" lon="10.86816666877631"><ele>84.0</ele><time>2026-04-06T06:46:58Z</time></trkpt><trkpt lat="44.568489601112574" lon="10.868201154390425"><ele>84.0</ele><time>2026-04-06T06:47:00Z</time></trkpt><trkpt lat="44.568551875092545" lon="10.868225900419295"><ele>84.0</ele><time>2026-04-06T06:47:01Z</time></trkpt><trkpt lat="44.56867724813374" lon="10.868239945255064"><ele>84.0</ele><time>2026-04-06T06:47:03Z</time></trkpt><trkpt lat="44.568740780609225" lon="10.868243324549361"><ele>84.0</ele><time>2026-04-06T06:47:04Z</time></trkpt><trkpt lat="44.56880648079076" lon="10.86824088187638"><ele>84.0</ele><time>2026-04-06T06:47:05Z</time></trkpt><trkpt lat="44.56886919251554" lon="10.868230829676579"><ele>83.4</ele><time>2026-04-06T06:47:06Z</time></trkpt><trkpt lat="44.568990168378804" lon="10.868260060620589"><ele>82.80000000000001</ele><time>2026-04-06T06:47:08Z</time></trkpt><trkpt lat="44.569054386842225" lon="10.86823124176941"><ele>82.19999999999999</ele><time>2026-04-06T06:47:09Z</time></trkpt><trkpt lat="44.569167152169875" lon="10.868286444266296"><ele>81.6</ele><time>2026-04-06T06:47:11Z</time></trkpt><trkpt lat="44.56927781553774" lon="10.86830539687946"><ele>81.0</ele><time>2026-04-06T06:47:13Z</time></trkpt><trkpt lat="44.569320045502046" lon="10.868184097844344"><ele>81.0</ele><time>2026-04-06T06:47:14Z</time></trkpt><trkpt lat="44.56926913202378" lon="10.868027124538633"><ele>81.0</ele><time>2026-04-06T06:47:16Z</time></trkpt><trkpt lat="44.5691542950505" lon="10.868021148680988"><ele>81.0</ele><time>2026-04-06T06:47:18Z</time></trkpt><trkpt lat="44.56909060399418" lon="10.868154341082558"><ele>81.0</ele><time>2026-04-06T06:47:20Z</time></trkpt><trkpt lat="44.56897061155455" lon="10.868233608560933"><ele>81.0</ele><time>2026-04-06T06:47:22Z</time></trkpt><trkpt lat="44.5688869018523" lon="10.868193205077295"><ele>81.0</ele><time>2026-04-06T06:47:23Z</time></trkpt><trkpt lat="44.56876913652732" lon="10.868187349378145"><ele>81.0</ele><time>2026-04-06T06:47:25Z</time></trkpt><trkpt lat="44.56865800745817" lon="10.868180536162782"><ele>81.0</ele><time>2026-04-06T06:47:26.999Z</time></trkpt><trkpt lat="44.568537954209084" lon="10.868171157808352"><ele>81.0</ele><time>2026-04-06T06:47:28.999Z</time></trkpt><trkpt lat="44.56842881925892" lon="10.868129388019169"><ele>81.75</ele><time>2026-04-06T06:47:30.999Z</time></trkpt><trkpt lat="44.568311119625484" lon="10.868100685873834"><ele>82.5</ele><time>2026-04-06T06:47:32.999Z</time></trkpt><trkpt lat="44.56819267865797" lon="10.868065410813253"><ele>83.25</ele><time>2026-04-06T06:47:34.999Z</time></trkpt><trkpt lat="44.568083002407576" lon="10.868031455188222"><ele>84.0</ele><time>2026-04-06T06:47:36.999Z</time></trkpt><trkpt lat="44.567959521563196" lon="10.868007568082776"><ele>83.25</ele><time>2026-04-06T06:47:38.999Z</time></trkpt><trkpt lat="44.56784547661032" lon="10.867970223454478"><ele>82.5</ele><time>2026-04-06T06:47:40.999Z</time></trkpt><trkpt lat="44.56772794286896" lon="10.867930449637864"><ele>81.75</ele><time>2026-04-06T06:47:42.999Z</time></trkpt><trkpt lat="44.56761310175298" lon="10.867902279596903"><ele>81.0</ele><time>2026-04-06T06:47:44.999Z</time></trkpt><trkpt lat="44.567501280108175" lon="10.867861340348643"><ele>81.0</ele><time>2026-04-06T06:47:46.999Z</time></trkpt><trkpt lat="44.56738372329351" lon="10.867833053981448"><ele>81.0</ele><time>2026-04-06T06:47:48.999Z</time></trkpt><trkpt lat="44.56726882183157" lon="10.86778893072156"><ele>81.0</ele><time>2026-04-06T06:47:50.999Z</time></trkpt><trkpt lat="44.567152977797605" lon="10.867759821219684"><ele>81.0</ele><time>2026-04-06T06:47:52.999Z</time></trkpt><trkpt lat="44.56703002028573" lon="10.86772728064618"><ele>81.0</ele><time>2026-04-06T06:47:54.999Z</time></trkpt><trkpt lat="44.566916699315286" lon="10.86769102410497"><ele>81.0</ele><time>2026-04-06T06:47:56.999Z</time></trkpt><trkpt lat="44.56680143226825" lon="10.867657099810176"><ele>81.0</ele><time>2026-04-06T06:47:58.999Z</time></trkpt><trkpt lat="44.56668548985685" lon="10.867622821006593"><ele>81.0</ele><time>2026-04-06T06:48:00.999Z</time></trkpt><trkpt lat="44.566570785408594" lon="10.867586845384045"><ele>80.75</ele><time>2026-04-06T06:48:02.999Z</time></trkpt><trkpt lat="44.566457684896335" lon="10.867552497469113"><ele>80.5</ele><time>2026-04-06T06:48:04.999Z</time></trkpt><trkpt lat="44.566341797335085" lon="10.867525375152155"><ele>80.25</ele><time>2026-04-06T06:48:06.999Z</time></trkpt><trkpt lat="44.56622520322244" lon="10.867483237244224"><ele>80.0</ele><time>2026-04-06T06:48:08.999Z</time></trkpt><trkpt lat="44.56611131885317" lon="10.867447937012189"><ele>81.0</ele><time>2026-04-06T06:48:10.999Z</time></trkpt><trkpt lat="44.56599627198801" lon="10.867422999578134"><ele>82.0</ele><time>2026-04-06T06:48:12.999Z</time></trkpt><trkpt lat="44.56588204490753" lon="10.867393629842304"><ele>83.0</ele><time>2026-04-06T06:48:14.999Z</time></trkpt><trkpt lat="44.56577103210474" lon="10.867354746674783"><ele>84.0</ele><time>2026-04-06T06:48:16.999Z</time></trkpt><trkpt lat="44.5656599792429" lon="10.867303042613285"><ele>84.0</ele><time>2026-04-06T06:48:18.999Z</time></trkpt><trkpt lat="44.565557748277286" lon="10.867232397639482"><ele>84.0</ele><time>2026-04-06T06:48:20.999Z</time></trkpt><trkpt lat="44.56545650059587" lon="10.86715940411579"><ele>84.0</ele><time>2026-04-06T06:48:22.999Z</time></trkpt><trkpt lat="44.56536089317373" lon="10.867091157580566"><ele>84.0</ele><time>2026-04-06T06:48:24.999Z</time></trkpt><trkpt lat="44.56526446054095" lon="10.867032956460822"><ele>84.0</ele><time>2026-04-06T06:48:26.999Z</time></trkpt><trkpt lat="44.565171962373356" lon="10.86696008068142"><ele>84.0</ele><time>2026-04-06T06:48:29Z</time></trkpt><trkpt lat="44.565081388335535" lon="10.866887936877708"><ele>84.0</ele><time>2026-04-06T06:48:31Z</time></trkpt><trkpt lat="44.5649908158098" lon="10.866824906253349"><ele>84.0</ele><time>2026-04-06T06:48:33Z</time></trkpt><trkpt lat="44.56489470137307" lon="10.866760048760971"><ele>84.0</ele><time>2026-04-06T06:48:35Z</time></trkpt><trkpt lat="44.564810205989005" lon="10.866691587905079"><ele>84.0</ele><time>2026-04-06T06:48:37Z</time></trkpt><trkpt lat="44.564724708367464" lon="10.866624590845383"><ele>84.4</ele><time>2026-04-06T06:48:39Z</time></trkpt><trkpt lat="44.56464687316629" lon="10.866562136021077"><ele>84.80000000000001</ele><time>2026-04-06T06:48:41Z</time></trkpt><trkpt lat="44.56456457129178" lon="10.866487310632921"><ele>85.19999999999999</ele><time>2026-04-06T06:48:43Z</time></trkpt><trkpt lat="44.564492337415935" lon="10.866419988277785"><ele>85.6</ele><time>2026-04-06T06:48:45Z</time></trkpt><trkpt lat="44.56441267206266" lon="10.866345212413988"><ele>86.0</ele><time>2026-04-06T06:48:47Z</time></trkpt><trkpt lat="44.56433588476445" lon="10.86626799730605"><ele>86.19999999999999</ele><time>2026-04-06T06:48:49Z</time></trkpt><trkpt lat="44.56426284138479" lon="10.866183535795216"><ele>86.39999999999999</ele><time>2026-04-06T06:48:51Z</time></trkpt><trkpt lat="44.564191526911245" lon="10.866104546682141"><ele>86.6</ele><time>2026-04-06T06:48:53Z</time></trkpt><trkpt lat="44.56412292388573" lon="10.866020208126553"><ele>86.8</ele><time>2026-04-06T06:48:55Z</time></trkpt><trkpt lat="44.56405636493845" lon="10.865925469216046"><ele>87.0</ele><time>2026-04-06T06:48:57Z</time></trkpt><trkpt lat="44.56398797150609" lon="10.865834041368583"><ele>87.19999999999999</ele><time>2026-04-06T06:48:59Z</time></trkpt><trkpt lat="44.56393020828522" lon="10.865737026995792"><ele>87.4</ele><time>2026-04-06T06:49:01Z</time></trkpt><trkpt lat="44.563869612842275" lon="10.865636928658521"><ele>87.6</ele><time>2026-04-06T06:49:03Z</time></trkpt><trkpt lat="44.56381336582259" lon="10.865545210880716"><ele>87.80000000000001</ele><time>2026-04-06T06:49:05Z</time></trkpt><trkpt lat="44.56372363771512" lon="10.865487219598718"><ele>88.0</ele><time>2026-04-06T06:49:07Z</time></trkpt><trkpt lat="44.56362049612209" lon="10.8655768193008"><ele>87.60000000000001</ele><time>2026-04-06T06:49:10Z</time></trkpt><trkpt lat="44.56357024818368" lon="10.865678947338605"><ele>87.2</ele><time>2026-04-06T06:49:12Z</time></trkpt><trkpt lat="44.56351702802898" lon="10.865785203692692"><ele>86.8</ele><time>2026-04-06T06:49:14Z</time></trkpt><trkpt lat="44.563460372455005" lon="10.865910913773225"><ele>86.4</ele><time>2026-04-06T06:49:16Z</time></trkpt><trkpt lat="44.56341039915861" lon="10.866006648983312"><ele>86.0</ele><time>2026-04-06T06:49:18Z</time></trkpt><trkpt lat="44.5633366082545" lon="10.866134253423086"><ele>86.0</ele><time>2026-04-06T06:49:20Z</time></trkpt><trkpt lat="44.56328709611502" lon="10.866234611335546"><ele>86.0</ele><time>2026-04-06T06:49:22Z</time></trkpt><trkpt lat="44.563224464916225" lon="10.86635158090492"><ele>86.0</ele><time>2026-04-06T06:49:24Z</time></trkpt><trkpt lat="44.56315886525973" lon="10.866450484641105"><ele>86.0</ele><time>2026-04-06T06:49:26Z</time></trkpt><trkpt lat="44.56309572690065" lon="10.866560971372788"><ele>86.0</ele><time>2026-04-06T06:49:28Z</time></trkpt><trkpt lat="44.56303102179106" lon="10.866677530081777"><ele>85.8</ele><time>2026-04-06T06:49:30Z</time></trkpt><trkpt lat="44.56296753934587" lon="10.86679147479305"><ele>85.6</ele><time>2026-04-06T06:49:32Z</time></trkpt><trkpt lat="44.56290092016415" lon="10.866915337015918"><ele>85.4</ele><time>2026-04-06T06:49:33.999Z</time></trkpt><trkpt lat="44.562840363445716" lon="10.867029415012432"><ele>85.2</ele><time>2026-04-06T06:49:35.999Z</time></trkpt><trkpt lat="44.56277963523234" lon="10.867157038106303"><ele>85.0</ele><time>2026-04-06T06:49:37.999Z</time></trkpt><trkpt lat="44.56272010610853" lon="10.867284072511374"><ele>85.0</ele><time>2026-04-06T06:49:39.999Z</time></trkpt><trkpt lat="44.5626603812012" lon="10.867428497103612"><ele>85.0</ele><time>2026-04-06T06:49:41.999Z</time></trkpt><trkpt lat="44.56260426286635" lon="10.867559522478988"><ele>85.0</ele><time>2026-04-06T06:49:43.999Z</time></trkpt><trkpt lat="44.5625379826459" lon="10.867693767722699"><ele>85.0</ele><time>2026-04-06T06:49:45.999Z</time></trkpt><trkpt lat="44.56249329967848" lon="10.867832581306388"><ele>85.0</ele><time>2026-04-06T06:49:47.999Z</time></trkpt><trkpt lat="44.56244294637346" lon="10.867964523703138"><ele>85.0</ele><time>2026-04-06T06:49:49.999Z</time></trkpt><trkpt lat="44.56238570753989" lon="10.868100353434077"><ele>85.0</ele><time>2026-04-06T06:49:51.999Z</time></trkpt><trkpt lat="44.562334292221315" lon="10.868231608324457"><ele>85.0</ele><time>2026-04-06T06:49:53.999Z</time></trkpt><trkpt lat="44.562280730780046" lon="10.868370357824821"><ele>85.0</ele><time>2026-04-06T06:49:55.999Z</time></trkpt><trkpt lat="44.56222636569339" lon="10.868505678728953"><ele>85.0</ele><time>2026-04-06T06:49:57.999Z</time></trkpt><trkpt lat="44.56217395230681" lon="10.868634921339032"><ele>85.0</ele><time>2026-04-06T06:49:59.999Z</time></trkpt><trkpt lat="44.562129821321065" lon="10.868770546101741"><ele>85.0</ele><time>2026-04-06T06:50:01.999Z</time></trkpt><trkpt lat="44.56208085801133" lon="10.868919226567012"><ele>85.0</ele><time>2026-04-06T06:50:03.999Z</time></trkpt><trkpt lat="44.562044821635595" lon="10.869065546616158"><ele>85.0</ele><time>2026-04-06T06:50:05.999Z</time></trkpt><trkpt lat="44.56199803175088" lon="10.869196787476161"><ele>85.4</ele><time>2026-04-06T06:50:07.999Z</time></trkpt><trkpt lat="44.561960291137105" lon="10.869354478097302"><ele>85.8</ele><time>2026-04-06T06:50:09.999Z</time></trkpt><trkpt lat="44.56191648348975" lon="10.86948245781011"><ele>86.19999999999999</ele><time>2026-04-06T06:50:11.999Z</time></trkpt><trkpt lat="44.561873208227425" lon="10.869611493497088"><ele>86.6</ele><time>2026-04-06T06:50:13.999Z</time></trkpt><trkpt lat="44.56183169519335" lon="10.869747280579096"><ele>87.0</ele><time>2026-04-06T06:50:15.999Z</time></trkpt><trkpt lat="44.56179238736216" lon="10.869874783322459"><ele>87.0</ele><time>2026-04-06T06:50:17.999Z</time></trkpt><trkpt lat="44.56175423902595" lon="10.870021651053142"><ele>87.0</ele><time>2026-04-06T06:50:19.999Z</time></trkpt><trkpt lat="44.56171143398372" lon="10.870141222755707"><ele>87.0</ele><time>2026-04-06T06:50:21.999Z</time></trkpt><trkpt lat="44.561673687595274" lon="10.870282060653967"><ele>87.0</ele><time>2026-04-06T06:50:23.999Z</time></trkpt><trkpt lat="44.561637107846536" lon="10.87041006762599"><ele>87.0</ele><time>2026-04-06T06:50:25.999Z</time></trkpt><trkpt lat="44.56159141774309" lon="10.870534276623117"><ele>87.0</ele><time>2026-04-06T06:50:27.999Z</time></trkpt><trkpt lat="44.56155739599786" lon="10.870656003585939"><ele>87.0</ele><time>2026-04-06T06:50:29.999Z</time></trkpt><trkpt lat="44.561518065061215" lon="10.87077916826253"><ele>87.0</ele><time>2026-04-06T06:50:31.999Z</time></trkpt><trkpt lat="44.561477981501085" lon="10.870903230010548"><ele>87.0</ele><time>2026-04-06T06:50:34Z</time></trkpt><trkpt lat="44.56143888160961" lon="10.87103150559171"><ele>87.0</ele><time>2026-04-06T06:50:36Z</time></trkpt><trkpt lat="44.561399189686284" lon="10.871145925829763"><ele>86.8</ele><time>2026-04-06T06:50:38Z</time></trkpt><trkpt lat="44.56136732419636" lon="10.871266682263848"><ele>86.6</ele><time>2026-04-06T06:50:40Z</time></trkpt><trkpt lat="44.56132460309253" lon="10.87137491139526"><ele>86.39999999999999</ele><time>2026-04-06T06:50:42Z</time></trkpt><trkpt lat="44.56129076226358" lon="10.871492219857906"><ele>86.19999999999999</ele><time>2026-04-06T06:50:44Z</time></trkpt><trkpt lat="44.56125795266724" lon="10.871610158835702"><ele>86.0</ele><time>2026-04-06T06:50:46Z</time></trkpt><trkpt lat="44.56121884893006" lon="10.871731086094218"><ele>86.4</ele><time>2026-04-06T06:50:48Z</time></trkpt><trkpt lat="44.56118033526105" lon="10.871835022501255"><ele>86.8</ele><time>2026-04-06T06:50:50Z</time></trkpt><trkpt lat="44.56114714535206" lon="10.871951697174032"><ele>87.2</ele><time>2026-04-06T06:50:52Z</time></trkpt><trkpt lat="44.56110757974249" lon="10.872069998920852"><ele>87.60000000000001</ele><time>2026-04-06T06:50:54Z</time></trkpt><trkpt lat="44.561072133053194" lon="10.87219139189666"><ele>88.0</ele><time>2026-04-06T06:50:56Z</time></trkpt><trkpt lat="44.56103816452012" lon="10.872322766948889"><ele>88.0</ele><time>2026-04-06T06:50:58Z</time></trkpt><trkpt lat="44.56100459496872" lon="10.8724424759159"><ele>88.0</ele><time>2026-04-06T06:51:00Z</time></trkpt><trkpt lat="44.56096587654155" lon="10.872571468466477"><ele>88.0</ele><time>2026-04-06T06:51:02Z</time></trkpt><trkpt lat="44.560933312123865" lon="10.872695215580448"><ele>88.0</ele><time>2026-04-06T06:51:04Z</time></trkpt><trkpt lat="44.560893912033826" lon="10.872821652023513"><ele>88.0</ele><time>2026-04-06T06:51:06Z</time></trkpt><trkpt lat="44.5608566630629" lon="10.872946720779137"><ele>88.0</ele><time>2026-04-06T06:51:08Z</time></trkpt><trkpt lat="44.560819437667796" lon="10.873080357194265"><ele>88.0</ele><time>2026-04-06T06:51:10Z</time></trkpt><trkpt lat="44.560780856679045" lon="10.873213528171743"><ele>88.0</ele><time>2026-04-06T06:51:12Z</time></trkpt><trkpt lat="44.56074027018966" lon="10.873346125802213"><ele>88.0</ele><time>2026-04-06T06:51:14Z</time></trkpt><trkpt lat="44.56070197056452" lon="10.873481507708817"><ele>88.0</ele><time>2026-04-06T06:51:16Z</time></trkpt><trkpt lat="44.56066730159638" lon="10.873620239128607"><ele>87.80000000000001</ele><time>2026-04-06T06:51:18Z</time></trkpt><trkpt lat="44.56063509453652" lon="10.873762195529357"><ele>87.6</ele><time>2026-04-06T06:51:20Z</time></trkpt><trkpt lat="44.560606800840766" lon="10.87390516012654"><ele>87.4</ele><time>2026-04-06T06:51:22Z</time></trkpt><trkpt lat="44.560573944279014" lon="10.87405059601077"><ele>87.19999999999999</ele><time>2026-04-06T06:51:24Z</time></trkpt><trkpt lat="44.560539934005305" lon="10.874195245453699"><ele>87.0</ele><time>2026-04-06T06:51:26Z</time></trkpt><trkpt lat="44.56050728281289" lon="10.874341545958973"><ele>87.0</ele><time>2026-04-06T06:51:28Z</time></trkpt><trkpt lat="44.56047730449839" lon="10.874487804623348"><ele>87.0</ele><time>2026-04-06T06:51:30Z</time></trkpt><trkpt lat="44.56044741166217" lon="10.874629564814859"><ele>87.0</ele><time>2026-04-06T06:51:32Z</time></trkpt><trkpt lat="44.56041170555262" lon="10.874770585252827"><ele>87.0</ele><time>2026-04-06T06:51:34Z</time></trkpt><trkpt lat="44.56038150526156" lon="10.874915886305534"><ele>87.0</ele><time>2026-04-06T06:51:36Z</time></trkpt><trkpt lat="44.560350244206" lon="10.875051968347673"><ele>87.0</ele><time>2026-04-06T06:51:38Z</time></trkpt><trkpt lat="44.56031625987449" lon="10.875199113451403"><ele>87.0</ele><time>2026-04-06T06:51:40Z</time></trkpt><trkpt lat="44.56028431968245" lon="10.875341764319057"><ele>87.0</ele><time>2026-04-06T06:51:41.999Z</time></trkpt><trkpt lat="44.560248337531284" lon="10.875497609195893"><ele>87.0</ele><time>2026-04-06T06:51:43.999Z</time></trkpt><trkpt lat="44.560210029281656" lon="10.875646796428358"><ele>87.0</ele><time>2026-04-06T06:51:45.999Z</time></trkpt><trkpt lat="44.56017524895927" lon="10.875794307851162"><ele>86.5</ele><time>2026-04-06T06:51:47.999Z</time></trkpt><trkpt lat="44.56014033008076" lon="10.875946209184502"><ele>86.0</ele><time>2026-04-06T06:51:49.999Z</time></trkpt><trkpt lat="44.56009995267992" lon="10.876098838975853"><ele>85.5</ele><time>2026-04-06T06:51:51.999Z</time></trkpt><trkpt lat="44.56006570254546" lon="10.87624520724101"><ele>85.0</ele><time>2026-04-06T06:51:53.999Z</time></trkpt><trkpt lat="44.560031962384414" lon="10.876395817820725"><ele>85.0</ele><time>2026-04-06T06:51:55.999Z</time></trkpt><trkpt lat="44.55999946271668" lon="10.876552366657053"><ele>85.0</ele><time>2026-04-06T06:51:57.999Z</time></trkpt><trkpt lat="44.55996481468635" lon="10.876712396822638"><ele>85.0</ele><time>2026-04-06T06:51:59.999Z</time></trkpt><trkpt lat="44.559930425475166" lon="10.876854521536806"><ele>85.0</ele><time>2026-04-06T06:52:01.999Z</time></trkpt><trkpt lat="44.55990995793324" lon="10.876940976984473"><ele>85.0</ele><time>2026-04-06T06:52:02.999Z</time></trkpt><trkpt lat="44.55987789812204" lon="10.877103099638514"><ele>85.0</ele><time>2026-04-06T06:52:04.999Z</time></trkpt><trkpt lat="44.55983709068833" lon="10.877256298195972"><ele>85.0</ele><time>2026-04-06T06:52:06.999Z</time></trkpt><trkpt lat="44.559801697558186" lon="10.877415702288708"><ele>85.0</ele><time>2026-04-06T06:52:08.999Z</time></trkpt><trkpt lat="44.559759216633736" lon="10.877572623380058"><ele>85.0</ele><time>2026-04-06T06:52:10.999Z</time></trkpt><trkpt lat="44.55972517526318" lon="10.87772845037163"><ele>85.0</ele><time>2026-04-06T06:52:12.999Z</time></trkpt><trkpt lat="44.55969629177103" lon="10.877881719419719"><ele>85.0</ele><time>2026-04-06T06:52:14.999Z</time></trkpt><trkpt lat="44.55965436738003" lon="10.878050873110706"><ele>85.0</ele><time>2026-04-06T06:52:16.999Z</time></trkpt><trkpt lat="44.55962297462326" lon="10.878208695270997"><ele>85.0</ele><time>2026-04-06T06:52:18.999Z</time></trkpt><trkpt lat="44.559589269477485" lon="10.878358674994756"><ele>85.0</ele><time>2026-04-06T06:52:20.999Z</time></trkpt><trkpt lat="44.559553284934545" lon="10.878506277355303"><ele>85.0</ele><time>2026-04-06T06:52:22.999Z</time></trkpt><trkpt lat="44.55950762230377" lon="10.87867070117844"><ele>85.0</ele><time>2026-04-06T06:52:24.999Z</time></trkpt><trkpt lat="44.55948205761707" lon="10.878823407371845"><ele>85.0</ele><time>2026-04-06T06:52:26.999Z</time></trkpt><trkpt lat="44.559442857819775" lon="10.878980730088129"><ele>85.0</ele><time>2026-04-06T06:52:28.999Z</time></trkpt><trkpt lat="44.55942314311717" lon="10.879076553132244"><ele>85.0</ele><time>2026-04-06T06:52:29.999Z</time></trkpt><trkpt lat="44.55938834247553" lon="10.879230749601614"><ele>85.0</ele><time>2026-04-06T06:52:31.999Z</time></trkpt><trkpt lat="44.55935062690534" lon="10.879397506913643"><ele>85.0</ele><time>2026-04-06T06:52:33.999Z</time></trkpt><trkpt lat="44.559336865203164" lon="10.879483917271214"><ele>85.0</ele><time>2026-04-06T06:52:34.999Z</time></trkpt><trkpt lat="44.5592971442812" lon="10.87963704399377"><ele>85.2</ele><time>2026-04-06T06:52:36.999Z</time></trkpt><trkpt lat="44.55927586518285" lon="10.879721068120725"><ele>85.4</ele><time>2026-04-06T06:52:37.999Z</time></trkpt><trkpt lat="44.559247286252294" lon="10.879883707240507"><ele>85.6</ele><time>2026-04-06T06:52:40Z</time></trkpt><trkpt lat="44.559202075497126" lon="10.88004465894364"><ele>85.8</ele><time>2026-04-06T06:52:42Z</time></trkpt><trkpt lat="44.559184958496786" lon="10.880132423338981"><ele>86.0</ele><time>2026-04-06T06:52:43Z</time></trkpt><trkpt lat="44.55914797632449" lon="10.880302042114248"><ele>86.16666666666667</ele><time>2026-04-06T06:52:45Z</time></trkpt><trkpt lat="44.559127791010106" lon="10.880391690088398"><ele>86.33333333333334</ele><time>2026-04-06T06:52:46Z</time></trkpt><trkpt lat="44.55909059116199" lon="10.88057643307089"><ele>86.5</ele><time>2026-04-06T06:52:48Z</time></trkpt><trkpt lat="44.55906977493698" lon="10.880665241103816"><ele>86.66666666666667</ele><time>2026-04-06T06:52:49Z</time></trkpt><trkpt lat="44.55905071352388" lon="10.880759092654753"><ele>86.83333333333333</ele><time>2026-04-06T06:52:50Z</time></trkpt><trkpt lat="44.55902689609035" lon="10.880844189984876"><ele>87.0</ele><time>2026-04-06T06:52:51Z</time></trkpt><trkpt lat="44.5589969901946" lon="10.880934552471608"><ele>87.0</ele><time>2026-04-06T06:52:52Z</time></trkpt><trkpt lat="44.55894559037435" lon="10.880990402885693"><ele>87.0</ele><time>2026-04-06T06:52:53Z</time></trkpt><trkpt lat="44.55887645445109" lon="10.881018109218141"><ele>87.0</ele><time>2026-04-06T06:52:54Z</time></trkpt><trkpt lat="44.55874944296497" lon="10.880991124159182"><ele>87.0</ele><time>2026-04-06T06:52:56Z</time></trkpt><trkpt lat="44.55863387957416" lon="10.880982365904433"><ele>87.0</ele><time>2026-04-06T06:52:58Z</time></trkpt><trkpt lat="44.5585201239863" lon="10.880972653256956"><ele>87.19999999999999</ele><time>2026-04-06T06:53:00Z</time></trkpt><trkpt lat="44.55840913071014" lon="10.880977039540769"><ele>87.4</ele><time>2026-04-06T06:53:02Z</time></trkpt><trkpt lat="44.558295297181346" lon="10.880979096511574"><ele>87.6</ele><time>2026-04-06T06:53:04Z</time></trkpt><trkpt lat="44.558197055356615" lon="10.880982013999155"><ele>87.80000000000001</ele><time>2026-04-06T06:53:06Z</time></trkpt><trkpt lat="44.5580863993753" lon="10.880984614212206"><ele>88.0</ele><time>2026-04-06T06:53:08Z</time></trkpt><trkpt lat="44.55797814137906" lon="10.880986399233434"><ele>88.0</ele><time>2026-04-06T06:53:10Z</time></trkpt><trkpt lat="44.55788908782764" lon="10.8809813464639"><ele>88.0</ele><time>2026-04-06T06:53:12Z</time></trkpt><trkpt lat="44.557796191545954" lon="10.880977826159818"><ele>88.0</ele><time>2026-04-06T06:53:14Z</time></trkpt><trkpt lat="44.55770097606739" lon="10.88098398567203"><ele>88.0</ele><time>2026-04-06T06:53:16Z</time></trkpt><trkpt lat="44.55760028777071" lon="10.880976013985807"><ele>88.0</ele><time>2026-04-06T06:53:18Z</time></trkpt><trkpt lat="44.55751476811613" lon="10.880982171829634"><ele>88.4</ele><time>2026-04-06T06:53:20Z</time></trkpt><trkpt lat="44.557420898853046" lon="10.880986501626223"><ele>88.80000000000001</ele><time>2026-04-06T06:53:22Z</time></trkpt><trkpt lat="44.55732654893525" lon="10.880981155373657"><ele>89.2</ele><time>2026-04-06T06:53:24Z</time></trkpt><trkpt lat="44.55723713836198" lon="10.88098479169827"><ele>89.6</ele><time>2026-04-06T06:53:26Z</time></trkpt><trkpt lat="44.55715260450113" lon="10.880997347532027"><ele>90.0</ele><time>2026-04-06T06:53:28Z</time></trkpt><trkpt lat="44.55705919740669" lon="10.880990152709035"><ele>89.83333333333333</ele><time>2026-04-06T06:53:30Z</time></trkpt><trkpt lat="44.556966197714054" lon="10.88098319502901"><ele>89.66666666666667</ele><time>2026-04-06T06:53:32Z</time></trkpt><trkpt lat="44.5568839070801" lon="10.880985882200903"><ele>89.5</ele><time>2026-04-06T06:53:34Z</time></trkpt><trkpt lat="44.556799772438104" lon="10.880983612750214"><ele>89.33333333333334</ele><time>2026-04-06T06:53:36Z</time></trkpt><trkpt lat="44.55671189880076" lon="10.880978589895328"><ele>89.16666666666667</ele><time>2026-04-06T06:53:38Z</time></trkpt><trkpt lat="44.556626490525616" lon="10.880975308901654"><ele>89.0</ele><time>2026-04-06T06:53:40Z</time></trkpt><trkpt lat="44.55654930171113" lon="10.880979732162864"><ele>89.0</ele><time>2026-04-06T06:53:42Z</time></trkpt><trkpt lat="44.5564610561546" lon="10.880982478135824"><ele>89.0</ele><time>2026-04-06T06:53:44Z</time></trkpt><trkpt lat="44.55637659603712" lon="10.880980666843964"><ele>89.0</ele><time>2026-04-06T06:53:45.999Z</time></trkpt><trkpt lat="44.55629609976559" lon="10.880992151763838"><ele>89.0</ele><time>2026-04-06T06:53:47.999Z</time></trkpt><trkpt lat="44.55621647983657" lon="10.881010926341641"><ele>89.0</ele><time>2026-04-06T06:53:49.999Z</time></trkpt><trkpt lat="44.55614076026117" lon="10.881036131137547"><ele>89.0</ele><time>2026-04-06T06:53:51.999Z</time></trkpt><trkpt lat="44.55606491863975" lon="10.881082772223785"><ele>89.4</ele><time>2026-04-06T06:53:53.999Z</time></trkpt><trkpt lat="44.55599330798469" lon="10.881135819091364"><ele>89.80000000000001</ele><time>2026-04-06T06:53:55.999Z</time></trkpt><trkpt lat="44.55591736450431" lon="10.88120257690115"><ele>90.19999999999999</ele><time>2026-04-06T06:53:57.999Z</time></trkpt><trkpt lat="44.555839996490924" lon="10.881284718904503"><ele>90.6</ele><time>2026-04-06T06:53:59.999Z</time></trkpt><trkpt lat="44.555758155009066" lon="10.881369519755799"><ele>91.0</ele><time>2026-04-06T06:54:01.999Z</time></trkpt><trkpt lat="44.555680876983196" lon="10.881466173188421"><ele>91.0</ele><time>2026-04-06T06:54:03.999Z</time></trkpt><trkpt lat="44.55559432539381" lon="10.881560080504858"><ele>91.0</ele><time>2026-04-06T06:54:05.999Z</time></trkpt><trkpt lat="44.55551534752138" lon="10.88165323532742"><ele>91.0</ele><time>2026-04-06T06:54:07.999Z</time></trkpt><trkpt lat="44.555432500433554" lon="10.881740543757937"><ele>91.0</ele><time>2026-04-06T06:54:09.999Z</time></trkpt><trkpt lat="44.55534884548206" lon="10.88183466424823"><ele>91.0</ele><time>2026-04-06T06:54:11.999Z</time></trkpt><trkpt lat="44.55526626754121" lon="10.881933405611377"><ele>91.6</ele><time>2026-04-06T06:54:13.999Z</time></trkpt><trkpt lat="44.55517528171781" lon="10.88201383661467"><ele>92.19999999999999</ele><time>2026-04-06T06:54:15.999Z</time></trkpt><trkpt lat="44.55509650609759" lon="10.882119505050643"><ele>92.80000000000001</ele><time>2026-04-06T06:54:17.999Z</time></trkpt><trkpt lat="44.5550076683507" lon="10.882215833589715"><ele>93.4</ele><time>2026-04-06T06:54:19.999Z</time></trkpt><trkpt lat="44.554922571608984" lon="10.882318231526733"><ele>94.0</ele><time>2026-04-06T06:54:21.999Z</time></trkpt><trkpt lat="44.5548332203851" lon="10.882416744370396"><ele>94.0</ele><time>2026-04-06T06:54:23.999Z</time></trkpt><trkpt lat="44.55474562923079" lon="10.882516411236704"><ele>94.0</ele><time>2026-04-06T06:54:25.999Z</time></trkpt><trkpt lat="44.55466100651529" lon="10.882615925838675"><ele>94.0</ele><time>2026-04-06T06:54:27.999Z</time></trkpt><trkpt lat="44.55458132471258" lon="10.882719503014371"><ele>94.0</ele><time>2026-04-06T06:54:29.999Z</time></trkpt><trkpt lat="44.5545042231876" lon="10.882814394523754"><ele>94.0</ele><time>2026-04-06T06:54:31.999Z</time></trkpt><trkpt lat="44.5544242353569" lon="10.882920537521667"><ele>93.80000000000001</ele><time>2026-04-06T06:54:33.999Z</time></trkpt><trkpt lat="44.55434780723043" lon="10.88301367673706"><ele>93.60000000000001</ele><time>2026-04-06T06:54:35.999Z</time></trkpt><trkpt lat="44.55427379264938" lon="10.883110578869319"><ele>93.4</ele><time>2026-04-06T06:54:37.999Z</time></trkpt><trkpt lat="44.55419804760186" lon="10.883204727110364"><ele>93.2</ele><time>2026-04-06T06:54:39.999Z</time></trkpt><trkpt lat="44.5541309938808" lon="10.883307667665012"><ele>93.0</ele><time>2026-04-06T06:54:41.999Z</time></trkpt><trkpt lat="44.55406753506648" lon="10.883398307223267"><ele>93.2</ele><time>2026-04-06T06:54:43.999Z</time></trkpt><trkpt lat="44.554001982177795" lon="10.883499169466855"><ele>93.4</ele><time>2026-04-06T06:54:46Z</time></trkpt><trkpt lat="44.553936063637614" lon="10.883598846973722"><ele>93.60000000000001</ele><time>2026-04-06T06:54:48Z</time></trkpt><trkpt lat="44.553868709834745" lon="10.883694505085781"><ele>93.80000000000001</ele><time>2026-04-06T06:54:50Z</time></trkpt><trkpt lat="44.553809323185725" lon="10.883796449483798"><ele>94.0</ele><time>2026-04-06T06:54:52Z</time></trkpt><trkpt lat="44.55374717273463" lon="10.883892059579715"><ele>94.2</ele><time>2026-04-06T06:54:54Z</time></trkpt><trkpt lat="44.55368800374484" lon="10.883992029068041"><ele>94.4</ele><time>2026-04-06T06:54:56Z</time></trkpt><trkpt lat="44.5536304306684" lon="10.884091189891281"><ele>94.6</ele><time>2026-04-06T06:54:58Z</time></trkpt><trkpt lat="44.55358035243564" lon="10.884194861779628"><ele>94.8</ele><time>2026-04-06T06:55:00Z</time></trkpt><trkpt lat="44.553534578045564" lon="10.884302810006787"><ele>95.0</ele><time>2026-04-06T06:55:02Z</time></trkpt><trkpt lat="44.55348910546659" lon="10.884413789233788"><ele>95.0</ele><time>2026-04-06T06:55:04Z</time></trkpt><trkpt lat="44.5534462009657" lon="10.884529789448536"><ele>95.0</ele><time>2026-04-06T06:55:06Z</time></trkpt><trkpt lat="44.55340873050005" lon="10.884648403698781"><ele>95.0</ele><time>2026-04-06T06:55:08Z</time></trkpt><trkpt lat="44.5533677195077" lon="10.884761750874342"><ele>95.0</ele><time>2026-04-06T06:55:10Z</time></trkpt><trkpt lat="44.553326481250714" lon="10.884891233573805"><ele>95.0</ele><time>2026-04-06T06:55:12Z</time></trkpt><trkpt lat="44.553290639420965" lon="10.885015497501184"><ele>94.8</ele><time>2026-04-06T06:55:14Z</time></trkpt><trkpt lat="44.553243693104925" lon="10.885148300964604"><ele>94.6</ele><time>2026-04-06T06:55:16Z</time></trkpt><trkpt lat="44.553209627112665" lon="10.88526963225787"><ele>94.4</ele><time>2026-04-06T06:55:18Z</time></trkpt><trkpt lat="44.55317587189673" lon="10.885394498807603"><ele>94.2</ele><time>2026-04-06T06:55:20Z</time></trkpt><trkpt lat="44.55313963076577" lon="10.885514626679319"><ele>94.0</ele><time>2026-04-06T06:55:22Z</time></trkpt><trkpt lat="44.55311206509965" lon="10.885641714751836"><ele>94.0</ele><time>2026-04-06T06:55:24Z</time></trkpt><trkpt lat="44.55306840350631" lon="10.885770002773045"><ele>94.0</ele><time>2026-04-06T06:55:26Z</time></trkpt><trkpt lat="44.5530349913954" lon="10.885898824746167"><ele>94.0</ele><time>2026-04-06T06:55:28Z</time></trkpt><trkpt lat="44.55299731004705" lon="10.886029191239606"><ele>94.0</ele><time>2026-04-06T06:55:30Z</time></trkpt><trkpt lat="44.55296383052458" lon="10.886176948040832"><ele>94.0</ele><time>2026-04-06T06:55:32Z</time></trkpt><trkpt lat="44.55292499397371" lon="10.886321700989997"><ele>93.80000000000001</ele><time>2026-04-06T06:55:34Z</time></trkpt><trkpt lat="44.55288795932387" lon="10.8864684961914"><ele>93.60000000000001</ele><time>2026-04-06T06:55:36Z</time></trkpt><trkpt lat="44.55285290299333" lon="10.886616451147773"><ele>93.4</ele><time>2026-04-06T06:55:38Z</time></trkpt><trkpt lat="44.55281879512869" lon="10.886771464963386"><ele>93.2</ele><time>2026-04-06T06:55:40Z</time></trkpt><trkpt lat="44.552788186114704" lon="10.886921158173843"><ele>93.0</ele><time>2026-04-06T06:55:42Z</time></trkpt><trkpt lat="44.552756827616285" lon="10.887078887588991"><ele>92.5</ele><time>2026-04-06T06:55:44Z</time></trkpt><trkpt lat="44.552722550031575" lon="10.887244619805754"><ele>92.0</ele><time>2026-04-06T06:55:46Z</time></trkpt><trkpt lat="44.55269946440651" lon="10.88740552286453"><ele>91.5</ele><time>2026-04-06T06:55:48Z</time></trkpt><trkpt lat="44.55267720314654" lon="10.887567926238924"><ele>91.0</ele><time>2026-04-06T06:55:50Z</time></trkpt><trkpt lat="44.55264955743511" lon="10.8877324084123"><ele>91.0</ele><time>2026-04-06T06:55:52Z</time></trkpt><trkpt lat="44.55262092300259" lon="10.88789326372775"><ele>91.0</ele><time>2026-04-06T06:55:53.999Z</time></trkpt><trkpt lat="44.552601035317075" lon="10.888055075224877"><ele>91.0</ele><time>2026-04-06T06:55:55.999Z</time></trkpt><trkpt lat="44.55257751339771" lon="10.88820971991287"><ele>91.0</ele><time>2026-04-06T06:55:57.999Z</time></trkpt><trkpt lat="44.5525537986922" lon="10.888374375451274"><ele>90.8</ele><time>2026-04-06T06:55:59.999Z</time></trkpt><trkpt lat="44.55252811074885" lon="10.888530362265188"><ele>90.6</ele><time>2026-04-06T06:56:01.999Z</time></trkpt><trkpt lat="44.55247690694472" lon="10.88867212093721"><ele>90.4</ele><time>2026-04-06T06:56:03.999Z</time></trkpt><trkpt lat="44.55238870792836" lon="10.88876260730798"><ele>90.2</ele><time>2026-04-06T06:56:05.999Z</time></trkpt><trkpt lat="44.55230085629634" lon="10.888828253778875"><ele>90.0</ele><time>2026-04-06T06:56:07.999Z</time></trkpt><trkpt lat="44.552262613525166" lon="10.88895516957039"><ele>90.0</ele><time>2026-04-06T06:56:09.999Z</time></trkpt><trkpt lat="44.552253838583795" lon="10.889080474055563"><ele>90.0</ele><time>2026-04-06T06:56:11.999Z</time></trkpt><trkpt lat="44.552279962418794" lon="10.889214227077925"><ele>90.0</ele><time>2026-04-06T06:56:13.999Z</time></trkpt><trkpt lat="44.55234126284899" lon="10.889322852274598"><ele>90.0</ele><time>2026-04-06T06:56:15.999Z</time></trkpt><trkpt lat="44.552360589998166" lon="10.889496390413722"><ele>90.0</ele><time>2026-04-06T06:56:17.999Z</time></trkpt><trkpt lat="44.55238143757872" lon="10.889646512956793"><ele>90.0</ele><time>2026-04-06T06:56:19.999Z</time></trkpt><trkpt lat="44.55234448312683" lon="10.889728188672137"><ele>90.0</ele><time>2026-04-06T06:56:20.999Z</time></trkpt><trkpt lat="44.552323272852774" lon="10.889879139984778"><ele>90.0</ele><time>2026-04-06T06:56:22.999Z</time></trkpt><trkpt lat="44.55229972351109" lon="10.890030901739944"><ele>90.0</ele><time>2026-04-06T06:56:24.999Z</time></trkpt><trkpt lat="44.55227689740926" lon="10.890185532708117"><ele>90.0</ele><time>2026-04-06T06:56:26.999Z</time></trkpt><trkpt lat="44.55224812057125" lon="10.89033908993556"><ele>90.2</ele><time>2026-04-06T06:56:28.999Z</time></trkpt><trkpt lat="44.552226586541785" lon="10.890486960177956"><ele>90.4</ele><time>2026-04-06T06:56:30.999Z</time></trkpt><trkpt lat="44.55219697837804" lon="10.890641412465865"><ele>90.6</ele><time>2026-04-06T06:56:32.999Z</time></trkpt><trkpt lat="44.55216851467557" lon="10.890794397545195"><ele>90.8</ele><time>2026-04-06T06:56:34.999Z</time></trkpt><trkpt lat="44.55213366702401" lon="10.890945021475769"><ele>91.0</ele><time>2026-04-06T06:56:36.999Z</time></trkpt><trkpt lat="44.55210483212291" lon="10.891092713978779"><ele>91.0</ele><time>2026-04-06T06:56:38.999Z</time></trkpt><trkpt lat="44.55207708266646" lon="10.89124330705376"><ele>91.0</ele><time>2026-04-06T06:56:40.999Z</time></trkpt><trkpt lat="44.55204816552847" lon="10.891394934005268"><ele>91.0</ele><time>2026-04-06T06:56:42.999Z</time></trkpt><trkpt lat="44.55202014587463" lon="10.891544944079577"><ele>91.0</ele><time>2026-04-06T06:56:44.999Z</time></trkpt><trkpt lat="44.55199044031628" lon="10.89169883190098"><ele>91.0</ele><time>2026-04-06T06:56:46.999Z</time></trkpt><trkpt lat="44.551958915048644" lon="10.891852293110253"><ele>91.5</ele><time>2026-04-06T06:56:48.999Z</time></trkpt><trkpt lat="44.55192757014348" lon="10.892006849703979"><ele>92.0</ele><time>2026-04-06T06:56:51Z</time></trkpt><trkpt lat="44.55189994202516" lon="10.89216652775768"><ele>92.5</ele><time>2026-04-06T06:56:53Z</time></trkpt><trkpt lat="44.551874228547234" lon="10.89232807104141"><ele>93.0</ele><time>2026-04-06T06:56:55Z</time></trkpt><trkpt lat="44.55184867407192" lon="10.892484587762485"><ele>93.25</ele><time>2026-04-06T06:56:57Z</time></trkpt><trkpt lat="44.55182107049875" lon="10.89263702002043"><ele>93.5</ele><time>2026-04-06T06:56:59Z</time></trkpt><trkpt lat="44.55179400711548" lon="10.892803694848451"><ele>93.75</ele><time>2026-04-06T06:57:01Z</time></trkpt><trkpt lat="44.55177220173544" lon="10.892965869102099"><ele>94.0</ele><time>2026-04-06T06:57:03Z</time></trkpt><trkpt lat="44.55174855487985" lon="10.893134519041412"><ele>94.0</ele><time>2026-04-06T06:57:05Z</time></trkpt><trkpt lat="44.55171839942732" lon="10.893301355749063"><ele>94.0</ele><time>2026-04-06T06:57:07Z</time></trkpt><trkpt lat="44.551684877057696" lon="10.893475958991417"><ele>94.0</ele><time>2026-04-06T06:57:09Z</time></trkpt><trkpt lat="44.55166993223574" lon="10.893563134057553"><ele>94.0</ele><time>2026-04-06T06:57:10Z</time></trkpt><trkpt lat="44.55165014116647" lon="10.893733759072958"><ele>94.0</ele><time>2026-04-06T06:57:12Z</time></trkpt><trkpt lat="44.55162295631592" lon="10.89390997477199"><ele>93.83333333333333</ele><time>2026-04-06T06:57:14Z</time></trkpt><trkpt lat="44.55158995442156" lon="10.894072454385176"><ele>93.66666666666666</ele><time>2026-04-06T06:57:16Z</time></trkpt><trkpt lat="44.551576901508405" lon="10.894159599256508"><ele>93.5</ele><time>2026-04-06T06:57:17Z</time></trkpt><trkpt lat="44.5515568446726" lon="10.894247228403362"><ele>93.33333333333333</ele><time>2026-04-06T06:57:18Z</time></trkpt><trkpt lat="44.55154165861274" lon="10.894414786799532"><ele>93.16666666666667</ele><time>2026-04-06T06:57:20Z</time></trkpt><trkpt lat="44.551523629245914" lon="10.894508519502613"><ele>93.0</ele><time>2026-04-06T06:57:21Z</time></trkpt><trkpt lat="44.55150110014038" lon="10.894601831256798"><ele>93.0</ele><time>2026-04-06T06:57:22Z</time></trkpt><trkpt lat="44.55148534513657" lon="10.894688428738988"><ele>93.0</ele><time>2026-04-06T06:57:23Z</time></trkpt><trkpt lat="44.551465292017994" lon="10.89477817440713"><ele>93.0</ele><time>2026-04-06T06:57:24Z</time></trkpt><trkpt lat="44.55144793682979" lon="10.89486528161416"><ele>93.0</ele><time>2026-04-06T06:57:25Z</time></trkpt><trkpt lat="44.55142864815776" lon="10.8949540016819"><ele>93.0</ele><time>2026-04-06T06:57:26Z</time></trkpt><trkpt lat="44.55139339588337" lon="10.89512260843835"><ele>93.0</ele><time>2026-04-06T06:57:28Z</time></trkpt><trkpt lat="44.55137291381533" lon="10.895209376461226"><ele>92.80000000000001</ele><time>2026-04-06T06:57:29Z</time></trkpt><trkpt lat="44.551341565401216" lon="10.895375160185232"><ele>92.6</ele><time>2026-04-06T06:57:31Z</time></trkpt><trkpt lat="44.55131014686129" lon="10.895530548020352"><ele>92.4</ele><time>2026-04-06T06:57:33Z</time></trkpt><trkpt lat="44.55128108735404" lon="10.895610948287079"><ele>92.19999999999999</ele><time>2026-04-06T06:57:34Z</time></trkpt><trkpt lat="44.55123824069681" lon="10.895759997468886"><ele>92.0</ele><time>2026-04-06T06:57:36Z</time></trkpt><trkpt lat="44.55118992379732" lon="10.895903592081478"><ele>92.25</ele><time>2026-04-06T06:57:38Z</time></trkpt><trkpt lat="44.5511394506382" lon="10.896057010716834"><ele>92.5</ele><time>2026-04-06T06:57:40Z</time></trkpt><trkpt lat="44.55108254486628" lon="10.896206508203807"><ele>92.75</ele><time>2026-04-06T06:57:42Z</time></trkpt><trkpt lat="44.55103770029493" lon="10.896342161520344"><ele>93.0</ele><time>2026-04-06T06:57:44Z</time></trkpt><trkpt lat="44.55098860724947" lon="10.896478444836358"><ele>93.0</ele><time>2026-04-06T06:57:46Z</time></trkpt><trkpt lat="44.55094502572856" lon="10.896611499262718"><ele>93.0</ele><time>2026-04-06T06:57:48Z</time></trkpt><trkpt lat="44.55089538702652" lon="10.896749696127793"><ele>93.0</ele><time>2026-04-06T06:57:50Z</time></trkpt><trkpt lat="44.55085813405855" lon="10.896876874161455"><ele>93.0</ele><time>2026-04-06T06:57:52Z</time></trkpt><trkpt lat="44.55081501151095" lon="10.896994301291324"><ele>93.0</ele><time>2026-04-06T06:57:54Z</time></trkpt><trkpt lat="44.55077249497741" lon="10.897112673074464"><ele>92.83333333333333</ele><time>2026-04-06T06:57:56Z</time></trkpt><trkpt lat="44.55073328650676" lon="10.897229221158112"><ele>92.66666666666667</ele><time>2026-04-06T06:57:57.999Z</time></trkpt><trkpt lat="44.55069767201837" lon="10.89734316415236"><ele>92.5</ele><time>2026-04-06T06:57:59.999Z</time></trkpt><trkpt lat="44.55066094117718" lon="10.897461800913835"><ele>92.33333333333334</ele><time>2026-04-06T06:58:01.999Z</time></trkpt><trkpt lat="44.550626331316835" lon="10.897570994231224"><ele>92.16666666666667</ele><time>2026-04-06T06:58:03.999Z</time></trkpt><trkpt lat="44.550585145413095" lon="10.897682971476927"><ele>92.0</ele><time>2026-04-06T06:58:05.999Z</time></trkpt><trkpt lat="44.550548357146404" lon="10.897795850788265"><ele>91.83333333333334</ele><time>2026-04-06T06:58:07.999Z</time></trkpt><trkpt lat="44.55050754509375" lon="10.897912381211222"><ele>91.66666666666667</ele><time>2026-04-06T06:58:09.999Z</time></trkpt><trkpt lat="44.55047546347669" lon="10.898028904386777"><ele>91.5</ele><time>2026-04-06T06:58:11.999Z</time></trkpt><trkpt lat="44.55044484124411" lon="10.89814210972751"><ele>91.33333333333333</ele><time>2026-04-06T06:58:13.999Z</time></trkpt><trkpt lat="44.55041160486305" lon="10.898253314059422"><ele>91.16666666666666</ele><time>2026-04-06T06:58:15.999Z</time></trkpt><trkpt lat="44.55038789690953" lon="10.898372192005532"><ele>91.0</ele><time>2026-04-06T06:58:17.999Z</time></trkpt><trkpt lat="44.550356144538306" lon="10.898492450872752"><ele>91.66666666666666</ele><time>2026-04-06T06:58:19.999Z</time></trkpt><trkpt lat="44.550317519480124" lon="10.898608607258423"><ele>92.33333333333333</ele><time>2026-04-06T06:58:21.999Z</time></trkpt><trkpt lat="44.550256030635694" lon="10.898693865615153"><ele>93.0</ele><time>2026-04-06T06:58:23.999Z</time></trkpt><trkpt lat="44.550201362762934" lon="10.89879153696764"><ele>93.66666666666667</ele><time>2026-04-06T06:58:25.999Z</time></trkpt><trkpt lat="44.55018886678815" lon="10.898910135385064"><ele>94.33333333333334</ele><time>2026-04-06T06:58:27.999Z</time></trkpt><trkpt lat="44.550186149630875" lon="10.899030802580205"><ele>95.0</ele><time>2026-04-06T06:58:29.999Z</time></trkpt><trkpt lat="44.55012230914728" lon="10.899185891346658"><ele>94.83333333333334</ele><time>2026-04-06T06:58:32.999Z</time></trkpt><trkpt lat="44.550075897229405" lon="10.899291125191773"><ele>94.66666666666667</ele><time>2026-04-06T06:58:34.999Z</time></trkpt><trkpt lat="44.55002454801552" lon="10.899383445621623"><ele>94.5</ele><time>2026-04-06T06:58:36.999Z</time></trkpt><trkpt lat="44.5499829772124" lon="10.899494793199123"><ele>94.33333333333333</ele><time>2026-04-06T06:58:38.999Z</time></trkpt><trkpt lat="44.549940139870685" lon="10.899602620008853"><ele>94.16666666666666</ele><time>2026-04-06T06:58:40.999Z</time></trkpt><trkpt lat="44.549913907051845" lon="10.899711817963638"><ele>94.0</ele><time>2026-04-06T06:58:42.999Z</time></trkpt><trkpt lat="44.54987236796925" lon="10.899832781043326"><ele>94.0</ele><time>2026-04-06T06:58:44.999Z</time></trkpt><trkpt lat="44.54983411630125" lon="10.899941176016695"><ele>94.0</ele><time>2026-04-06T06:58:46.999Z</time></trkpt><trkpt lat="44.54979738532037" lon="10.900060264907793"><ele>94.0</ele><time>2026-04-06T06:58:48.999Z</time></trkpt><trkpt lat="44.54975599273375" lon="10.90017150802612"><ele>94.0</ele><time>2026-04-06T06:58:50.999Z</time></trkpt><trkpt lat="44.5497153323495" lon="10.900287679613966"><ele>94.0</ele><time>2026-04-06T06:58:52.999Z</time></trkpt><trkpt lat="44.54967888575974" lon="10.900404601866699"><ele>94.0</ele><time>2026-04-06T06:58:54.999Z</time></trkpt><trkpt lat="44.54963934298126" lon="10.900525599894998"><ele>94.0</ele><time>2026-04-06T06:58:57Z</time></trkpt><trkpt lat="44.549608750779164" lon="10.900636116071569"><ele>94.0</ele><time>2026-04-06T06:58:59Z</time></trkpt><trkpt lat="44.54957316461031" lon="10.900758291415533"><ele>94.0</ele><time>2026-04-06T06:59:01Z</time></trkpt><trkpt lat="44.54953660101902" lon="10.900870307830216"><ele>94.0</ele><time>2026-04-06T06:59:03Z</time></trkpt><trkpt lat="44.549494735896175" lon="10.900989961646351"><ele>94.16666666666666</ele><time>2026-04-06T06:59:05Z</time></trkpt><trkpt lat="44.549461310115234" lon="10.901120857329722"><ele>94.33333333333333</ele><time>2026-04-06T06:59:07Z</time></trkpt><trkpt lat="44.549423386056716" lon="10.90122824351571"><ele>94.5</ele><time>2026-04-06T06:59:09Z</time></trkpt><trkpt lat="44.54939341257012" lon="10.901331771762322"><ele>94.66666666666667</ele><time>2026-04-06T06:59:11Z</time></trkpt><trkpt lat="44.54934091888246" lon="10.901427190014013"><ele>94.83333333333334</ele><time>2026-04-06T06:59:13Z</time></trkpt><trkpt lat="44.549292071455675" lon="10.90151628814905"><ele>95.0</ele><time>2026-04-06T06:59:15Z</time></trkpt><trkpt lat="44.54927082423866" lon="10.901636179127806"><ele>95.0</ele><time>2026-04-06T06:59:17Z</time></trkpt><trkpt lat="44.54927969419199" lon="10.901759197657158"><ele>95.0</ele><time>2026-04-06T06:59:19Z</time></trkpt><trkpt lat="44.54926127109229" lon="10.901897715224655"><ele>95.0</ele><time>2026-04-06T06:59:21Z</time></trkpt><trkpt lat="44.54921250424943" lon="10.902018993015764"><ele>95.0</ele><time>2026-04-06T06:59:23Z</time></trkpt><trkpt lat="44.54915321148878" lon="10.902149656419386"><ele>95.0</ele><time>2026-04-06T06:59:25Z</time></trkpt><trkpt lat="44.54909101778275" lon="10.902288073183646"><ele>95.0</ele><time>2026-04-06T06:59:27Z</time></trkpt><trkpt lat="44.54905509591795" lon="10.902361889790296"><ele>95.0</ele><time>2026-04-06T06:59:28Z</time></trkpt><trkpt lat="44.5489930048281" lon="10.902497431670245"><ele>95.0</ele><time>2026-04-06T06:59:30Z</time></trkpt><trkpt lat="44.54893826991505" lon="10.902635904182706"><ele>95.0</ele><time>2026-04-06T06:59:32Z</time></trkpt><trkpt lat="44.54888774482082" lon="10.902777052084682"><ele>95.0</ele><time>2026-04-06T06:59:34Z</time></trkpt><trkpt lat="44.548839124799834" lon="10.902920243860347"><ele>94.8</ele><time>2026-04-06T06:59:36Z</time></trkpt><trkpt lat="44.548790363413914" lon="10.903059487248845"><ele>94.6</ele><time>2026-04-06T06:59:38Z</time></trkpt><trkpt lat="44.54875112349813" lon="10.90319720909235"><ele>94.4</ele><time>2026-04-06T06:59:40Z</time></trkpt><trkpt lat="44.54870116935481" lon="10.903324830248607"><ele>94.2</ele><time>2026-04-06T06:59:42Z</time></trkpt><trkpt lat="44.5486509418935" lon="10.903462856597848"><ele>94.0</ele><time>2026-04-06T06:59:44Z</time></trkpt><trkpt lat="44.54861147558981" lon="10.903602297214702"><ele>93.80000000000001</ele><time>2026-04-06T06:59:46Z</time></trkpt><trkpt lat="44.54856952690939" lon="10.903745510097353"><ele>93.60000000000001</ele><time>2026-04-06T06:59:48Z</time></trkpt><trkpt lat="44.548528913107" lon="10.903887337538011"><ele>93.4</ele><time>2026-04-06T06:59:50Z</time></trkpt><trkpt lat="44.54847960208665" lon="10.904000202179153"><ele>93.2</ele><time>2026-04-06T06:59:52Z</time></trkpt><trkpt lat="44.54838938149069" lon="10.904082579840233"><ele>93.0</ele><time>2026-04-06T06:59:54Z</time></trkpt><trkpt lat="44.54834830293695" lon="10.904221419937645"><ele>93.0</ele><time>2026-04-06T06:59:56Z</time></trkpt><trkpt lat="44.54831446641684" lon="10.904349979432055"><ele>93.0</ele><time>2026-04-06T06:59:58Z</time></trkpt><trkpt lat="44.54827830988919" lon="10.904446296022062"><ele>93.0</ele><time>2026-04-06T07:00:00Z</time></trkpt><trkpt lat="44.548235518367235" lon="10.904589885720256"><ele>93.0</ele><time>2026-04-06T07:00:02Z</time></trkpt><trkpt lat="44.54820119984461" lon="10.90471595670764"><ele>93.0</ele><time>2026-04-06T07:00:04Z</time></trkpt><trkpt lat="44.5481686033266" lon="10.904793497985459"><ele>93.0</ele><time>2026-04-06T07:00:04.999Z</time></trkpt><trkpt lat="44.548133669114186" lon="10.90488697173415"><ele>93.0</ele><time>2026-04-06T07:00:06.999Z</time></trkpt><trkpt lat="44.548101074772745" lon="10.905026471066169"><ele>93.0</ele><time>2026-04-06T07:00:08.999Z</time></trkpt><trkpt lat="44.548052150509655" lon="10.90516627306618"><ele>93.0</ele><time>2026-04-06T07:00:10.999Z</time></trkpt><trkpt lat="44.54802346141976" lon="10.905293998251436"><ele>93.0</ele><time>2026-04-06T07:00:12.999Z</time></trkpt><trkpt lat="44.5479862409189" lon="10.905416994737134"><ele>93.0</ele><time>2026-04-06T07:00:14.999Z</time></trkpt><trkpt lat="44.54794567400889" lon="10.905521212372642"><ele>92.83333333333333</ele><time>2026-04-06T07:00:16.999Z</time></trkpt><trkpt lat="44.547907332633685" lon="10.90560426003449"><ele>92.66666666666667</ele><time>2026-04-06T07:00:18.999Z</time></trkpt><trkpt lat="44.54788047054905" lon="10.905688732220286"><ele>92.5</ele><time>2026-04-06T07:00:20.999Z</time></trkpt><trkpt lat="44.54783960822816" lon="10.90581723014391"><ele>92.33333333333334</ele><time>2026-04-06T07:00:22.999Z</time></trkpt><trkpt lat="44.54780876127599" lon="10.90591423324168"><ele>92.16666666666667</ele><time>2026-04-06T07:00:24.999Z</time></trkpt><trkpt lat="44.54778765203874" lon="10.906060296961092"><ele>92.0</ele><time>2026-04-06T07:00:27.999Z</time></trkpt><trkpt lat="44.54772895313627" lon="10.906173187063334"><ele>92.19999999999999</ele><time>2026-04-06T07:00:29.999Z</time></trkpt><trkpt lat="44.54769048290813" lon="10.906304831113838"><ele>92.4</ele><time>2026-04-06T07:00:31.999Z</time></trkpt><trkpt lat="44.54765297909873" lon="10.906417072230704"><ele>92.6</ele><time>2026-04-06T07:00:33.999Z</time></trkpt><trkpt lat="44.54761692809246" lon="10.906516700805295"><ele>92.80000000000001</ele><time>2026-04-06T07:00:35.999Z</time></trkpt><trkpt lat="44.54757591211892" lon="10.906633633584963"><ele>93.0</ele><time>2026-04-06T07:00:37.999Z</time></trkpt><trkpt lat="44.54753722093263" lon="10.906753870971453"><ele>93.0</ele><time>2026-04-06T07:00:39.999Z</time></trkpt><trkpt lat="44.547508277069824" lon="10.906879618981561"><ele>93.0</ele><time>2026-04-06T07:00:41.999Z</time></trkpt><trkpt lat="44.54746548285102" lon="10.907002152226791"><ele>93.0</ele><time>2026-04-06T07:00:43.999Z</time></trkpt><trkpt lat="44.54742250824434" lon="10.907114204990839"><ele>93.0</ele><time>2026-04-06T07:00:45.999Z</time></trkpt><trkpt lat="44.54738307956285" lon="10.9072423707729"><ele>93.0</ele><time>2026-04-06T07:00:47.999Z</time></trkpt><trkpt lat="44.54734873934877" lon="10.90736467543033"><ele>93.0</ele><time>2026-04-06T07:00:49.999Z</time></trkpt><trkpt lat="44.54731386605585" lon="10.907483806177963"><ele>93.0</ele><time>2026-04-06T07:00:51.999Z</time></trkpt><trkpt lat="44.54727906267104" lon="10.907597035312822"><ele>93.0</ele><time>2026-04-06T07:00:53.999Z</time></trkpt><trkpt lat="44.54723575543569" lon="10.907717751525396"><ele>93.0</ele><time>2026-04-06T07:00:55.999Z</time></trkpt><trkpt lat="44.54720208540155" lon="10.907813098674236"><ele>93.0</ele><time>2026-04-06T07:00:57.999Z</time></trkpt><trkpt lat="44.547182434497536" lon="10.907898288624027"><ele>93.0</ele><time>2026-04-06T07:00:58.999Z</time></trkpt><trkpt lat="44.54714333721513" lon="10.908021975785621"><ele>92.80000000000001</ele><time>2026-04-06T07:01:00.999Z</time></trkpt><trkpt lat="44.547096938308606" lon="10.908147156697106"><ele>92.6</ele><time>2026-04-06T07:01:03Z</time></trkpt><trkpt lat="44.547067961517506" lon="10.908267822361683"><ele>92.4</ele><time>2026-04-06T07:01:05Z</time></trkpt><trkpt lat="44.54702651111681" lon="10.908403778646521"><ele>92.19999999999999</ele><time>2026-04-06T07:01:07Z</time></trkpt><trkpt lat="44.54698745024849" lon="10.908519389307008"><ele>92.0</ele><time>2026-04-06T07:01:09Z</time></trkpt><trkpt lat="44.546947232794174" lon="10.908647940652104"><ele>92.8</ele><time>2026-04-06T07:01:11Z</time></trkpt><trkpt lat="44.54692024403695" lon="10.908772982153199"><ele>93.6</ele><time>2026-04-06T07:01:13Z</time></trkpt><trkpt lat="44.5468783111217" lon="10.90887968501411"><ele>94.39999999999999</ele><time>2026-04-06T07:01:15Z</time></trkpt><trkpt lat="44.54685066646492" lon="10.908986151440542"><ele>95.19999999999999</ele><time>2026-04-06T07:01:17Z</time></trkpt><trkpt lat="44.546801964523176" lon="10.909110989608978"><ele>96.0</ele><time>2026-04-06T07:01:19Z</time></trkpt><trkpt lat="44.54676386309175" lon="10.909244910026075"><ele>96.0</ele><time>2026-04-06T07:01:21Z</time></trkpt><trkpt lat="44.54671838976017" lon="10.90937614786843"><ele>96.0</ele><time>2026-04-06T07:01:23Z</time></trkpt><trkpt lat="44.54667712135778" lon="10.90948515298897"><ele>96.0</ele><time>2026-04-06T07:01:25Z</time></trkpt><trkpt lat="44.546639827467686" lon="10.909588582933912"><ele>96.0</ele><time>2026-04-06T07:01:27Z</time></trkpt><trkpt lat="44.54661046459905" lon="10.909708386078226"><ele>96.0</ele><time>2026-04-06T07:01:29Z</time></trkpt><trkpt lat="44.54658088889839" lon="10.909799823808148"><ele>96.0</ele><time>2026-04-06T07:01:31Z</time></trkpt><trkpt lat="44.546542081491786" lon="10.909925253842752"><ele>96.0</ele><time>2026-04-06T07:01:33Z</time></trkpt><trkpt lat="44.546500564987966" lon="10.910031571860031"><ele>96.0</ele><time>2026-04-06T07:01:35Z</time></trkpt><trkpt lat="44.546459511244585" lon="10.910147476642724"><ele>96.0</ele><time>2026-04-06T07:01:37Z</time></trkpt><trkpt lat="44.54643894880223" lon="10.910273172440528"><ele>96.0</ele><time>2026-04-06T07:01:39Z</time></trkpt><trkpt lat="44.54640846550292" lon="10.91035772886442"><ele>96.0</ele><time>2026-04-06T07:01:41Z</time></trkpt><trkpt lat="44.54636881507859" lon="10.91043727417683"><ele>96.0</ele><time>2026-04-06T07:01:43Z</time></trkpt><trkpt lat="44.54619494702209" lon="10.910385365556424"><ele>95.5</ele><time>2026-04-06T07:01:51Z</time></trkpt><trkpt lat="44.54611516614202" lon="10.91035322386158"><ele>95.0</ele><time>2026-04-06T07:01:53Z</time></trkpt><trkpt lat="44.54604348528298" lon="10.910312610472197"><ele>94.5</ele><time>2026-04-06T07:01:55Z</time></trkpt><trkpt lat="44.54596275087683" lon="10.91032431777386"><ele>94.0</ele><time>2026-04-06T07:01:57Z</time></trkpt><trkpt lat="44.54592433855805" lon="10.9104530486312"><ele>93.5</ele><time>2026-04-06T07:01:59Z</time></trkpt><trkpt lat="44.54589062181459" lon="10.910553209394418"><ele>93.0</ele><time>2026-04-06T07:02:01Z</time></trkpt><trkpt lat="44.54585282900754" lon="10.910656677597032"><ele>93.0</ele><time>2026-04-06T07:02:03Z</time></trkpt><trkpt lat="44.54580461549829" lon="10.91075692824604"><ele>93.0</ele><time>2026-04-06T07:02:05Z</time></trkpt><trkpt lat="44.54575155560915" lon="10.9108808367583"><ele>93.0</ele><time>2026-04-06T07:02:07Z</time></trkpt><trkpt lat="44.5457255849573" lon="10.911027602905403"><ele>93.0</ele><time>2026-04-06T07:02:09Z</time></trkpt><trkpt lat="44.54579188881246" lon="10.911124429784369"><ele>93.0</ele><time>2026-04-06T07:02:10.999Z</time></trkpt><trkpt lat="44.545880135406776" lon="10.911201075635457"><ele>92.2</ele><time>2026-04-06T07:02:12.999Z</time></trkpt><trkpt lat="44.54596571090927" lon="10.911285473537301"><ele>91.4</ele><time>2026-04-06T07:02:14.999Z</time></trkpt><trkpt lat="44.54596944536439" lon="10.911432829977878"><ele>90.60000000000001</ele><time>2026-04-06T07:02:16.999Z</time></trkpt><trkpt lat="44.545974637982" lon="10.911619609366067"><ele>89.80000000000001</ele><time>2026-04-06T07:02:18.999Z</time></trkpt><trkpt lat="44.54593119930176" lon="10.911739362760194"><ele>89.0</ele><time>2026-04-06T07:02:20.999Z</time></trkpt><trkpt lat="44.54588058762594" lon="10.911878123741952"><ele>88.80000000000001</ele><time>2026-04-06T07:02:22.999Z</time></trkpt><trkpt lat="44.54583380312372" lon="10.912006469492246"><ele>88.60000000000001</ele><time>2026-04-06T07:02:24.999Z</time></trkpt><trkpt lat="44.54578414383742" lon="10.912143648746532"><ele>88.4</ele><time>2026-04-06T07:02:26.999Z</time></trkpt><trkpt lat="44.54573728752796" lon="10.91227337783551"><ele>88.2</ele><time>2026-04-06T07:02:28.999Z</time></trkpt><trkpt lat="44.545686755899126" lon="10.912415751646531"><ele>88.0</ele><time>2026-04-06T07:02:30.999Z</time></trkpt><trkpt lat="44.545657583968314" lon="10.91249794408379"><ele>88.2</ele><time>2026-04-06T07:02:31.999Z</time></trkpt><trkpt lat="44.54560983587568" lon="10.91263199803321"><ele>88.4</ele><time>2026-04-06T07:02:33.999Z</time></trkpt><trkpt lat="44.54556184931425" lon="10.912764778271256"><ele>88.60000000000001</ele><time>2026-04-06T07:02:35.999Z</time></trkpt><trkpt lat="44.54551389393194" lon="10.91289755221584"><ele>88.80000000000001</ele><time>2026-04-06T07:02:37.999Z</time></trkpt><trkpt lat="44.54547048628179" lon="10.913018492753844"><ele>89.0</ele><time>2026-04-06T07:02:39.999Z</time></trkpt><trkpt lat="44.54543907479329" lon="10.913105870035423"><ele>89.0</ele><time>2026-04-06T07:02:41.999Z</time></trkpt><trkpt lat="44.545226615863754" lon="10.912928160618879"><ele>89.0</ele><time>2026-04-06T07:02:44.999Z</time></trkpt><trkpt lat="44.545168978256186" lon="10.912858885872428"><ele>89.0</ele><time>2026-04-06T07:02:46.999Z</time></trkpt><trkpt lat="44.54508786655416" lon="10.912799193731765"><ele>89.0</ele><time>2026-04-06T07:02:48.999Z</time></trkpt><trkpt lat="44.54501250382965" lon="10.912727921263752"><ele>89.0</ele><time>2026-04-06T07:02:50.999Z</time></trkpt><trkpt lat="44.544925187953424" lon="10.912653661631003"><ele>89.0</ele><time>2026-04-06T07:02:52.999Z</time></trkpt><trkpt lat="44.544845383179734" lon="10.912588828299024"><ele>89.0</ele><time>2026-04-06T07:02:54.999Z</time></trkpt><trkpt lat="44.54476893818031" lon="10.912514892317699"><ele>89.0</ele><time>2026-04-06T07:02:56.999Z</time></trkpt><trkpt lat="44.5447068794909" lon="10.91244330443419"><ele>89.0</ele><time>2026-04-06T07:02:58.999Z</time></trkpt><trkpt lat="44.544634082443956" lon="10.912373828941977"><ele>89.2</ele><time>2026-04-06T07:03:00.999Z</time></trkpt><trkpt lat="44.54456479909118" lon="10.91231126680261"><ele>89.4</ele><time>2026-04-06T07:03:02.999Z</time></trkpt><trkpt lat="44.544495221961576" lon="10.912239895353645"><ele>89.6</ele><time>2026-04-06T07:03:04.999Z</time></trkpt><trkpt lat="44.54440023719022" lon="10.912182787827213"><ele>89.8</ele><time>2026-04-06T07:03:06.999Z</time></trkpt><trkpt lat="44.544307383026116" lon="10.912132527330872"><ele>90.0</ele><time>2026-04-06T07:03:09Z</time></trkpt><trkpt lat="44.5442004404825" lon="10.912105112115764"><ele>90.0</ele><time>2026-04-06T07:03:11Z</time></trkpt><trkpt lat="44.54411030873832" lon="10.912067787655918"><ele>90.0</ele><time>2026-04-06T07:03:13Z</time></trkpt><trkpt lat="44.544013255599175" lon="10.912056210464128"><ele>90.0</ele><time>2026-04-06T07:03:15Z</time></trkpt><trkpt lat="44.54392930090881" lon="10.912001596400819"><ele>90.0</ele><time>2026-04-06T07:03:17Z</time></trkpt><trkpt lat="44.54385467564398" lon="10.911930763651522"><ele>90.0</ele><time>2026-04-06T07:03:19Z</time></trkpt><trkpt lat="44.54375095513642" lon="10.911880848784351"><ele>90.2</ele><time>2026-04-06T07:03:21Z</time></trkpt><trkpt lat="44.54365440488736" lon="10.91181280700284"><ele>90.4</ele><time>2026-04-06T07:03:23Z</time></trkpt><trkpt lat="44.543582709263355" lon="10.91174256052934"><ele>90.6</ele><time>2026-04-06T07:03:25Z</time></trkpt><trkpt lat="44.54349629323656" lon="10.911662119701335"><ele>90.8</ele><time>2026-04-06T07:03:27Z</time></trkpt><trkpt lat="44.54341484887737" lon="10.911590036064746"><ele>91.0</ele><time>2026-04-06T07:03:29Z</time></trkpt><trkpt lat="44.543334213861016" lon="10.911518115455253"><ele>91.0</ele><time>2026-04-06T07:03:31Z</time></trkpt><trkpt lat="44.54324460771023" lon="10.9114459132523"><ele>91.0</ele><time>2026-04-06T07:03:33Z</time></trkpt><trkpt lat="44.54316779996892" lon="10.911367760779944"><ele>91.0</ele><time>2026-04-06T07:03:35Z</time></trkpt><trkpt lat="44.54309874984753" lon="10.911295913158684"><ele>91.0</ele><time>2026-04-06T07:03:37Z</time></trkpt><trkpt lat="44.54302484370427" lon="10.911207596420228"><ele>91.0</ele><time>2026-04-06T07:03:39Z</time></trkpt><trkpt lat="44.542956796839604" lon="10.911133286821196"><ele>91.0</ele><time>2026-04-06T07:03:41Z</time></trkpt><trkpt lat="44.542888048792456" lon="10.91105293012582"><ele>91.0</ele><time>2026-04-06T07:03:43Z</time></trkpt><trkpt lat="44.54282866809348" lon="10.910962839929207"><ele>91.0</ele><time>2026-04-06T07:03:45Z</time></trkpt><trkpt lat="44.542773491892255" lon="10.910867528372497"><ele>91.0</ele><time>2026-04-06T07:03:47Z</time></trkpt><trkpt lat="44.54272171377724" lon="10.910776545379406"><ele>91.0</ele><time>2026-04-06T07:03:49Z</time></trkpt><trkpt lat="44.54265520315614" lon="10.910675090476419"><ele>91.0</ele><time>2026-04-06T07:03:51Z</time></trkpt><trkpt lat="44.542602866674585" lon="10.910569995748945"><ele>91.19999999999999</ele><time>2026-04-06T07:03:53Z</time></trkpt><trkpt lat="44.542526155233" lon="10.910499884602359"><ele>91.39999999999999</ele><time>2026-04-06T07:03:55Z</time></trkpt><trkpt lat="44.54246422485422" lon="10.910399340911944"><ele>91.6</ele><time>2026-04-06T07:03:57Z</time></trkpt><trkpt lat="44.54242182807969" lon="10.910282844889027"><ele>91.8</ele><time>2026-04-06T07:03:59Z</time></trkpt><trkpt lat="44.54237477660078" lon="10.910182027337775"><ele>92.0</ele><time>2026-04-06T07:04:01Z</time></trkpt><trkpt lat="44.54231989161651" lon="10.910087071201142"><ele>92.5</ele><time>2026-04-06T07:04:03Z</time></trkpt><trkpt lat="44.542256339865396" lon="10.909997808963782"><ele>93.0</ele><time>2026-04-06T07:04:05Z</time></trkpt><trkpt lat="44.54218049395141" lon="10.909915621750153"><ele>93.5</ele><time>2026-04-06T07:04:07Z</time></trkpt><trkpt lat="44.54210947794624" lon="10.909829612688387"><ele>94.0</ele><time>2026-04-06T07:04:09Z</time></trkpt><trkpt lat="44.54203338612245" lon="10.909785596108145"><ele>94.5</ele><time>2026-04-06T07:04:10.999Z</time></trkpt><trkpt lat="44.54198134611401" lon="10.909731368272054"><ele>95.0</ele><time>2026-04-06T07:04:12.999Z</time></trkpt><trkpt lat="44.54192164616383" lon="10.909676860427613"><ele>95.16666666666667</ele><time>2026-04-06T07:04:14.999Z</time></trkpt><trkpt lat="44.541874198620036" lon="10.909590480621524"><ele>95.33333333333334</ele><time>2026-04-06T07:04:16.999Z</time></trkpt><trkpt lat="44.54186062172299" lon="10.909490093269692"><ele>95.5</ele><time>2026-04-06T07:04:18.999Z</time></trkpt><trkpt lat="44.54182330233847" lon="10.909395198440473"><ele>95.66666666666667</ele><time>2026-04-06T07:04:20.999Z</time></trkpt><trkpt lat="44.54175266749278" lon="10.90934797597843"><ele>95.83333333333333</ele><time>2026-04-06T07:04:22.999Z</time></trkpt><trkpt lat="44.54168510808521" lon="10.909311629546233"><ele>96.0</ele><time>2026-04-06T07:04:24.999Z</time></trkpt><trkpt lat="44.541608746343634" lon="10.90924339014791"><ele>96.0</ele><time>2026-04-06T07:04:26.999Z</time></trkpt><trkpt lat="44.54155053769427" lon="10.909167428063727"><ele>96.0</ele><time>2026-04-06T07:04:28.999Z</time></trkpt><trkpt lat="44.541479043101" lon="10.909081604022475"><ele>96.0</ele><time>2026-04-06T07:04:30.999Z</time></trkpt><trkpt lat="44.541389896262615" lon="10.908996745950784"><ele>96.0</ele><time>2026-04-06T07:04:33.999Z</time></trkpt><trkpt lat="44.54133576377806" lon="10.908936389320198"><ele>96.0</ele><time>2026-04-06T07:04:35.999Z</time></trkpt><trkpt lat="44.54127780626136" lon="10.908862713639929"><ele>96.0</ele><time>2026-04-06T07:04:37.999Z</time></trkpt><trkpt lat="44.54118827960894" lon="10.908774077552529"><ele>96.4</ele><time>2026-04-06T07:04:39.999Z</time></trkpt><trkpt lat="44.54110472184896" lon="10.908660032196803"><ele>96.8</ele><time>2026-04-06T07:04:41.999Z</time></trkpt><trkpt lat="44.541020227342" lon="10.908590620475815"><ele>97.2</ele><time>2026-04-06T07:04:43.999Z</time></trkpt><trkpt lat="44.540947752997326" lon="10.90850722875213"><ele>97.60000000000001</ele><time>2026-04-06T07:04:45.999Z</time></trkpt><trkpt lat="44.54089498235249" lon="10.908413606988198"><ele>98.0</ele><time>2026-04-06T07:04:48.999Z</time></trkpt><trkpt lat="44.54082165007698" lon="10.908378662999752"><ele>97.99999999999999</ele><time>2026-04-06T07:04:50.999Z</time></trkpt><trkpt lat="44.54075818146719" lon="10.908362913103707"><ele>98.0</ele><time>2026-04-06T07:04:52.999Z</time></trkpt><trkpt lat="44.540679180085355" lon="10.90828559150272"><ele>98.0</ele><time>2026-04-06T07:04:54.999Z</time></trkpt><trkpt lat="44.54061630230889" lon="10.908209006123073"><ele>98.0</ele><time>2026-04-06T07:04:56.999Z</time></trkpt><trkpt lat="44.54056132078232" lon="10.908134968164944"><ele>97.99999999999999</ele><time>2026-04-06T07:04:58.999Z</time></trkpt><trkpt lat="44.54050436410434" lon="10.90806660748851"><ele>98.0</ele><time>2026-04-06T07:05:00.999Z</time></trkpt><trkpt lat="44.54045765707534" lon="10.907993647052786"><ele>98.0</ele><time>2026-04-06T07:05:02.999Z</time></trkpt><trkpt lat="44.540403677116494" lon="10.907940095625937"><ele>98.0</ele><time>2026-04-06T07:05:04.999Z</time></trkpt><trkpt lat="44.54035547003693" lon="10.907868070505272"><ele>98.0</ele><time>2026-04-06T07:05:06.999Z</time></trkpt><trkpt lat="44.540304610082565" lon="10.90778973481486"><ele>98.0</ele><time>2026-04-06T07:05:08.999Z</time></trkpt><trkpt lat="44.540258246092726" lon="10.90771798269667"><ele>98.0</ele><time>2026-04-06T07:05:10.999Z</time></trkpt><trkpt lat="44.5401812905868" lon="10.907638578774252"><ele>98.0</ele><time>2026-04-06T07:05:13.999Z</time></trkpt><trkpt lat="44.54013100634839" lon="10.907580852288106"><ele>98.0</ele><time>2026-04-06T07:05:16Z</time></trkpt><trkpt lat="44.540083378742914" lon="10.90750870424649"><ele>98.33333333333333</ele><time>2026-04-06T07:05:18Z</time></trkpt><trkpt lat="44.54002263866792" lon="10.907423983117399"><ele>98.66666666666666</ele><time>2026-04-06T07:05:21Z</time></trkpt><trkpt lat="44.539963026002525" lon="10.907360670095528"><ele>99.0</ele><time>2026-04-06T07:05:24Z</time></trkpt><trkpt lat="44.539897373591636" lon="10.907266323714113"><ele>99.33333333333334</ele><time>2026-04-06T07:05:27Z</time></trkpt><trkpt lat="44.53983838682378" lon="10.907204136562802"><ele>99.66666666666667</ele><time>2026-04-06T07:05:29Z</time></trkpt><trkpt lat="44.53978343903797" lon="10.907134636781375"><ele>100.0</ele><time>2026-04-06T07:05:31Z</time></trkpt><trkpt lat="44.53970653209627" lon="10.9070643633781"><ele>100.00000000000001</ele><time>2026-04-06T07:05:33Z</time></trkpt><trkpt lat="44.53965212163825" lon="10.906998693424821"><ele>100.0</ele><time>2026-04-06T07:05:36Z</time></trkpt><trkpt lat="44.539613636778554" lon="10.90692369657264"><ele>100.0</ele><time>2026-04-06T07:05:38Z</time></trkpt><trkpt lat="44.53953909862756" lon="10.906842411632748"><ele>100.0</ele><time>2026-04-06T07:05:41Z</time></trkpt><trkpt lat="44.539470973766626" lon="10.906754230637846"><ele>100.00000000000001</ele><time>2026-04-06T07:05:43Z</time></trkpt><trkpt lat="44.53940365781878" lon="10.90666309590211"><ele>100.0</ele><time>2026-04-06T07:05:45Z</time></trkpt><trkpt lat="44.5393468914022" lon="10.906579248385357"><ele>100.0</ele><time>2026-04-06T07:05:47Z</time></trkpt><trkpt lat="44.53927567051995" lon="10.906485023079679"><ele>100.0</ele><time>2026-04-06T07:05:49Z</time></trkpt><trkpt lat="44.53922342248002" lon="10.906378945461608"><ele>100.0</ele><time>2026-04-06T07:05:51Z</time></trkpt><trkpt lat="44.53916888250406" lon="10.906281113812023"><ele>100.0</ele><time>2026-04-06T07:05:53Z</time></trkpt><trkpt lat="44.53910200492639" lon="10.90619376105285"><ele>100.0</ele><time>2026-04-06T07:05:55Z</time></trkpt><trkpt lat="44.53903881635046" lon="10.90612028097128"><ele>100.00000000000001</ele><time>2026-04-06T07:05:57Z</time></trkpt><trkpt lat="44.53898062512394" lon="10.906044926083732"><ele>100.0</ele><time>2026-04-06T07:05:59Z</time></trkpt><trkpt lat="44.53893299971877" lon="10.905951907167731"><ele>100.0</ele><time>2026-04-06T07:06:01Z</time></trkpt><trkpt lat="44.538865372442615" lon="10.905871823693571"><ele>100.0</ele><time>2026-04-06T07:06:03Z</time></trkpt><trkpt lat="44.53879201961123" lon="10.905815806350152"><ele>100.00000000000001</ele><time>2026-04-06T07:06:05Z</time></trkpt><trkpt lat="44.53869959258507" lon="10.905806596785485"><ele>100.0</ele><time>2026-04-06T07:06:08Z</time></trkpt><trkpt lat="44.53860358060883" lon="10.905768831024304"><ele>99.8</ele><time>2026-04-06T07:06:10Z</time></trkpt><trkpt lat="44.538525535237454" lon="10.905658553184315"><ele>99.6</ele><time>2026-04-06T07:06:12Z</time></trkpt><trkpt lat="44.538446285331325" lon="10.905560072874314"><ele>99.4</ele><time>2026-04-06T07:06:13.999Z</time></trkpt><trkpt lat="44.53835685882549" lon="10.905471672434242"><ele>99.2</ele><time>2026-04-06T07:06:15.999Z</time></trkpt><trkpt lat="44.538277066423" lon="10.90539160290593"><ele>99.0</ele><time>2026-04-06T07:06:17.999Z</time></trkpt><trkpt lat="44.53820350378748" lon="10.905308265060917"><ele>99.0</ele><time>2026-04-06T07:06:19.999Z</time></trkpt><trkpt lat="44.53812309091674" lon="10.905235135022734"><ele>99.0</ele><time>2026-04-06T07:06:21.999Z</time></trkpt><trkpt lat="44.53802485187176" lon="10.90522803288416"><ele>99.0</ele><time>2026-04-06T07:06:23.999Z</time></trkpt><trkpt lat="44.53792183190832" lon="10.905187896379763"><ele>99.0</ele><time>2026-04-06T07:06:25.999Z</time></trkpt><trkpt lat="44.537825838404714" lon="10.905095749736102"><ele>99.0</ele><time>2026-04-06T07:06:27.999Z</time></trkpt><trkpt lat="44.53777315456941" lon="10.905045420309907"><ele>99.5</ele><time>2026-04-06T07:06:28.999Z</time></trkpt><trkpt lat="44.53766486823789" lon="10.904960462735808"><ele>100.0</ele><time>2026-04-06T07:06:30.999Z</time></trkpt><trkpt lat="44.53756951617192" lon="10.904864852583467"><ele>100.5</ele><time>2026-04-06T07:06:32.999Z</time></trkpt><trkpt lat="44.537469277034084" lon="10.904774476401244"><ele>101.0</ele><time>2026-04-06T07:06:34.999Z</time></trkpt><trkpt lat="44.537386098811346" lon="10.904704622004239"><ele>101.0</ele><time>2026-04-06T07:06:36.999Z</time></trkpt><trkpt lat="44.53730287313184" lon="10.904625333640341"><ele>101.0</ele><time>2026-04-06T07:06:38.999Z</time></trkpt><trkpt lat="44.53722047517603" lon="10.904542481547415"><ele>101.0</ele><time>2026-04-06T07:06:40.999Z</time></trkpt><trkpt lat="44.53714674532368" lon="10.90451068276609"><ele>101.0</ele><time>2026-04-06T07:06:42.999Z</time></trkpt><trkpt lat="44.537042424126895" lon="10.904483852125953"><ele>101.0</ele><time>2026-04-06T07:06:44.999Z</time></trkpt><trkpt lat="44.536946467597396" lon="10.904427284492998"><ele>100.8</ele><time>2026-04-06T07:06:46.999Z</time></trkpt><trkpt lat="44.536885040252464" lon="10.904324536705376"><ele>100.6</ele><time>2026-04-06T07:06:48.999Z</time></trkpt><trkpt lat="44.53682173737585" lon="10.904247853947481"><ele>100.4</ele><time>2026-04-06T07:06:50.999Z</time></trkpt><trkpt lat="44.53673721253495" lon="10.904156079201497"><ele>100.2</ele><time>2026-04-06T07:06:52.999Z</time></trkpt><trkpt lat="44.5366530617429" lon="10.904076204253675"><ele>100.0</ele><time>2026-04-06T07:06:54.999Z</time></trkpt><trkpt lat="44.53657488239545" lon="10.903994725061416"><ele>100.0</ele><time>2026-04-06T07:06:56.999Z</time></trkpt><trkpt lat="44.53648586804386" lon="10.903967203939766"><ele>100.0</ele><time>2026-04-06T07:06:58.999Z</time></trkpt><trkpt lat="44.53638545494813" lon="10.903903715451646"><ele>100.0</ele><time>2026-04-06T07:07:00.999Z</time></trkpt><trkpt lat="44.536308278091234" lon="10.903822914915404"><ele>100.0</ele><time>2026-04-06T07:07:02.999Z</time></trkpt><trkpt lat="44.53622049721398" lon="10.903709694397143"><ele>100.0</ele><time>2026-04-06T07:07:04.999Z</time></trkpt><trkpt lat="44.536151155576775" lon="10.903622081213085"><ele>100.50000000000001</ele><time>2026-04-06T07:07:06.999Z</time></trkpt><trkpt lat="44.536057157049676" lon="10.903558558868239"><ele>101.0</ele><time>2026-04-06T07:07:08.999Z</time></trkpt><trkpt lat="44.535991987269504" lon="10.903523083336276"><ele>101.5</ele><time>2026-04-06T07:07:10.999Z</time></trkpt><trkpt lat="44.53590226188829" lon="10.903490509442268"><ele>102.0</ele><time>2026-04-06T07:07:12.999Z</time></trkpt><trkpt lat="44.5358316468013" lon="10.903420740744576"><ele>102.50000000000001</ele><time>2026-04-06T07:07:14.999Z</time></trkpt><trkpt lat="44.53575714487954" lon="10.903341029608667"><ele>103.0</ele><time>2026-04-06T07:07:16.999Z</time></trkpt><trkpt lat="44.53570812727735" lon="10.903274341154363"><ele>103.00000000000001</ele><time>2026-04-06T07:07:18.999Z</time></trkpt><trkpt lat="44.5356450943897" lon="10.903177777111125"><ele>103.0</ele><time>2026-04-06T07:07:21Z</time></trkpt><trkpt lat="44.535585565158456" lon="10.903123950489855"><ele>103.0</ele><time>2026-04-06T07:07:23Z</time></trkpt><trkpt lat="44.53550593716408" lon="10.903058507576615"><ele>103.0</ele><time>2026-04-06T07:07:25Z</time></trkpt><trkpt lat="44.53542055933979" lon="10.903002075754813"><ele>103.00000000000001</ele><time>2026-04-06T07:07:27Z</time></trkpt><trkpt lat="44.53535890399105" lon="10.902928903702529"><ele>103.0</ele><time>2026-04-06T07:07:30Z</time></trkpt><trkpt lat="44.535264848123674" lon="10.902857430243028"><ele>103.16666666666667</ele><time>2026-04-06T07:07:32Z</time></trkpt><trkpt lat="44.535190111688344" lon="10.902758457596523"><ele>103.33333333333334</ele><time>2026-04-06T07:07:34Z</time></trkpt><trkpt lat="44.5351245068764" lon="10.902672440564965"><ele>103.5</ele><time>2026-04-06T07:07:36Z</time></trkpt><trkpt lat="44.53504780094159" lon="10.90260605362313"><ele>103.66666666666666</ele><time>2026-04-06T07:07:38Z</time></trkpt><trkpt lat="44.53498080347839" lon="10.902542520863069"><ele>103.83333333333333</ele><time>2026-04-06T07:07:40Z</time></trkpt><trkpt lat="44.534914195038716" lon="10.902512283877057"><ele>104.0</ele><time>2026-04-06T07:07:42Z</time></trkpt><trkpt lat="44.53482813502529" lon="10.90246636840519"><ele>104.16666666666666</ele><time>2026-04-06T07:07:44Z</time></trkpt><trkpt lat="44.53475884840591" lon="10.902409595728535"><ele>104.33333333333333</ele><time>2026-04-06T07:07:46Z</time></trkpt><trkpt lat="44.53468610211971" lon="10.902383220808252"><ele>104.5</ele><time>2026-04-06T07:07:48Z</time></trkpt><trkpt lat="44.53459291408381" lon="10.90232909127638"><ele>104.66666666666666</ele><time>2026-04-06T07:07:50Z</time></trkpt><trkpt lat="44.53450853806383" lon="10.902265135658103"><ele>104.83333333333333</ele><time>2026-04-06T07:07:52Z</time></trkpt><trkpt lat="44.53441778552083" lon="10.902217265123932"><ele>105.0</ele><time>2026-04-06T07:07:54Z</time></trkpt><trkpt lat="44.53432679987283" lon="10.902155697973235"><ele>105.2</ele><time>2026-04-06T07:07:56Z</time></trkpt><trkpt lat="44.53424912847253" lon="10.902114150094377"><ele>105.4</ele><time>2026-04-06T07:07:58Z</time></trkpt><trkpt lat="44.53415864683395" lon="10.902038354809461"><ele>105.6</ele><time>2026-04-06T07:08:00Z</time></trkpt><trkpt lat="44.53407873647102" lon="10.901969292082066"><ele>105.8</ele><time>2026-04-06T07:08:02Z</time></trkpt><trkpt lat="44.53399244987877" lon="10.901929751108236"><ele>106.0</ele><time>2026-04-06T07:08:04Z</time></trkpt><trkpt lat="44.533902858132684" lon="10.901881146041271"><ele>106.00000000000001</ele><time>2026-04-06T07:08:06Z</time></trkpt><trkpt lat="44.53382529414816" lon="10.901845317227975"><ele>106.0</ele><time>2026-04-06T07:08:08Z</time></trkpt><trkpt lat="44.533750619855105" lon="10.901809108103986"><ele>106.0</ele><time>2026-04-06T07:08:11Z</time></trkpt><trkpt lat="44.533666039627605" lon="10.901769803507486"><ele>106.0</ele><time>2026-04-06T07:08:15Z</time></trkpt><trkpt lat="44.533601974284664" lon="10.901728605094757"><ele>106.00000000000001</ele><time>2026-04-06T07:08:18.999Z</time></trkpt><trkpt lat="44.53351371235432" lon="10.901718319317403"><ele>106.0</ele><time>2026-04-06T07:08:21.999Z</time></trkpt><trkpt lat="44.53344127165871" lon="10.901676466606142"><ele>106.16666666666667</ele><time>2026-04-06T07:08:25.999Z</time></trkpt><trkpt lat="44.53336525249214" lon="10.90162128694144"><ele>106.33333333333334</ele><time>2026-04-06T07:08:28.999Z</time></trkpt><trkpt lat="44.533306900794074" lon="10.901577261666027"><ele>106.5</ele><time>2026-04-06T07:08:30.999Z</time></trkpt><trkpt lat="44.53324801960019" lon="10.901526700558827"><ele>106.66666666666666</ele><time>2026-04-06T07:08:32.999Z</time></trkpt><trkpt lat="44.533169111329876" lon="10.901466682157048"><ele>106.83333333333333</ele><time>2026-04-06T07:08:34.999Z</time></trkpt><trkpt lat="44.53308327260982" lon="10.901398242056098"><ele>107.0</ele><time>2026-04-06T07:08:36.999Z</time></trkpt><trkpt lat="44.53298296630715" lon="10.901339168342222"><ele>107.0</ele><time>2026-04-06T07:08:38.999Z</time></trkpt><trkpt lat="44.532889818750995" lon="10.901267004155399"><ele>106.99999999999999</ele><time>2026-04-06T07:08:40.999Z</time></trkpt><trkpt lat="44.53278393110449" lon="10.901237994064495"><ele>106.99999999999999</ele><time>2026-04-06T07:08:42.999Z</time></trkpt><trkpt lat="44.53268400850631" lon="10.90121874079952"><ele>107.0</ele><time>2026-04-06T07:08:44.999Z</time></trkpt><trkpt lat="44.532580227217515" lon="10.901196416962051"><ele>107.0</ele><time>2026-04-06T07:08:46.999Z</time></trkpt><trkpt lat="44.532483909607116" lon="10.90115837716007"><ele>107.0</ele><time>2026-04-06T07:08:48.999Z</time></trkpt><trkpt lat="44.5323885050638" lon="10.90109493043522"><ele>106.99999999999999</ele><time>2026-04-06T07:08:50.999Z</time></trkpt><trkpt lat="44.532302421478796" lon="10.901046489625264"><ele>106.99999999999999</ele><time>2026-04-06T07:08:52.999Z</time></trkpt><trkpt lat="44.53222366522957" lon="10.900983465531803"><ele>107.0</ele><time>2026-04-06T07:08:54.999Z</time></trkpt><trkpt lat="44.532140104126604" lon="10.900910040244245"><ele>107.0</ele><time>2026-04-06T07:08:56.999Z</time></trkpt><trkpt lat="44.53208330381381" lon="10.900815542481794"><ele>107.33333333333333</ele><time>2026-04-06T07:08:58.999Z</time></trkpt><trkpt lat="44.53203401737307" lon="10.900738169033655"><ele>107.66666666666666</ele><time>2026-04-06T07:09:00.999Z</time></trkpt><trkpt lat="44.531991536514695" lon="10.900652612583793"><ele>108.0</ele><time>2026-04-06T07:09:02.999Z</time></trkpt><trkpt lat="44.531922393233" lon="10.90055994026953"><ele>108.33333333333334</ele><time>2026-04-06T07:09:05.999Z</time></trkpt><trkpt lat="44.53185509315633" lon="10.90050240293753"><ele>108.66666666666667</ele><time>2026-04-06T07:09:07.999Z</time></trkpt><trkpt lat="44.53177514930144" lon="10.900480205097418"><ele>109.0</ele><time>2026-04-06T07:09:09.999Z</time></trkpt><trkpt lat="44.531708491972026" lon="10.900458969898356"><ele>109.00000000000001</ele><time>2026-04-06T07:09:11.999Z</time></trkpt><trkpt lat="44.53162449107986" lon="10.900429353564494"><ele>109.0</ele><time>2026-04-06T07:09:13.999Z</time></trkpt><trkpt lat="44.53155103984526" lon="10.900428542038537"><ele>109.0</ele><time>2026-04-06T07:09:15.999Z</time></trkpt><trkpt lat="44.531449209795795" lon="10.900405117840792"><ele>109.0</ele><time>2026-04-06T07:09:18.999Z</time></trkpt><trkpt lat="44.531379817459566" lon="10.90040049323908"><ele>109.00000000000001</ele><time>2026-04-06T07:09:20.999Z</time></trkpt><trkpt lat="44.53131773863468" lon="10.900421462944548"><ele>109.0</ele><time>2026-04-06T07:09:22.999Z</time></trkpt><trkpt lat="44.531255375228554" lon="10.900453804309885"><ele>109.66666666666667</ele><time>2026-04-06T07:09:24.999Z</time></trkpt><trkpt lat="44.53119410197521" lon="10.900506994966118"><ele>110.33333333333334</ele><time>2026-04-06T07:09:27Z</time></trkpt><trkpt lat="44.53114125059074" lon="10.900576618752648"><ele>111.0</ele><time>2026-04-06T07:09:29Z</time></trkpt><trkpt lat="44.53106687047047" lon="10.900655672848357"><ele>111.66666666666666</ele><time>2026-04-06T07:09:31Z</time></trkpt><trkpt lat="44.530998554646246" lon="10.900678670122625"><ele>112.33333333333333</ele><time>2026-04-06T07:09:32Z</time></trkpt><trkpt lat="44.53088621333941" lon="10.900716391458293"><ele>113.0</ele><time>2026-04-06T07:09:34Z</time></trkpt><trkpt lat="44.530782399205265" lon="10.900664778253004"><ele>113.0</ele><time>2026-04-06T07:09:36Z</time></trkpt><trkpt lat="44.53069527074372" lon="10.900623051960766"><ele>113.00000000000001</ele><time>2026-04-06T07:09:38Z</time></trkpt><trkpt lat="44.53059909207618" lon="10.900578196063213"><ele>113.00000000000001</ele><time>2026-04-06T07:09:40Z</time></trkpt><trkpt lat="44.53050389995225" lon="10.900634187974491"><ele>113.0</ele><time>2026-04-06T07:09:42Z</time></trkpt><trkpt lat="44.5304162124828" lon="10.900669948214002"><ele>113.0</ele><time>2026-04-06T07:09:44Z</time></trkpt><trkpt lat="44.53033597632852" lon="10.900685034284011"><ele>113.16666666666666</ele><time>2026-04-06T07:09:46Z</time></trkpt><trkpt lat="44.53025203011285" lon="10.900708682429524"><ele>113.33333333333333</ele><time>2026-04-06T07:09:48Z</time></trkpt><trkpt lat="44.53016670633783" lon="10.900771458186416"><ele>113.5</ele><time>2026-04-06T07:09:50Z</time></trkpt><trkpt lat="44.53008063125154" lon="10.900797049829816"><ele>113.66666666666666</ele><time>2026-04-06T07:09:52Z</time></trkpt><trkpt lat="44.53000622811239" lon="10.900825452762406"><ele>113.83333333333333</ele><time>2026-04-06T07:09:54Z</time></trkpt><trkpt lat="44.52991678144573" lon="10.900842236318288"><ele>114.0</ele><time>2026-04-06T07:09:56Z</time></trkpt><trkpt lat="44.52984641377894" lon="10.900814821960815"><ele>114.0</ele><time>2026-04-06T07:09:58Z</time></trkpt><trkpt lat="44.52976641153561" lon="10.900763423157047"><ele>114.0</ele><time>2026-04-06T07:10:00Z</time></trkpt><trkpt lat="44.52972009224527" lon="10.900672925909053"><ele>114.0</ele><time>2026-04-06T07:10:02Z</time></trkpt><trkpt lat="44.5297071070089" lon="10.900564366736491"><ele>114.0</ele><time>2026-04-06T07:10:04Z</time></trkpt><trkpt lat="44.529710642925345" lon="10.900454274203085"><ele>114.0</ele><time>2026-04-06T07:10:06Z</time></trkpt><trkpt lat="44.52972897088928" lon="10.900349724881345"><ele>114.0</ele><time>2026-04-06T07:10:09Z</time></trkpt><trkpt lat="44.52974360266805" lon="10.90025365039368"><ele>114.0</ele><time>2026-04-06T07:10:13Z</time></trkpt><trkpt lat="44.529726960007245" lon="10.900134172355344"><ele>114.0</ele><time>2026-04-06T07:10:16Z</time></trkpt><trkpt lat="44.529732217841996" lon="10.900028793258176"><ele>114.0</ele><time>2026-04-06T07:10:19Z</time></trkpt><trkpt lat="44.52973834528975" lon="10.89993010629329"><ele>114.0</ele><time>2026-04-06T07:10:21Z</time></trkpt><trkpt lat="44.52975471860739" lon="10.899810547573285"><ele>114.0</ele><time>2026-04-06T07:10:24Z</time></trkpt><trkpt lat="44.529753921670064" lon="10.89969092293168"><ele>114.0</ele><time>2026-04-06T07:10:26.999Z</time></trkpt><trkpt lat="44.529763030995014" lon="10.899558688522532"><ele>114.33333333333333</ele><time>2026-04-06T07:10:29.999Z</time></trkpt><trkpt lat="44.529765701528014" lon="10.899436330052481"><ele>114.66666666666666</ele><time>2026-04-06T07:10:32.999Z</time></trkpt><trkpt lat="44.52978509194682" lon="10.89933394561175"><ele>115.0</ele><time>2026-04-06T07:10:34.999Z</time></trkpt><trkpt lat="44.52980199179418" lon="10.899202563403424"><ele>115.33333333333333</ele><time>2026-04-06T07:10:37.999Z</time></trkpt><trkpt lat="44.52981907494658" lon="10.899115874771773"><ele>115.66666666666666</ele><time>2026-04-06T07:10:39.999Z</time></trkpt><trkpt lat="44.5298313834111" lon="10.899025337795724"><ele>116.0</ele><time>2026-04-06T07:10:41.999Z</time></trkpt><trkpt lat="44.52985028889757" lon="10.898935572925453"><ele>116.16666666666666</ele><time>2026-04-06T07:10:43.999Z</time></trkpt><trkpt lat="44.529860531986174" lon="10.89883181527137"><ele>116.33333333333333</ele><time>2026-04-06T07:10:46.999Z</time></trkpt><trkpt lat="44.5298799465305" lon="10.898733421106206"><ele>116.5</ele><time>2026-04-06T07:10:48.999Z</time></trkpt><trkpt lat="44.529901083918055" lon="10.898645748156653"><ele>116.66666666666666</ele><time>2026-04-06T07:10:50.999Z</time></trkpt><trkpt lat="44.529932677433855" lon="10.8985289825751"><ele>116.83333333333333</ele><time>2026-04-06T07:10:53.999Z</time></trkpt><trkpt lat="44.529933538160996" lon="10.898428098841594"><ele>117.0</ele><time>2026-04-06T07:10:55.999Z</time></trkpt><trkpt lat="44.529950281440385" lon="10.898306846859162"><ele>117.39999999999999</ele><time>2026-04-06T07:10:58.999Z</time></trkpt><trkpt lat="44.529968273244016" lon="10.898211652618278"><ele>117.79999999999998</ele><time>2026-04-06T07:11:00.999Z</time></trkpt><trkpt lat="44.52995088112539" lon="10.898071226330082"><ele>118.2</ele><time>2026-04-06T07:11:03.999Z</time></trkpt><trkpt lat="44.52990163798318" lon="10.897975446994034"><ele>118.6</ele><time>2026-04-06T07:11:06.999Z</time></trkpt><trkpt lat="44.52975970847038" lon="10.898032046634565"><ele>119.0</ele><time>2026-04-06T07:11:07.999Z</time></trkpt><trkpt lat="44.529717709609976" lon="10.897921696467314"><ele>119.0</ele><time>2026-04-06T07:11:10.999Z</time></trkpt><trkpt lat="44.529674821355236" lon="10.897809009383039"><ele>119.0</ele><time>2026-04-06T07:11:13.999Z</time></trkpt><trkpt lat="44.52969695056391" lon="10.89763326474381"><ele>119.0</ele><time>2026-04-06T07:11:15.999Z</time></trkpt><trkpt lat="44.52970362007555" lon="10.897521549463285"><ele>119.0</ele><time>2026-04-06T07:11:18.999Z</time></trkpt><trkpt lat="44.52983419880365" lon="10.897440166420692"><ele>119.0</ele><time>2026-04-06T07:11:21.999Z</time></trkpt><trkpt lat="44.52989224831002" lon="10.89738749959187"><ele>119.0</ele><time>2026-04-06T07:11:24.999Z</time></trkpt><trkpt lat="44.52994967196481" lon="10.897343558839465"><ele>119.0</ele><time>2026-04-06T07:11:27.999Z</time></trkpt><trkpt lat="44.53002726370247" lon="10.897314353751584"><ele>119.0</ele><time>2026-04-06T07:11:30.999Z</time></trkpt><trkpt lat="44.53011690169144" lon="10.897293777204938"><ele>119.0</ele><time>2026-04-06T07:11:34Z</time></trkpt><trkpt lat="44.5301736455378" lon="10.897336059790776"><ele>119.0</ele><time>2026-04-06T07:11:36Z</time></trkpt><trkpt lat="44.53023481844377" lon="10.897365637506025"><ele>119.0</ele><time>2026-04-06T07:11:38Z</time></trkpt><trkpt lat="44.53030572661421" lon="10.897356058072333"><ele>119.0</ele><time>2026-04-06T07:11:40Z</time></trkpt><trkpt lat="44.530386873876445" lon="10.897402247558398"><ele>118.49999999999999</ele><time>2026-04-06T07:11:42Z</time></trkpt><trkpt lat="44.53046663950708" lon="10.897449513868379"><ele>118.0</ele><time>2026-04-06T07:11:44Z</time></trkpt><trkpt lat="44.53055270541445" lon="10.89748676193392"><ele>117.5</ele><time>2026-04-06T07:11:46Z</time></trkpt><trkpt lat="44.530636618809126" lon="10.897523862084983"><ele>117.0</ele><time>2026-04-06T07:11:48Z</time></trkpt><trkpt lat="44.53072525290574" lon="10.89756670201394"><ele>116.49999999999999</ele><time>2026-04-06T07:11:50Z</time></trkpt><trkpt lat="44.5308110447757" lon="10.8976024601691"><ele>116.0</ele><time>2026-04-06T07:11:52Z</time></trkpt><trkpt lat="44.53089778644385" lon="10.897638364777"><ele>116.0</ele><time>2026-04-06T07:11:54Z</time></trkpt><trkpt lat="44.53097918391225" lon="10.89767945845347"><ele>116.0</ele><time>2026-04-06T07:11:56Z</time></trkpt><trkpt lat="44.531064028348986" lon="10.897721379262093"><ele>116.0</ele><time>2026-04-06T07:11:58Z</time></trkpt><trkpt lat="44.531157535341784" lon="10.897761477867817"><ele>116.0</ele><time>2026-04-06T07:12:00Z</time></trkpt><trkpt lat="44.53124359957385" lon="10.897810054680644"><ele>116.0</ele><time>2026-04-06T07:12:02Z</time></trkpt><trkpt lat="44.53132920011954" lon="10.897854309421822"><ele>115.6</ele><time>2026-04-06T07:12:04Z</time></trkpt><trkpt lat="44.531418845081156" lon="10.897905728886156"><ele>115.19999999999999</ele><time>2026-04-06T07:12:06Z</time></trkpt><trkpt lat="44.531510452698704" lon="10.897961897838083"><ele>114.80000000000001</ele><time>2026-04-06T07:12:08Z</time></trkpt><trkpt lat="44.531614039705815" lon="10.898017121151685"><ele>114.4</ele><time>2026-04-06T07:12:10Z</time></trkpt><trkpt lat="44.5317214278507" lon="10.898066562731298"><ele>114.0</ele><time>2026-04-06T07:12:12Z</time></trkpt><trkpt lat="44.53182086654747" lon="10.898131228168118"><ele>114.0</ele><time>2026-04-06T07:12:14Z</time></trkpt><trkpt lat="44.53193009134164" lon="10.898135923439293"><ele>114.0</ele><time>2026-04-06T07:12:16Z</time></trkpt><trkpt lat="44.53201333150349" lon="10.898020563107883"><ele>114.0</ele><time>2026-04-06T07:12:18Z</time></trkpt><trkpt lat="44.53204637066955" lon="10.897873611657031"><ele>114.0</ele><time>2026-04-06T07:12:20Z</time></trkpt><trkpt lat="44.53207818867273" lon="10.897730652010944"><ele>114.0</ele><time>2026-04-06T07:12:22Z</time></trkpt><trkpt lat="44.53211765639292" lon="10.89761345409705"><ele>113.80000000000001</ele><time>2026-04-06T07:12:24Z</time></trkpt><trkpt lat="44.532154338338835" lon="10.897488682181677"><ele>113.60000000000001</ele><time>2026-04-06T07:12:26Z</time></trkpt><trkpt lat="44.53218966151522" lon="10.897359201708039"><ele>113.4</ele><time>2026-04-06T07:12:28Z</time></trkpt><trkpt lat="44.532223138527854" lon="10.8972300050641"><ele>113.2</ele><time>2026-04-06T07:12:29.999Z</time></trkpt><trkpt lat="44.53226613365854" lon="10.897116975784805"><ele>113.0</ele><time>2026-04-06T07:12:31.999Z</time></trkpt><trkpt lat="44.5322990560994" lon="10.89700114565767"><ele>113.0</ele><time>2026-04-06T07:12:33.999Z</time></trkpt><trkpt lat="44.53232500194144" lon="10.896873787244356"><ele>113.00000000000001</ele><time>2026-04-06T07:12:35.999Z</time></trkpt><trkpt lat="44.532361784345376" lon="10.89675677412408"><ele>113.00000000000001</ele><time>2026-04-06T07:12:37.999Z</time></trkpt><trkpt lat="44.53239220571632" lon="10.896627540053517"><ele>113.0</ele><time>2026-04-06T07:12:39.999Z</time></trkpt><trkpt lat="44.532422848755346" lon="10.896508600890945"><ele>113.0</ele><time>2026-04-06T07:12:41.999Z</time></trkpt><trkpt lat="44.532463385167944" lon="10.896398478326411"><ele>113.0</ele><time>2026-04-06T07:12:43.999Z</time></trkpt><trkpt lat="44.53248761671277" lon="10.896256666956756"><ele>113.00000000000001</ele><time>2026-04-06T07:12:45.999Z</time></trkpt><trkpt lat="44.53252013864686" lon="10.896140184246672"><ele>113.00000000000001</ele><time>2026-04-06T07:12:47.999Z</time></trkpt><trkpt lat="44.532559535776564" lon="10.896024857023217"><ele>113.0</ele><time>2026-04-06T07:12:49.999Z</time></trkpt><trkpt lat="44.53258209904547" lon="10.895898872540377"><ele>113.0</ele><time>2026-04-06T07:12:51.999Z</time></trkpt><trkpt lat="44.53260385023428" lon="10.895778343431408"><ele>113.49999999999999</ele><time>2026-04-06T07:12:53.999Z</time></trkpt><trkpt lat="44.53264650495718" lon="10.895674425513363"><ele>114.0</ele><time>2026-04-06T07:12:55.999Z</time></trkpt><trkpt lat="44.53266486647966" lon="10.895554278755775"><ele>114.5</ele><time>2026-04-06T07:12:57.999Z</time></trkpt><trkpt lat="44.532701700832234" lon="10.895433192810756"><ele>115.0</ele><time>2026-04-06T07:12:59.999Z</time></trkpt><trkpt lat="44.532729912013664" lon="10.895327891436283"><ele>115.49999999999999</ele><time>2026-04-06T07:13:01.999Z</time></trkpt><trkpt lat="44.532743229567984" lon="10.895230870566818"><ele>116.0</ele><time>2026-04-06T07:13:03.999Z</time></trkpt><trkpt lat="44.53268342644005" lon="10.89513190980015"><ele>116.0</ele><time>2026-04-06T07:13:05.999Z</time></trkpt><trkpt lat="44.5325985313876" lon="10.89509911085614"><ele>116.0</ele><time>2026-04-06T07:13:07.999Z</time></trkpt><trkpt lat="44.532508385948425" lon="10.895055718437828"><ele>116.0</ele><time>2026-04-06T07:13:09.999Z</time></trkpt><trkpt lat="44.53242409601486" lon="10.895000708999998"><ele>116.0</ele><time>2026-04-06T07:13:11.999Z</time></trkpt><trkpt lat="44.53234123281415" lon="10.894953814465035"><ele>116.0</ele><time>2026-04-06T07:13:13.999Z</time></trkpt><trkpt lat="44.53225181958391" lon="10.894900618466405"><ele>116.33333333333333</ele><time>2026-04-06T07:13:15.999Z</time></trkpt><trkpt lat="44.53216135598837" lon="10.89485253932127"><ele>116.66666666666666</ele><time>2026-04-06T07:13:17.999Z</time></trkpt><trkpt lat="44.532084189236556" lon="10.894803243453461"><ele>117.0</ele><time>2026-04-06T07:13:19.999Z</time></trkpt><trkpt lat="44.53200829354679" lon="10.894753097962273"><ele>117.33333333333334</ele><time>2026-04-06T07:13:21.999Z</time></trkpt><trkpt lat="44.53192549851894" lon="10.894706065632128"><ele>117.66666666666667</ele><time>2026-04-06T07:13:23.999Z</time></trkpt><trkpt lat="44.53184953501191" lon="10.89465449739183"><ele>118.0</ele><time>2026-04-06T07:13:25.999Z</time></trkpt><trkpt lat="44.531769404977936" lon="10.894608941958108"><ele>118.33333333333334</ele><time>2026-04-06T07:13:27.999Z</time></trkpt><trkpt lat="44.531690492709636" lon="10.894559540674967"><ele>118.66666666666667</ele><time>2026-04-06T07:13:29.999Z</time></trkpt><trkpt lat="44.53162016501542" lon="10.894512925240198"><ele>119.0</ele><time>2026-04-06T07:13:31.999Z</time></trkpt><trkpt lat="44.53154412398021" lon="10.894459581919685"><ele>119.33333333333334</ele><time>2026-04-06T07:13:33.999Z</time></trkpt><trkpt lat="44.53145656610489" lon="10.894412515899118"><ele>119.66666666666667</ele><time>2026-04-06T07:13:35.999Z</time></trkpt><trkpt lat="44.53137292868759" lon="10.894363412206989"><ele>120.0</ele><time>2026-04-06T07:13:37.999Z</time></trkpt><trkpt lat="44.53129526283139" lon="10.89431314346914"><ele>120.0</ele><time>2026-04-06T07:13:40Z</time></trkpt><trkpt lat="44.53121298291587" lon="10.89426483794627"><ele>120.0</ele><time>2026-04-06T07:13:42Z</time></trkpt><trkpt lat="44.53112656994858" lon="10.894218333977626"><ele>120.0</ele><time>2026-04-06T07:13:44Z</time></trkpt><trkpt lat="44.53105417166443" lon="10.894171911779093"><ele>120.0</ele><time>2026-04-06T07:13:46Z</time></trkpt><trkpt lat="44.53097621434297" lon="10.894122050262279"><ele>120.0</ele><time>2026-04-06T07:13:48Z</time></trkpt><trkpt lat="44.53089348473435" lon="10.894069356188329"><ele>120.0</ele><time>2026-04-06T07:13:50Z</time></trkpt><trkpt lat="44.53082571643353" lon="10.894013816666066"><ele>120.0</ele><time>2026-04-06T07:13:52Z</time></trkpt><trkpt lat="44.530750556214244" lon="10.893991823092476"><ele>120.0</ele><time>2026-04-06T07:13:54Z</time></trkpt><trkpt lat="44.53067123763717" lon="10.893941506490583"><ele>120.0</ele><time>2026-04-06T07:13:56Z</time></trkpt><trkpt lat="44.53060042195825" lon="10.893891411715034"><ele>120.0</ele><time>2026-04-06T07:13:58Z</time></trkpt><trkpt lat="44.530527638640926" lon="10.893844356213624"><ele>120.0</ele><time>2026-04-06T07:14:00Z</time></trkpt><trkpt lat="44.53041561870707" lon="10.89378292661538"><ele>120.0</ele><time>2026-04-06T07:14:02Z</time></trkpt><trkpt lat="44.530308705801076" lon="10.89371650786562"><ele>120.4</ele><time>2026-04-06T07:14:04Z</time></trkpt><trkpt lat="44.530222989706395" lon="10.89366814516763"><ele>120.8</ele><time>2026-04-06T07:14:06Z</time></trkpt><trkpt lat="44.53012445170608" lon="10.893619588144274"><ele>121.19999999999999</ele><time>2026-04-06T07:14:08Z</time></trkpt><trkpt lat="44.53005515753801" lon="10.893580876568718"><ele>121.6</ele><time>2026-04-06T07:14:09Z</time></trkpt><trkpt lat="44.52996493950518" lon="10.893529474381564"><ele>122.0</ele><time>2026-04-06T07:14:11Z</time></trkpt><trkpt lat="44.529884522562995" lon="10.893482674886853"><ele>121.99999999999999</ele><time>2026-04-06T07:14:13Z</time></trkpt><trkpt lat="44.52982110511266" lon="10.893438366529777"><ele>122.0</ele><time>2026-04-06T07:14:15Z</time></trkpt><trkpt lat="44.52975023625533" lon="10.893392004154087"><ele>122.0</ele><time>2026-04-06T07:14:17Z</time></trkpt><trkpt lat="44.52967678564735" lon="10.8933409945405"><ele>122.0</ele><time>2026-04-06T07:14:19Z</time></trkpt><trkpt lat="44.52961831413805" lon="10.893282797687752"><ele>121.99999999999999</ele><time>2026-04-06T07:14:21Z</time></trkpt><trkpt lat="44.52953206527276" lon="10.893235791281512"><ele>122.0</ele><time>2026-04-06T07:14:23Z</time></trkpt><trkpt lat="44.529456270781964" lon="10.8931914508242"><ele>122.16666666666666</ele><time>2026-04-06T07:14:25Z</time></trkpt><trkpt lat="44.529377691663804" lon="10.893165944294157"><ele>122.33333333333333</ele><time>2026-04-06T07:14:27Z</time></trkpt><trkpt lat="44.52930098081455" lon="10.893111022639538"><ele>122.5</ele><time>2026-04-06T07:14:29Z</time></trkpt><trkpt lat="44.52923548594003" lon="10.893063244496409"><ele>122.66666666666666</ele><time>2026-04-06T07:14:31Z</time></trkpt><trkpt lat="44.52916325846042" lon="10.893020051777311"><ele>122.83333333333333</ele><time>2026-04-06T07:14:33Z</time></trkpt><trkpt lat="44.52907234376078" lon="10.89296992212543"><ele>123.0</ele><time>2026-04-06T07:14:35Z</time></trkpt><trkpt lat="44.529005163615246" lon="10.892908324182653"><ele>123.0</ele><time>2026-04-06T07:14:37Z</time></trkpt><trkpt lat="44.52892540572214" lon="10.892873963217852"><ele>123.0</ele><time>2026-04-06T07:14:38.999Z</time></trkpt><trkpt lat="44.52886262149536" lon="10.892817413535926"><ele>123.0</ele><time>2026-04-06T07:14:40.999Z</time></trkpt><trkpt lat="44.52878628161675" lon="10.892781050259503"><ele>123.0</ele><time>2026-04-06T07:14:42.999Z</time></trkpt><trkpt lat="44.52871671403221" lon="10.89273358501373"><ele>123.0</ele><time>2026-04-06T07:14:44.999Z</time></trkpt><trkpt lat="44.52865027154919" lon="10.89268206862127"><ele>123.0</ele><time>2026-04-06T07:14:46.999Z</time></trkpt><trkpt lat="44.528579198997306" lon="10.892630765185707"><ele>123.16666666666667</ele><time>2026-04-06T07:14:48.999Z</time></trkpt><trkpt lat="44.52850919697059" lon="10.892583018131416"><ele>123.33333333333334</ele><time>2026-04-06T07:14:50.999Z</time></trkpt><trkpt lat="44.52843377074386" lon="10.892530271780847"><ele>123.5</ele><time>2026-04-06T07:14:52.999Z</time></trkpt><trkpt lat="44.52836418868513" lon="10.892487040904742"><ele>123.66666666666667</ele><time>2026-04-06T07:14:54.999Z</time></trkpt><trkpt lat="44.52827185064528" lon="10.892429619875744"><ele>123.83333333333334</ele><time>2026-04-06T07:14:57.999Z</time></trkpt><trkpt lat="44.52820417743114" lon="10.892385286287931"><ele>124.0</ele><time>2026-04-06T07:14:59.999Z</time></trkpt><trkpt lat="44.52813165118797" lon="10.89234133896079"><ele>124.0</ele><time>2026-04-06T07:15:01.999Z</time></trkpt><trkpt lat="44.52806500634355" lon="10.892318987258509"><ele>124.0</ele><time>2026-04-06T07:15:03.999Z</time></trkpt><trkpt lat="44.527946562772414" lon="10.89242063746825"><ele>124.0</ele><time>2026-04-06T07:15:11.999Z</time></trkpt><trkpt lat="44.528011875536016" lon="10.892540188161574"><ele>124.0</ele><time>2026-04-06T07:15:17.999Z</time></trkpt><trkpt lat="44.527925696220116" lon="10.89247949495727"><ele>124.0</ele><time>2026-04-06T07:15:33.999Z</time></trkpt><trkpt lat="44.52801247114961" lon="10.892536801331488"><ele>124.0</ele><time>2026-04-06T07:15:37.999Z</time></trkpt><trkpt lat="44.52792670012899" lon="10.892476524240257"><ele>124.0</ele><time>2026-04-06T07:15:47Z</time></trkpt><trkpt lat="44.52801231442635" lon="10.892533064130198"><ele>124.0</ele><time>2026-04-06T07:15:49Z</time></trkpt><trkpt lat="44.52792670012899" lon="10.892476524240257"><ele>124.0</ele><time>2026-04-06T07:15:55Z</time></trkpt><trkpt lat="44.52801231442635" lon="10.892533064130198"><ele>124.0</ele><time>2026-04-06T07:16:01Z</time></trkpt><trkpt lat="44.52792670012899" lon="10.892476524240257"><ele>124.0</ele><time>2026-04-06T07:16:03Z</time></trkpt><trkpt lat="44.52801231442635" lon="10.892533064130198"><ele>124.0</ele><time>2026-04-06T07:16:07Z</time></trkpt><trkpt lat="44.52792670012899" lon="10.892476524240257"><ele>124.0</ele><time>2026-04-06T07:16:23Z</time></trkpt><trkpt lat="44.52801231442635" lon="10.892533064130198"><ele>124.0</ele><time>2026-04-06T07:16:38Z</time></trkpt><trkpt lat="44.52792670012899" lon="10.892476524240257"><ele>124.0</ele><time>2026-04-06T07:16:44Z</time></trkpt><trkpt lat="44.52801231442635" lon="10.892533064130198"><ele>124.0</ele><time>2026-04-06T07:16:59.999Z</time></trkpt><trkpt lat="44.52792670012899" lon="10.892476524240259"><ele>124.0</ele><time>2026-04-06T07:17:12.999Z</time></trkpt><trkpt lat="44.52801231442635" lon="10.892533064130198"><ele>124.0</ele><time>2026-04-06T07:17:16.999Z</time></trkpt><trkpt lat="44.527926700134614" lon="10.892476524243973"><ele>124.0</ele><time>2026-04-06T07:17:28.999Z</time></trkpt><trkpt lat="44.528016086681745" lon="10.892543576653695"><ele>124.0</ele><time>2026-04-06T07:17:35.999Z</time></trkpt><trkpt lat="44.527922766738286" lon="10.892488163734324"><ele>124.00000000000001</ele><time>2026-04-06T07:17:53Z</time></trkpt><trkpt lat="44.528005858148084" lon="10.892536613530488"><ele>124.0</ele><time>2026-04-06T07:17:56Z</time></trkpt><trkpt lat="44.52792675727067" lon="10.892476355143431"><ele>124.0</ele><time>2026-04-06T07:18:02Z</time></trkpt><trkpt lat="44.52799421944743" lon="10.892543659465936"><ele>124.0</ele><time>2026-04-06T07:18:03Z</time></trkpt><trkpt lat="44.5278925182289" lon="10.892577673577069"><ele>124.00000000000001</ele><time>2026-04-06T07:18:07Z</time></trkpt><trkpt lat="44.52786075202365" lon="10.89267167135677"><ele>124.0</ele><time>2026-04-06T07:18:10Z</time></trkpt><trkpt lat="44.527936020875835" lon="10.892773862731806"><ele>123.83333333333334</ele><time>2026-04-06T07:18:11Z</time></trkpt><trkpt lat="44.52790436148333" lon="10.89286191530825"><ele>123.66666666666667</ele><time>2026-04-06T07:18:13Z</time></trkpt><trkpt lat="44.527874582712585" lon="10.892961803896783"><ele>123.5</ele><time>2026-04-06T07:18:15Z</time></trkpt><trkpt lat="44.527839577335186" lon="10.8930460318674"><ele>123.33333333333334</ele><time>2026-04-06T07:18:17Z</time></trkpt><trkpt lat="44.52778449829666" lon="10.893091102250223"><ele>123.16666666666667</ele><time>2026-04-06T07:18:19Z</time></trkpt><trkpt lat="44.52770072474109" lon="10.893031869499355"><ele>123.0</ele><time>2026-04-06T07:18:20Z</time></trkpt><trkpt lat="44.52776437452619" lon="10.892918130587779"><ele>123.66666666666667</ele><time>2026-04-06T07:18:23Z</time></trkpt><trkpt lat="44.52780750074744" lon="10.892829987725145"><ele>124.33333333333334</ele><time>2026-04-06T07:18:25Z</time></trkpt><trkpt lat="44.52784570211441" lon="10.892740196838613"><ele>125.0</ele><time>2026-04-06T07:18:27Z</time></trkpt><trkpt lat="44.527871400164656" lon="10.892636917649366"><ele>125.66666666666667</ele><time>2026-04-06T07:18:29Z</time></trkpt><trkpt lat="44.52788128064341" lon="10.892534431935315"><ele>126.33333333333334</ele><time>2026-04-06T07:18:31Z</time></trkpt><trkpt lat="44.52788802865692" lon="10.892426827521518"><ele>127.0</ele><time>2026-04-06T07:18:34Z</time></trkpt><trkpt lat="44.52787692678552" lon="10.8923237637723"><ele>127.16666666666667</ele><time>2026-04-06T07:18:44Z</time></trkpt><trkpt lat="44.52785777027137" lon="10.892215195624066"><ele>127.33333333333334</ele><time>2026-04-06T07:18:46Z</time></trkpt><trkpt lat="44.52783069844418" lon="10.892099367867806"><ele>127.5</ele><time>2026-04-06T07:18:48Z</time></trkpt><trkpt lat="44.52780187790478" lon="10.891983681575207"><ele>127.66666666666666</ele><time>2026-04-06T07:18:50Z</time></trkpt><trkpt lat="44.527771395923885" lon="10.891861407472113"><ele>127.83333333333333</ele><time>2026-04-06T07:18:52Z</time></trkpt><trkpt lat="44.527747168148736" lon="10.891724281930678"><ele>128.0</ele><time>2026-04-06T07:18:54Z</time></trkpt><trkpt lat="44.52770803231338" lon="10.891585684005836"><ele>127.4</ele><time>2026-04-06T07:18:56Z</time></trkpt><trkpt lat="44.52767187908185" lon="10.891439586317478"><ele>126.80000000000001</ele><time>2026-04-06T07:18:58Z</time></trkpt><trkpt lat="44.52764086039663" lon="10.891295194778245"><ele>126.2</ele><time>2026-04-06T07:19:00Z</time></trkpt><trkpt lat="44.52762398690823" lon="10.891144817163248"><ele>125.6</ele><time>2026-04-06T07:19:01.999Z</time></trkpt><trkpt lat="44.5276119952158" lon="10.890995803715986"><ele>125.0</ele><time>2026-04-06T07:19:03.999Z</time></trkpt><trkpt lat="44.527619126269364" lon="10.890844250403795"><ele>125.0</ele><time>2026-04-06T07:19:05.999Z</time></trkpt><trkpt lat="44.52763486476674" lon="10.890696485694386"><ele>125.0</ele><time>2026-04-06T07:19:07.999Z</time></trkpt><trkpt lat="44.52764909360031" lon="10.890548620249747"><ele>125.0</ele><time>2026-04-06T07:19:09.999Z</time></trkpt><trkpt lat="44.527675801920324" lon="10.890416170550163"><ele>125.0</ele><time>2026-04-06T07:19:11.999Z</time></trkpt><trkpt lat="44.52770477619229" lon="10.890316642436737"><ele>125.0</ele><time>2026-04-06T07:19:13.999Z</time></trkpt><trkpt lat="44.52758853366869" lon="10.890307950794517"><ele>124.99999999999999</ele><time>2026-04-06T07:19:14.999Z</time></trkpt><trkpt lat="44.52750898717602" lon="10.890258291343105"><ele>125.0</ele><time>2026-04-06T07:19:16.999Z</time></trkpt><trkpt lat="44.527430363703814" lon="10.890209208126095"><ele>125.0</ele><time>2026-04-06T07:19:18.999Z</time></trkpt><trkpt lat="44.52735237815874" lon="10.890160523157446"><ele>125.0</ele><time>2026-04-06T07:19:20.999Z</time></trkpt><trkpt lat="44.52728098816571" lon="10.890115955637665"><ele>124.99999999999999</ele><time>2026-04-06T07:19:22.999Z</time></trkpt><trkpt lat="44.52720670167227" lon="10.890069579956272"><ele>125.0</ele><time>2026-04-06T07:19:24.999Z</time></trkpt><trkpt lat="44.52722054482177" lon="10.889897144033084"><ele>125.16666666666666</ele><time>2026-04-06T07:19:27.999Z</time></trkpt><trkpt lat="44.527249991548224" lon="10.889793477474559"><ele>125.33333333333333</ele><time>2026-04-06T07:19:29.999Z</time></trkpt><trkpt lat="44.52728784955339" lon="10.889710338591662"><ele>125.5</ele><time>2026-04-06T07:19:31.999Z</time></trkpt><trkpt lat="44.52718347885913" lon="10.889621573883396"><ele>125.66666666666666</ele><time>2026-04-06T07:19:33.999Z</time></trkpt><trkpt lat="44.52710533720096" lon="10.889587098031672"><ele>125.83333333333333</ele><time>2026-04-06T07:19:35.999Z</time></trkpt><trkpt lat="44.52702298532798" lon="10.889546397154557"><ele>126.0</ele><time>2026-04-06T07:19:37.999Z</time></trkpt><trkpt lat="44.52695799891505" lon="10.889502417587934"><ele>126.33333333333333</ele><time>2026-04-06T07:19:39.999Z</time></trkpt><trkpt lat="44.526883431925484" lon="10.88944181694969"><ele>126.66666666666666</ele><time>2026-04-06T07:19:41.999Z</time></trkpt><trkpt lat="44.526811086012216" lon="10.889396506204296"><ele>127.0</ele><time>2026-04-06T07:19:43.999Z</time></trkpt><trkpt lat="44.52673024510749" lon="10.889366891797094"><ele>127.33333333333333</ele><time>2026-04-06T07:19:45.999Z</time></trkpt><trkpt lat="44.526650396069584" lon="10.889310170601362"><ele>127.66666666666666</ele><time>2026-04-06T07:19:47.999Z</time></trkpt><trkpt lat="44.52658164985355" lon="10.889257477197217"><ele>128.0</ele><time>2026-04-06T07:19:49.999Z</time></trkpt><trkpt lat="44.526496923871626" lon="10.88921028725201"><ele>128.33333333333331</ele><time>2026-04-06T07:19:51.999Z</time></trkpt><trkpt lat="44.52642807347542" lon="10.889156416791106"><ele>128.66666666666666</ele><time>2026-04-06T07:19:53.999Z</time></trkpt><trkpt lat="44.526348938629475" lon="10.889116342749602"><ele>129.0</ele><time>2026-04-06T07:19:55.999Z</time></trkpt><trkpt lat="44.526266004458904" lon="10.88906350298323"><ele>129.33333333333334</ele><time>2026-04-06T07:19:58Z</time></trkpt><trkpt lat="44.52618722836143" lon="10.889014393307097"><ele>129.66666666666669</ele><time>2026-04-06T07:20:00Z</time></trkpt><trkpt lat="44.526114433686935" lon="10.88896591577969"><ele>130.0</ele><time>2026-04-06T07:20:02Z</time></trkpt><trkpt lat="44.52604866732933" lon="10.888935607786891"><ele>130.0</ele><time>2026-04-06T07:20:04Z</time></trkpt><trkpt lat="44.52598928102318" lon="10.889069934026583"><ele>130.0</ele><time>2026-04-06T07:20:07Z</time></trkpt><trkpt lat="44.525966663555174" lon="10.889186704714486"><ele>130.0</ele><time>2026-04-06T07:20:09Z</time></trkpt><trkpt lat="44.52592518496413" lon="10.889296987506034"><ele>130.0</ele><time>2026-04-06T07:20:11Z</time></trkpt><trkpt lat="44.52590134926272" lon="10.889413776096697"><ele>130.0</ele><time>2026-04-06T07:20:13Z</time></trkpt><trkpt lat="44.525851100552615" lon="10.88951031015403"><ele>130.0</ele><time>2026-04-06T07:20:15Z</time></trkpt><trkpt lat="44.525818686053974" lon="10.889617636809925"><ele>130.0</ele><time>2026-04-06T07:20:17Z</time></trkpt><trkpt lat="44.52578072698414" lon="10.889726126835814"><ele>130.0</ele><time>2026-04-06T07:20:19Z</time></trkpt><trkpt lat="44.52574860135428" lon="10.889839029464492"><ele>130.0</ele><time>2026-04-06T07:20:21Z</time></trkpt><trkpt lat="44.525717985062784" lon="10.889939496094486"><ele>130.0</ele><time>2026-04-06T07:20:23Z</time></trkpt><trkpt lat="44.52568641814176" lon="10.890037991628121"><ele>130.0</ele><time>2026-04-06T07:20:25Z</time></trkpt><trkpt lat="44.52565171850785" lon="10.890147426754961"><ele>130.0</ele><time>2026-04-06T07:20:27Z</time></trkpt><trkpt lat="44.52561804972976" lon="10.890256877824415"><ele>130.0</ele><time>2026-04-06T07:20:29Z</time></trkpt><trkpt lat="44.5255842178584" lon="10.89035919769066"><ele>130.0</ele><time>2026-04-06T07:20:31Z</time></trkpt><trkpt lat="44.525557031674154" lon="10.890468421438703"><ele>130.0</ele><time>2026-04-06T07:20:33Z</time></trkpt><trkpt lat="44.525521350175865" lon="10.890577747106347"><ele>130.0</ele><time>2026-04-06T07:20:35Z</time></trkpt><trkpt lat="44.52546429798778" lon="10.890617299773622"><ele>130.0</ele><time>2026-04-06T07:20:37Z</time></trkpt><trkpt lat="44.5253875533257" lon="10.890567401596229"><ele>130.0</ele><time>2026-04-06T07:20:39Z</time></trkpt><trkpt lat="44.52530376056469" lon="10.890512055331664"><ele>130.0</ele><time>2026-04-06T07:20:41Z</time></trkpt><trkpt lat="44.525219016494454" lon="10.890458237263323"><ele>130.0</ele><time>2026-04-06T07:20:43Z</time></trkpt><trkpt lat="44.52514071773677" lon="10.890397247615658"><ele>130.0</ele><time>2026-04-06T07:20:45Z</time></trkpt><trkpt lat="44.5250596682219" lon="10.890347486914536"><ele>130.0</ele><time>2026-04-06T07:20:47Z</time></trkpt><trkpt lat="44.52497602064647" lon="10.890293931128117"><ele>130.0</ele><time>2026-04-06T07:20:49Z</time></trkpt><trkpt lat="44.52487813951223" lon="10.890243598766395"><ele>130.0</ele><time>2026-04-06T07:20:51Z</time></trkpt><trkpt lat="44.524786765474545" lon="10.89019552455272"><ele>130.0</ele><time>2026-04-06T07:20:53Z</time></trkpt><trkpt lat="44.52470579462169" lon="10.890134565492017"><ele>130.0</ele><time>2026-04-06T07:20:54.999Z</time></trkpt><trkpt lat="44.52463544417233" lon="10.890077905921267"><ele>130.0</ele><time>2026-04-06T07:20:56.999Z</time></trkpt><trkpt lat="44.52455064950536" lon="10.89003038867201"><ele>130.33333333333334</ele><time>2026-04-06T07:20:58.999Z</time></trkpt><trkpt lat="44.52446918380212" lon="10.88999221540225"><ele>130.66666666666669</ele><time>2026-04-06T07:21:00.999Z</time></trkpt><trkpt lat="44.524411472389104" lon="10.889942839427155"><ele>131.0</ele><time>2026-04-06T07:21:02.999Z</time></trkpt><trkpt lat="44.52434745327925" lon="10.889902497320223"><ele>131.33333333333334</ele><time>2026-04-06T07:21:04.999Z</time></trkpt><trkpt lat="44.524278541926805" lon="10.88985168395041"><ele>131.66666666666666</ele><time>2026-04-06T07:21:06.999Z</time></trkpt><trkpt lat="44.52419677001664" lon="10.889786312910058"><ele>132.0</ele><time>2026-04-06T07:21:09.999Z</time></trkpt><trkpt lat="44.52412789566993" lon="10.889742874861087"><ele>132.0</ele><time>2026-04-06T07:21:11.999Z</time></trkpt><trkpt lat="44.52405829516959" lon="10.889699318762423"><ele>132.0</ele><time>2026-04-06T07:21:13.999Z</time></trkpt><trkpt lat="44.52398571474576" lon="10.889655468190249"><ele>132.0</ele><time>2026-04-06T07:21:15.999Z</time></trkpt><trkpt lat="44.52390338614647" lon="10.88959875738838"><ele>132.0</ele><time>2026-04-06T07:21:17.999Z</time></trkpt><trkpt lat="44.52382763415895" lon="10.88954278882207"><ele>132.0</ele><time>2026-04-06T07:21:19.999Z</time></trkpt><trkpt lat="44.52375276199178" lon="10.889490776516608"><ele>132.0</ele><time>2026-04-06T07:21:21.999Z</time></trkpt><trkpt lat="44.52367048574387" lon="10.889441736453554"><ele>132.16666666666666</ele><time>2026-04-06T07:21:23.999Z</time></trkpt><trkpt lat="44.52358666231334" lon="10.889395906287126"><ele>132.33333333333334</ele><time>2026-04-06T07:21:25.999Z</time></trkpt><trkpt lat="44.52350579725117" lon="10.889343211143753"><ele>132.5</ele><time>2026-04-06T07:21:27.999Z</time></trkpt><trkpt lat="44.523433172761635" lon="10.889281637009681"><ele>132.66666666666669</ele><time>2026-04-06T07:21:29.999Z</time></trkpt><trkpt lat="44.52334630037306" lon="10.889241322328552"><ele>132.83333333333334</ele><time>2026-04-06T07:21:31.999Z</time></trkpt><trkpt lat="44.523267545137585" lon="10.889180230578763"><ele>133.0</ele><time>2026-04-06T07:21:33.999Z</time></trkpt><trkpt lat="44.52318887102018" lon="10.889121028574511"><ele>133.20000000000002</ele><time>2026-04-06T07:21:35.999Z</time></trkpt><trkpt lat="44.5231134841281" lon="10.889072455762173"><ele>133.4</ele><time>2026-04-06T07:21:37.999Z</time></trkpt><trkpt lat="44.52303265407966" lon="10.889043662254547"><ele>133.60000000000002</ele><time>2026-04-06T07:21:39.999Z</time></trkpt><trkpt lat="44.52297401457268" lon="10.889005555699168"><ele>133.8</ele><time>2026-04-06T07:21:41.999Z</time></trkpt><trkpt lat="44.523014063206084" lon="10.888821669684827"><ele>134.0</ele><time>2026-04-06T07:21:42.999Z</time></trkpt><trkpt lat="44.52302845120757" lon="10.88868682587379"><ele>134.0</ele><time>2026-04-06T07:21:44.999Z</time></trkpt><trkpt lat="44.52307611394907" lon="10.888587701002589"><ele>134.0</ele><time>2026-04-06T07:21:46.999Z</time></trkpt><trkpt lat="44.52310642626116" lon="10.888469331048745"><ele>134.0</ele><time>2026-04-06T07:21:48.999Z</time></trkpt><trkpt lat="44.52314963579569" lon="10.888358006578615"><ele>134.0</ele><time>2026-04-06T07:21:50.999Z</time></trkpt><trkpt lat="44.523042600282686" lon="10.888191241697939"><ele>134.0</ele><time>2026-04-06T07:21:54.999Z</time></trkpt><trkpt lat="44.52297631465206" lon="10.888158596846948"><ele>134.0</ele><time>2026-04-06T07:21:56.999Z</time></trkpt></trkseg></trk></gpx>